[[{"header":{"parameterUnit":"m.s-1","parameterCategory":1,"la1":31.0,"la2":29.5877,"lo1":-88.7671,"lo2":-86.6584,"dy":0.0162,"dx":0.0185,"nx":115,"ny":88,"refTime":"2023-05-26T00:00:00:Z","depth":0,"parameterNumber":2,"parameterNumberName":"U-component_of_WINDS"},"data":[0.0,0.0,0.0,0.0,0.0,0.0,0.0,0.0,0.0,0.0,0.0,0.0,0.0,0.0,0.0,0.0,0.0,0.0,0.0,0.0,0.0,0.0,0.0,0.0,0.0,0.0,0.0,0.0,0.0,0.0,0.0,0.0,0.0,0.0,0.0,0.0,0.0,0.0,0.0,0.0,0.0,0.0,0.0,0.0,0.0,0.0,0.0,0.0,0.0,0.0,0.0,0.0,0.0,0.0,0.0,0.0,0.0,0.0,0.0,0.0,0.0,0.0,0.0,0.0,0.0,0.0,0.0,0.0,0.0,0.0,0.0,0.0,0.0,0.0,0.0,0.0,0.0,0.0,0.0,0.0,0.0,0.0,0.0,0.0,0.0,0.0,0.0,0.0,0.0,0.0,0.0,0.0,0.0,0.0,0.0,0.0,0.0,0.0,0.0,0.0,0.0,0.0,0.0,0.0,0.0,0.0,0.0,0.0,0.0,0.0,0.0,0.0,0.0,0.0,0.0,0.0,0.0,0.0,0.0,0.0,0.0,0.0,0.0,0.0,0.0,0.0,0.0,0.0,0.0,0.0,0.0,0.0,0.0,0.0,0.0,0.0,0.0,0.0,0.0,0.0,0.0,0.0,0.0,0.0,0.0,0.0,0.0,0.0,0.0,0.0,0.0,0.0,0.0,0.0,0.0,0.0,0.0,0.0,0.0,0.0,0.0,0.0,0.0,0.0,0.0,0.0,0.0,0.0,0.0,0.0,0.0,0.0,0.0,0.0,0.0,0.0,0.0,0.0,0.0,0.0,0.0,0.0,0.0,0.0,0.0,0.0,0.0,0.0,0.0,0.0,0.0,0.0,0.0,0.0,0.0,0.0,0.0,0.0,0.0,0.0,0.0,0.0,0.0,0.0,0.0,0.0,0.0,0.0,0.0,0.0,0.0,0.0,0.0,0.0,0.0,0.0,0.0,0.0,0.0,0.0,0.0,0.0,0.0,0.0,0.0,0.0,0.0,0.0,0.0,0.0,0.0,0.0,0.0,0.0,0.0,0.0,0.0,0.0,0.0,0.0,0.0,0.0,0.0,0.0,0.0,0.0,0.0,0.0,0.0,0.0,0.0,0.0,0.0,0.0,0.0,0.0,0.0,0.0,0.0,0.0,0.0,0.0,0.0,0.0,0.0,0.0,0.0,0.0,0.0,0.0,0.0,0.0,0.0,0.0,0.0,0.0,0.0,0.0,0.0,0.0,0.0,0.0,0.0,0.0,0.0,0.0,0.0,0.0,0.0,0.0,0.0,0.0,0.0,0.0,0.0,0.0,0.0,0.0,0.0,0.0,0.0,0.0,0.0,0.0,0.0,0.0,0.0,0.0,0.0,0.0,0.0,0.0,0.0,0.0,0.0,0.0,0.0,0.0,0.0,0.0,0.0,0.0,0.0,0.0,0.0,0.0,0.0,0.0,0.0,0.0,0.0,0.0,0.0,0.0,0.0,0.0,0.0,0.0,0.0,0.0,0.0,0.0,0.0,0.0,0.0,0.0,0.0,0.0,0.0,0.0,0.0,0.0,0.0,0.0,0.0,0.0,0.0,0.0,0.0,0.0,0.0,0.0,0.0,0.0,0.0,0.0,0.0,0.0,0.0,0.0,0.0,0.0,0.0,0.0,0.0,0.0,0.0,0.0,0.0,0.0,0.0,0.0,0.0,0.0,0.0,0.0,0.0,0.0,0.0,0.0,0.0,0.0,0.0,0.0,0.0,0.0,0.0,0.0,0.0,0.0,0.0,0.0,0.0,0.0,0.0,0.0,0.0,0.0,0.0,0.0,0.0,0.0,0.0,0.0,0.0,0.0,0.0,0.0,0.0,0.0,0.0,0.0,0.0,0.0,0.0,0.0,0.0,0.0,0.0,0.0,0.0,0.0,0.0,0.0,0.0,0.0,0.0,0.0,0.0,0.0,0.0,0.0,0.0,0.0,0.0,0.0,0.0,0.0,0.0,0.0,0.0,0.0,0.0,0.0,0.0,0.0,0.0,0.0,0.0,0.0,0.0,0.0,0.0,0.0,0.0,0.0,0.0,0.0,0.0,0.0,0.0,0.0,0.0,0.0,0.0,0.0,0.0,0.0,0.0,0.0,0.0,0.0,0.0,0.0,0.0,0.0,0.0,0.0,0.0,0.0,0.0,0.0,0.0,0.0,0.0,0.0,0.0,0.0,0.0,0.0,0.0,0.0,0.0,0.0,0.0,0.0,0.0,0.0,0.0,0.0,0.0,0.0,0.0,0.0,0.0,0.0,0.0,0.0,0.0,0.0,0.0,0.0,0.0,0.0,0.0,0.0,0.0,0.0,0.0,0.0,0.0,0.0,0.0,0.0,0.0,0.0,0.0,0.0,0.0,0.0,0.0,0.0,0.0,0.0,0.0,0.0,0.0,0.0,0.0,0.0,0.0,0.0,0.0,0.0,0.0,0.0,0.0,0.0,0.0,0.0,0.0,0.0,0.0,0.0,0.0,0.0,0.0,0.0,0.0,0.0,0.0,0.0,0.0,0.0,0.0,0.0,0.0,0.0,0.0,0.0,0.0,0.0,0.0,0.0,0.0,0.0,0.0,0.0,0.0,0.0,0.0,0.0,0.0,0.0,0.0,0.0,0.0,0.0,0.0,0.0,0.0,0.0,0.0,0.0,0.0,0.0,0.0,0.0,0.0,0.0,0.0,0.0,0.0,0.0,0.0,0.0,0.0,0.0,0.0,0.0,0.0,0.0,0.0,0.0,0.0,0.0,0.0,0.0,0.0,0.0,0.0,0.0,0.0,0.0,0.0,0.0,0.0,0.0,0.0,0.0,0.0,0.0,0.0,0.0,0.0,0.0,0.0,0.0,0.0,0.0,0.0,0.0,0.0,0.0,0.0,0.0,0.0,0.0,0.0,0.0,0.0,0.0,0.0,0.0,0.0,0.0,0.0,0.0,0.0,0.0,0.0,0.0,0.0,0.0,0.0,0.0,0.0,0.0,0.0,0.0,0.0,0.0,0.0,0.0,0.0,0.0,0.0,0.0,0.0,0.0,0.0,0.0,0.0,0.0,0.0,0.0,0.0,0.0,0.0,0.0,0.0,0.0,0.0,0.0,0.0,0.0,0.0,0.0,0.0,0.0,0.0,0.0,0.0,0.0,0.0,0.0,0.0,0.0,0.0,0.0,0.0,0.0,0.0,0.0,0.0,0.0,0.0,0.0,0.0,0.0,0.0,0.0,0.0,0.0,0.0,0.0,0.0,0.0,0.0,0.0,0.0,0.0,0.0,0.0,0.0,0.0,0.0,0.0,0.0,0.0,0.0,0.0,0.0,0.0,0.0,0.0,0.0,0.0,0.0,0.0,0.0,0.0,0.0,0.0,0.0,0.0,0.0,0.0,0.0,0.0,0.0,0.0,0.0,0.0,0.0,0.0,0.0,0.0,0.0,0.0,0.0,0.0,0.0,0.0,0.0,0.0,0.0,0.0,0.0,0.0,0.0,0.0,0.0,0.0,0.0,0.0,0.0,0.0,0.0,0.0,0.0,0.0,0.0,0.0,0.0,0.0,0.0,0.0,0.0,0.0,0.0,0.0,0.0,0.0,0.0,0.0,0.0,0.0,0.0,0.0,0.0,0.0,0.0,0.0,0.0,0.0,0.0,0.0,0.0,0.0,0.0,0.0,0.0,0.0,0.0,0.0,0.0,0.0,0.0,0.0,0.0,0.0,0.0,0.0,0.0,0.0,0.0,0.0,0.0,0.0,0.0,0.0,0.0,0.0,0.0,0.0,0.0,0.0,0.0,0.0,0.0,0.0,0.0,0.0,0.0,0.0,0.0,0.0,0.0,0.0,0.0,0.0,0.0,0.0,0.0,0.0,0.0,0.0,0.0,0.0,0.0,0.0,0.0,0.0,0.0,0.0,0.0,0.0,0.0,0.0,0.0,0.0,0.0,0.0,0.0,0.0,0.0,0.0,0.0,0.0,0.0,0.0,0.0,0.0,0.0,0.0,0.0,0.0,0.0,0.0,0.0,0.0,0.0,0.0,0.0,0.0,0.0,0.0,0.0,0.0,0.0,0.0,0.0,0.0,0.0,0.0,0.0,0.0,0.0,0.0,0.0,0.0,0.0,0.0,0.0,0.0,0.0,0.0,0.0,0.0,0.0,0.0,0.0,0.0,0.0,0.0,0.0,0.0,0.0,0.0,0.0,0.0,0.0,0.0,0.0,0.0,0.0,0.0,0.0,0.0,0.0,0.0,0.0,0.0,0.0,0.0,1.2841,0.0,0.0,0.0,0.0,0.0,0.0,0.0,0.0,0.0,0.0,0.0,0.0,0.0,0.0,0.0,0.0,0.0,0.0,0.0,0.0,0.0,0.0,0.0,0.0,0.0,0.0,0.0,0.0,0.0,0.0,0.0,0.0,0.0,0.0,0.0,0.0,0.0,0.0,0.0,0.0,0.0,0.0,0.0,0.0,0.0,0.0,0.0,0.0,0.0,0.0,0.0,0.0,0.0,0.0,0.0,0.0,0.0,0.0,0.0,0.0,0.0,0.0,0.0,0.0,0.0,0.0,0.0,0.0,0.0,0.0,0.0,0.0,0.0,0.0,0.0,0.0,0.0,0.0,0.0,0.0,0.0,0.0,0.0,0.0,0.0,0.0,0.0,0.0,0.0,0.0,0.0,0.0,0.0,0.0,0.0,0.0,0.0,0.0,0.0,0.0,0.0,0.0,0.0,0.0,0.0,0.0,0.0,0.0,0.0,0.0,1.1953,1.1805,1.1616,1.1466,1.1416,0.0,0.0,0.0,0.0,0.0,0.0,0.0,0.0,0.0,0.0,0.0,0.0,0.0,0.0,0.0,0.0,0.0,0.0,0.0,0.0,0.0,0.0,0.0,0.0,0.0,0.0,0.0,0.0,0.0,0.0,0.0,0.0,0.0,0.0,0.0,0.0,0.0,0.0,0.0,0.0,0.0,0.0,0.0,0.0,0.0,0.0,0.0,0.0,0.0,0.0,0.0,0.0,0.0,0.0,0.0,0.0,0.0,0.0,0.0,0.0,0.0,0.0,0.0,0.0,0.0,0.0,0.0,0.0,0.0,0.0,0.0,0.0,0.0,0.0,0.0,0.0,0.0,0.0,0.0,0.0,0.0,0.0,0.0,0.0,0.0,0.0,0.0,0.0,0.0,0.0,0.0,0.0,0.0,0.0,0.0,0.0,0.0,0.0,0.0,0.0,0.0,0.0,0.0,0.0,0.0,0.0,0.0,0.0,0.0,0.0,0.0,0.0,1.0084,0.999,0.9946,0.0,0.0,0.0,0.0,0.0,0.0,0.0,0.0,0.0,0.0,0.0,0.0,0.0,0.0,0.0,0.0,0.0,0.0,0.0,0.0,0.0,0.0,0.0,0.0,0.0,0.0,0.0,0.0,0.0,0.0,0.0,0.0,0.0,0.0,0.0,0.0,0.0,0.0,0.0,0.0,0.0,0.0,0.0,0.0,0.0,0.0,0.0,0.0,0.0,0.0,0.0,0.0,0.0,0.0,0.0,0.0,0.0,0.0,0.0,0.0,0.0,0.0,0.0,0.0,0.0,0.0,0.0,0.0,0.0,0.0,0.0,0.0,0.0,0.0,0.0,0.0,0.0,0.0,0.0,0.0,0.0,0.0,0.0,0.0,0.0,0.0,0.0,0.0,0.0,0.0,0.0,0.0,0.0,0.0,0.0,0.0,0.0,0.0,0.0,0.0,0.0,0.0,0.0,0.0,0.0,0.0,0.0,0.0,0.0,0.0,0.8633,0.8541,0.8265,0.0,0.8482,0.0,0.0,0.0,0.0,0.0,0.0,0.0,0.0,0.0,0.0,0.0,0.0,0.0,0.0,0.0,0.0,0.0,0.0,0.0,0.0,0.0,0.0,0.0,0.0,0.0,0.0,0.0,0.0,0.0,0.0,0.0,0.0,0.0,0.0,0.0,0.0,0.0,0.0,0.0,0.0,0.0,0.0,0.0,0.0,0.0,0.0,0.0,0.0,0.0,0.0,0.0,0.0,0.0,0.0,0.0,0.0,0.0,0.0,0.0,0.0,0.0,0.0,0.0,0.0,0.0,0.0,0.0,0.0,0.0,0.0,0.0,0.0,0.0,0.0,0.0,0.0,0.0,0.0,0.0,0.0,0.0,0.0,0.0,0.0,0.0,0.0,0.0,0.0,0.0,0.0,0.0,0.0,0.0,0.0,0.0,0.0,0.0,0.0,0.0,0.0,0.0,0.0,0.0,0.0,0.0,0.0,0.0,0.0,0.0,0.0,0.7101,0.6827,0.6612,0.6612,0.0,0.0,0.0,0.0,0.0,0.0,0.0,0.0,0.0,0.0,0.0,0.0,0.0,0.0,0.0,0.0,0.0,0.0,0.0,0.0,0.0,0.0,0.0,0.0,0.0,0.0,0.0,0.0,0.0,0.0,0.0,0.0,0.0,0.0,0.0,0.0,0.0,0.0,0.0,0.0,0.0,0.0,0.0,0.0,0.0,0.0,0.0,0.0,0.0,0.0,0.0,0.0,0.0,0.0,0.0,0.0,0.0,0.0,0.0,0.0,0.0,0.0,0.0,0.0,0.0,0.0,0.0,0.0,0.0,0.0,0.0,0.0,0.0,0.0,0.0,0.0,0.0,0.0,0.0,0.0,0.0,0.0,0.0,0.0,0.0,0.0,0.0,0.0,0.0,0.0,0.0,0.0,0.0,0.0,0.0,0.0,0.0,0.0,0.0,0.0,0.0,0.0,0.0,0.0,0.0,0.0,0.0,0.0,0.0,0.0,0.5945,0.5584,0.4885,0.4797,0.4886,0.5274,0.0,0.0,0.0,0.0,0.0,0.0,0.0,0.0,0.0,0.0,0.0,0.0,0.0,0.0,0.0,0.0,0.0,0.0,0.0,0.0,0.0,0.0,0.0,0.0,0.0,0.0,0.0,0.0,0.0,0.0,0.0,0.0,0.0,0.0,0.0,0.0,0.0,0.0,0.0,0.0,0.0,0.0,0.0,0.0,0.0,0.0,0.0,0.0,0.0,0.0,0.0,0.0,0.0,0.0,0.0,0.0,0.0,0.0,0.0,0.0,0.0,0.0,0.0,0.0,0.0,0.0,0.0,0.0,0.0,0.0,0.0,0.0,0.0,0.0,0.0,0.0,0.0,0.0,0.0,0.0,0.0,0.0,0.0,0.0,0.0,0.0,0.0,0.0,0.0,0.0,0.0,0.0,0.0,0.0,0.0,0.0,0.0,0.0,0.0,0.0,0.0,0.0,0.0,0.0,0.0,0.0,0.0,0.0,0.3823,0.4371,0.4027,0.249,0.2726,0.3087,0.0,0.0,0.0,0.0,0.0,0.0,0.0,0.0,0.0,0.0,0.0,0.0,0.0,0.0,0.0,0.0,0.0,0.0,0.0,0.0,0.0,0.0,0.0,0.0,0.0,0.0,0.0,0.0,0.0,0.0,0.0,0.0,0.0,0.0,0.0,0.0,0.0,0.0,0.0,0.0,0.0,0.0,0.0,0.0,0.0,0.0,0.0,0.0,0.0,0.0,0.0,0.0,0.0,0.0,0.0,0.0,0.0,0.0,0.0,0.0,0.0,0.0,0.0,0.0,0.0,0.0,0.0,0.0,0.0,0.0,0.0,0.0,0.0,0.0,0.0,0.0,0.0,0.0,0.0,0.0,0.0,0.0,0.0,0.0,0.0,0.0,0.0,0.0,0.0,0.0,0.0,0.0,0.0,0.0,0.0,0.0,0.0,0.0,0.0,0.0,0.0,0.0,0.0,0.0,0.0,0.0,0.0,0.0,0.0,0.1867,0.1726,0.127,0.0488,0.0666,0.1014,0.0,0.0,0.0,0.0,0.0,0.0,0.0,0.0,0.0,0.0,0.0,0.0,0.0,0.0,0.0,0.0,0.0,0.0,0.0,0.0,0.0,0.0,0.0,0.0,0.0,0.0,0.0,0.0,0.0,0.0,0.0,0.0,0.0,0.0,0.0,0.0,0.0,0.0,0.0,0.0,0.0,0.0,0.0,0.0,0.0,0.0,0.0,0.0,0.0,0.0,0.0,0.0,0.0,0.0,0.0,0.0,0.0,0.0,0.0,0.0,0.0,0.0,0.0,0.0,0.0,0.0,0.0,0.0,0.0,0.0,0.0,0.0,0.0,0.0,0.0,0.0,0.0,0.0,0.0,0.0,0.0,0.0,0.0,0.0,0.0,0.0,0.0,0.0,0.0,0.0,0.0,0.0,0.0,0.0,0.0,0.0,0.0,0.0,0.0,0.0,0.0,0.0,0.0,0.0,0.0,0.0,0.0,0.0,0.0,-0.0421,0.0,-0.176,-0.2448,-0.1805,-0.1228,0.0,0.0,0.0,0.0,0.0,0.0,0.0,0.0,0.0,0.0,0.0,0.0,0.0,0.0,0.0,0.0,0.0,0.0,0.0,0.0,0.0,0.0,0.0,0.0,0.0,0.0,0.0,0.0,0.0,0.0,0.0,0.0,0.0,0.0,0.0,0.0,0.0,0.0,0.0,0.0,0.0,0.0,0.0,0.0,0.0,0.0,0.0,0.0,0.0,0.0,0.0,0.0,0.0,0.0,0.0,0.0,0.0,0.0,0.0,0.0,0.0,0.0,0.0,0.0,0.0,0.0,0.0,0.0,0.0,0.0,0.0,0.0,0.0,0.0,0.0,0.0,0.0,0.0,0.0,0.0,0.0,0.0,0.0,0.0,0.0,0.0,0.0,0.0,0.0,0.0,0.0,0.0,0.0,0.0,0.0,0.0,0.0,0.0,0.0,0.0,0.0,0.0,0.0,0.0,0.0,0.0,0.0,0.0,-0.0558,-0.3183,-0.3991,-0.4907,-0.6272,-0.4849,-0.3695,0.0,0.0,0.0,0.0,0.0,0.0,0.0,0.0,0.0,0.0,0.0,0.0,0.0,0.0,0.0,0.0,0.0,0.0,0.0,0.0,0.0,0.0,0.0,0.0,0.0,0.0,0.0,0.0,0.0,0.0,0.0,0.0,0.0,0.0,0.0,0.0,0.0,0.0,0.0,0.0,0.0,0.0,0.0,0.0,0.0,0.0,0.0,0.0,0.0,0.0,0.0,0.0,0.0,0.0,0.0,0.0,0.0,0.0,0.0,0.0,0.0,0.0,0.0,0.0,0.0,0.0,0.0,0.0,0.0,0.0,0.0,0.0,0.0,0.0,0.0,0.0,0.0,0.0,0.0,0.0,0.0,0.0,0.0,0.0,0.0,0.0,0.0,0.0,0.0,0.0,0.0,0.0,0.0,0.0,0.0,0.0,0.0,0.0,0.0,0.0,0.0,0.0,0.0,0.0,0.0,0.0,0.0,0.0,0.0,-0.5925,-0.6552,-0.7297,-0.8094,-0.725,-0.6451,0.0,0.0,0.0,0.0,0.0,0.0,0.0,0.0,0.0,0.0,0.0,0.0,0.0,0.0,0.0,0.0,0.0,0.0,0.0,0.0,0.0,0.0,0.0,0.0,0.0,0.0,0.0,0.0,0.0,0.0,0.0,0.0,0.0,0.0,0.0,0.0,0.0,0.0,0.0,0.0,0.0,0.0,0.0,0.0,0.0,0.0,0.0,0.0,0.0,0.0,0.0,0.0,0.0,0.0,0.0,0.0,0.0,0.0,0.0,0.0,0.0,0.0,0.0,0.0,0.0,0.0,0.0,0.0,0.0,0.0,0.0,0.0,0.0,0.0,0.0,0.0,0.0,0.0,0.0,0.0,0.0,0.0,0.0,0.0,0.0,0.0,0.0,0.0,0.0,0.0,0.0,0.0,0.0,0.0,0.0,0.0,0.0,0.0,0.0,0.0,0.0,0.0,0.0,0.0,0.0,0.0,0.0,0.0,0.0,-1.0925,-1.0755,-1.091,-1.1361,-1.0568,-0.9566,-0.8439,0.0,0.0,0.0,0.0,0.0,0.0,0.0,0.0,0.0,0.0,0.0,0.0,0.0,0.0,0.0,0.0,0.0,0.0,0.0,0.0,0.0,0.0,0.0,0.0,0.0,0.0,0.0,0.0,0.0,0.0,0.0,0.0,0.0,0.0,0.0,0.0,0.0,0.0,0.0,0.0,0.0,0.0,0.0,0.0,0.0,0.0,0.0,0.0,0.0,0.0,0.0,0.0,0.0,0.0,0.0,0.0,0.0,0.0,0.0,0.0,0.0,0.0,0.0,0.0,0.0,0.0,0.0,0.0,0.0,0.0,0.0,0.0,0.0,0.0,0.0,0.0,0.0,0.0,0.0,0.0,0.0,0.0,0.0,0.0,0.0,0.0,0.0,0.0,0.0,0.0,0.0,0.0,0.0,0.0,0.0,0.0,0.0,0.0,0.0,0.0,0.0,0.0,0.0,0.0,0.0,0.0,0.0,0.0,-1.7572,-1.6268,-1.5603,-1.5629,-1.4453,-1.3034,0.0,0.0,0.0,0.0,0.0,0.0,0.0,0.0,0.0,0.0,0.0,0.0,0.0,0.0,0.0,0.0,0.0,0.0,0.0,0.0,0.0,0.0,0.0,0.0,0.0,0.0,0.0,0.0,0.0,0.0,0.0,0.0,0.0,0.0,0.0,0.0,0.0,0.0,0.0,0.0,0.0,0.0,0.0,0.0,0.0,0.0,0.0,0.0,0.0,0.0,0.0,0.0,0.0,0.0,0.0,0.0,0.0,0.0,0.0,0.0,0.0,0.0,0.0,0.0,0.0,0.0,0.0,0.0,0.0,0.0,0.0,0.0,0.0,0.0,0.0,0.0,0.0,0.0,0.0,0.0,0.0,0.0,0.0,0.0,0.0,0.0,0.0,0.0,0.0,0.0,0.0,0.0,0.0,0.0,0.0,0.0,0.0,0.0,0.0,0.0,0.0,0.0,0.0,0.0,0.0,0.0,0.0,0.0,0.0,-2.1423,-2.2058,-2.0993,-1.8186,-1.7144,-1.5837,0.0,0.0,0.0,0.0,0.0,0.0,0.0,0.0,0.0,0.0,0.0,0.0,0.0,0.0,0.0,0.0,0.0,0.0,0.0,0.0,0.0,0.0,0.0,0.0,0.0,0.0,0.0,0.0,0.0,0.0,0.0,0.0,0.0,0.0,0.0,0.0,0.0,0.0,0.0,0.0,0.0,0.0,0.0,0.0,0.0,0.0,0.0,0.0,0.0,0.0,0.0,0.0,0.0,0.0,0.0,0.0,0.0,0.0,0.0,0.0,0.0,0.0,0.0,0.0,0.0,0.0,0.0,0.0,0.0,0.0,0.0,0.0,0.0,0.0,0.0,0.0,0.0,0.0,0.0,0.0,0.0,0.0,0.0,0.0,0.0,0.0,0.0,0.0,0.0,0.0,0.0,0.0,0.0,0.0,0.0,0.0,0.0,0.0,0.0,0.0,0.0,0.0,0.0,0.0,0.0,0.0,0.0,0.0,-2.2434,-2.4394,-2.5723,-2.5107,-2.245,-2.0579,-1.8731,0.0,0.0,0.0,0.0,0.0,0.0,0.0,0.0,0.0,0.0,0.0,0.0,0.0,0.0,0.0,0.0,0.0,0.0,0.0,0.0,0.0,0.0,0.0,0.0,0.0,0.0,0.0,0.0,0.0,0.0,0.0,0.0,0.0,0.0,0.0,0.0,0.0,0.0,0.0,0.0,0.0,0.0,0.0,0.0,0.0,0.0,0.0,0.0,0.0,0.0,0.0,0.0,0.0,0.0,0.0,0.0,0.0,0.0,0.0,0.0,0.0,0.0,0.0,0.0,0.0,0.0,0.0,0.0,0.0,0.0,0.0,0.0,0.0,0.0,0.0,0.0,0.0,0.0,0.0,0.0,0.0,0.0,0.0,0.0,0.0,0.0,0.0,0.0,0.0,0.0,0.0,0.0,0.0,0.0,0.0,0.0,0.0,0.0,0.0,0.0,0.0,0.0,0.0,0.0,0.0,0.0,0.0,0.0,-2.5334,-2.6674,-2.7853,-2.812,-2.7299,-2.4272,-2.1516,0.0,0.0,0.0,0.0,0.0,0.0,0.0,0.0,0.0,0.0,0.0,0.0,0.0,0.0,0.0,0.0,0.0,0.0,0.0,0.0,0.0,0.0,0.0,0.0,0.0,0.0,0.0,0.0,0.0,0.0,0.0,0.0,0.0,0.0,0.0,0.0,0.0,0.0,0.0,0.0,0.0,0.0,0.0,0.0,0.0,0.0,0.0,0.0,0.0,0.0,0.0,0.0,0.0,0.0,0.0,0.0,0.0,0.0,0.0,0.0,0.0,0.0,0.0,0.0,0.0,0.0,0.0,0.0,0.0,0.0,0.0,0.0,0.0,0.0,0.0,0.0,0.0,0.0,0.0,0.0,0.0,0.0,0.0,0.0,0.0,0.0,0.0,0.0,0.0,0.0,0.0,0.0,0.0,0.0,0.0,0.0,0.0,0.0,0.0,0.0,0.0,0.0,0.0,0.0,0.0,0.0,0.0,0.0,-2.713,-2.8358,-2.9106,-2.9549,-2.9755,-2.617,-2.3176,0.0,0.0,0.0,0.0,0.0,0.0,0.0,0.0,0.0,0.0,0.0,0.0,0.0,0.0,0.0,0.0,0.0,0.0,0.0,0.0,0.0,0.0,0.0,0.0,0.0,0.0,0.0,0.0,0.0,0.0,0.0,0.0,0.0,0.0,0.0,0.0,0.0,0.0,0.0,0.0,0.0,0.0,0.0,0.0,0.0,0.0,0.0,0.0,-2.1849,0.0,0.0,0.0,0.0,0.0,0.0,0.0,0.0,0.0,0.0,0.0,0.0,0.0,0.0,0.0,0.0,0.0,0.0,0.0,0.0,0.0,0.0,0.0,0.0,0.0,0.0,0.0,0.0,0.0,0.0,0.0,0.0,0.0,0.0,0.0,0.0,0.0,0.0,0.0,0.0,0.0,0.0,0.0,0.0,0.0,0.0,0.0,0.0,0.0,0.0,0.0,0.0,0.0,0.0,0.0,0.0,0.0,0.0,0.0,-2.8982,-2.9858,-3.0375,-3.0709,-3.0752,-2.8531,-2.6131,0.0,0.0,0.0,0.0,0.0,0.0,0.0,0.0,0.0,0.0,0.0,0.0,0.0,0.0,0.0,0.0,0.0,0.0,0.0,0.0,0.0,0.0,0.0,0.0,0.0,0.0,0.0,0.0,0.0,0.0,0.0,0.0,0.0,0.0,0.0,0.0,0.0,0.0,0.0,0.0,0.0,0.0,0.0,0.0,0.0,0.0,0.0,0.0,0.0,0.0,0.0,0.0,0.0,0.0,0.0,0.0,0.0,0.0,0.0,0.0,0.0,0.0,0.0,0.0,0.0,0.0,0.0,0.0,0.0,0.0,0.0,0.0,0.0,0.0,0.0,0.0,0.0,0.0,0.0,0.0,0.0,0.0,0.0,0.0,0.0,0.0,0.0,0.0,0.0,0.0,0.0,0.0,0.0,0.0,0.0,0.0,0.0,0.0,0.0,0.0,0.0,0.0,0.0,0.0,0.0,0.0,0.0,-2.9271,-3.0583,-3.1193,-3.1456,-3.1632,-3.1539,-3.056,-2.9056,-2.689,0.0,0.0,0.0,0.0,0.0,0.0,0.0,0.0,0.0,0.0,0.0,0.0,0.0,0.0,0.0,0.0,0.0,0.0,0.0,0.0,0.0,0.0,0.0,0.0,0.0,0.0,0.0,0.0,0.0,0.0,0.0,0.0,0.0,0.0,0.0,0.0,0.0,0.0,-1.8328,-2.115,0.0,0.0,0.0,0.0,0.0,0.0,0.0,0.0,-2.7355,0.0,0.0,0.0,0.0,0.0,0.0,0.0,0.0,0.0,0.0,0.0,0.0,0.0,0.0,0.0,0.0,0.0,0.0,0.0,0.0,0.0,0.0,0.0,0.0,0.0,0.0,0.0,0.0,0.0,0.0,0.0,0.0,0.0,0.0,0.0,0.0,0.0,0.0,0.0,0.0,0.0,0.0,0.0,0.0,0.0,0.0,0.0,0.0,0.0,0.0,0.0,0.0,0.0,0.0,0.0,0.0,-2.8331,-3.0315,-3.1568,-3.2074,-3.1817,-3.2161,-3.3076,-3.1008,-2.9817,-2.955,0.0,0.0,0.0,0.0,0.0,0.0,0.0,0.0,0.0,0.0,0.0,0.0,0.0,0.0,0.0,0.0,0.0,0.0,0.0,0.0,0.0,0.0,0.0,0.0,0.0,0.0,0.0,0.0,0.0,0.0,0.0,0.0,0.0,0.0,0.0,0.0,0.0,0.0,0.0,-2.6202,-2.7823,0.0,0.0,0.0,0.0,0.0,0.0,0.0,0.0,-2.9516,0.0,0.0,0.0,0.0,0.0,0.0,0.0,0.0,0.0,0.0,0.0,0.0,0.0,0.0,0.0,0.0,0.0,0.0,0.0,0.0,0.0,0.0,0.0,0.0,0.0,0.0,0.0,0.0,0.0,0.0,0.0,0.0,0.0,0.0,0.0,0.0,0.0,0.0,0.0,0.0,0.0,0.0,0.0,0.0,0.0,0.0,0.0,0.0,0.0,0.0,0.0,0.0,0.0,0.0,0.0,-2.9283,-3.0629,-3.1742,-3.2553,-3.2786,-3.3149,-3.3652,-3.2315,-3.1324,0.0,0.0,0.0,0.0,0.0,0.0,0.0,0.0,0.0,0.0,0.0,0.0,0.0,0.0,0.0,0.0,0.0,0.0,0.0,0.0,0.0,0.0,0.0,0.0,0.0,0.0,0.0,0.0,0.0,0.0,0.0,0.0,0.0,0.0,0.0,0.0,0.0,0.0,0.0,0.0,-3.0094,-3.1374,-3.2498,0.0,0.0,0.0,0.0,0.0,0.0,-3.3077,-3.2285,0.0,0.0,0.0,0.0,0.0,0.0,0.0,0.0,0.0,0.0,0.0,0.0,0.0,0.0,0.0,0.0,0.0,0.0,0.0,0.0,0.0,0.0,0.0,0.0,0.0,0.0,0.0,0.0,0.0,0.0,0.0,0.0,0.0,0.0,0.0,0.0,0.0,0.0,0.0,0.0,0.0,0.0,0.0,0.0,0.0,0.0,0.0,0.0,0.0,0.0,0.0,0.0,0.0,0.0,0.0,-2.9966,-3.0961,-3.1951,-3.2912,-3.3386,-3.3736,-3.3871,-3.3073,-3.211,0.0,0.0,0.0,0.0,0.0,0.0,0.0,0.0,0.0,0.0,0.0,0.0,0.0,0.0,0.0,0.0,0.0,0.0,0.0,0.0,0.0,0.0,0.0,0.0,0.0,0.0,0.0,0.0,0.0,0.0,0.0,0.0,0.0,0.0,0.0,0.0,0.0,0.0,0.0,0.0,0.0,-3.425,-3.5393,-3.5783,0.0,0.0,0.0,0.0,-3.4442,-3.5068,0.0,0.0,0.0,0.0,0.0,0.0,0.0,0.0,0.0,0.0,0.0,0.0,0.0,0.0,0.0,0.0,0.0,0.0,0.0,0.0,0.0,0.0,0.0,0.0,0.0,0.0,0.0,0.0,0.0,0.0,0.0,0.0,0.0,0.0,0.0,0.0,0.0,0.0,0.0,0.0,0.0,0.0,0.0,0.0,0.0,0.0,0.0,0.0,0.0,0.0,0.0,0.0,0.0,0.0,0.0,0.0,-3.0287,-3.1907,-3.2965,-3.3286,-3.2763,-3.3053,-3.4161,-3.1883,-3.0863,0.0,0.0,0.0,0.0,0.0,0.0,0.0,0.0,0.0,0.0,0.0,0.0,0.0,0.0,0.0,0.0,0.0,0.0,0.0,0.0,0.0,0.0,0.0,0.0,0.0,0.0,0.0,0.0,0.0,0.0,0.0,0.0,0.0,0.0,0.0,0.0,0.0,0.0,0.0,0.0,0.0,-3.5757,-3.7782,-3.74,-3.7126,0.0,0.0,-3.68,-3.7161,-3.781,0.0,0.0,0.0,0.0,0.0,0.0,0.0,0.0,0.0,0.0,0.0,0.0,0.0,0.0,0.0,0.0,0.0,0.0,0.0,0.0,0.0,0.0,0.0,0.0,0.0,0.0,0.0,0.0,0.0,0.0,0.0,0.0,0.0,0.0,0.0,0.0,0.0,0.0,0.0,0.0,0.0,0.0,0.0,0.0,0.0,0.0,0.0,0.0,0.0,0.0,0.0,0.0,0.0,0.0,0.0,-2.9211,-3.0451,-3.1397,-3.2365,-3.3345,-3.3294,-3.3441,-3.3789,-3.2275,-3.1355,0.0,0.0,0.0,0.0,0.0,0.0,0.0,0.0,0.0,0.0,0.0,0.0,0.0,0.0,0.0,0.0,0.0,0.0,0.0,0.0,0.0,0.0,0.0,0.0,0.0,0.0,0.0,0.0,0.0,0.0,0.0,0.0,0.0,0.0,0.0,0.0,0.0,0.0,0.0,0.0,0.0,0.0,-3.8851,-3.9986,0.0,0.0,0.0,-3.9096,-3.8369,0.0,0.0,0.0,0.0,0.0,0.0,0.0,0.0,0.0,0.0,0.0,0.0,0.0,0.0,0.0,0.0,0.0,0.0,0.0,0.0,0.0,0.0,0.0,0.0,0.0,0.0,0.0,0.0,0.0,0.0,0.0,0.0,0.0,0.0,0.0,0.0,0.0,0.0,0.0,0.0,0.0,0.0,0.0,0.0,0.0,0.0,0.0,0.0,0.0,0.0,0.0,0.0,0.0,0.0,0.0,0.0,0.0,-3.0588,-3.1289,-3.218,-3.3357,-3.3502,-3.351,-3.3388,-3.232,0.0,0.0,0.0,0.0,0.0,0.0,0.0,0.0,0.0,0.0,0.0,0.0,0.0,0.0,0.0,0.0,0.0,0.0,0.0,0.0,0.0,0.0,0.0,0.0,0.0,0.0,0.0,-1.6517,0.0,0.0,0.0,0.0,0.0,0.0,0.0,0.0,0.0,0.0,0.0,0.0,0.0,0.0,-3.9242,-3.9863,-4.186,-4.2658,0.0,0.0,-4.0652,-3.9157,-3.9248,-3.907,0.0,0.0,0.0,0.0,0.0,0.0,0.0,0.0,0.0,0.0,0.0,0.0,0.0,0.0,0.0,0.0,0.0,0.0,0.0,0.0,0.0,0.0,0.0,0.0,0.0,0.0,0.0,0.0,0.0,0.0,0.0,0.0,0.0,0.0,0.0,0.0,0.0,0.0,0.0,0.0,0.0,0.0,0.0,0.0,0.0,0.0,0.0,0.0,0.0,0.0,0.0,0.0,0.0,0.0,0.0,-3.0747,-3.2372,-3.3266,-3.3393,-3.2755,-3.2739,-3.3317,-3.1117,-3.0318,0.0,0.0,0.0,0.0,0.0,0.0,0.0,0.0,0.0,0.0,0.0,0.0,0.0,0.0,0.0,0.0,0.0,0.0,0.0,0.0,0.0,0.0,0.0,0.0,0.0,0.0,0.0,0.0,0.0,0.0,0.0,0.0,0.0,0.0,0.0,0.0,0.0,0.0,0.0,0.0,0.0,-3.9798,-4.1237,-4.221,-4.2767,0.0,0.0,-4.0756,-3.9695,-4.0037,-3.9697,-3.7733,0.0,0.0,0.0,0.0,0.0,0.0,0.0,0.0,0.0,0.0,0.0,0.0,0.0,0.0,0.0,0.0,0.0,0.0,0.0,0.0,0.0,0.0,0.0,0.0,0.0,0.0,0.0,0.0,0.0,0.0,0.0,0.0,0.0,0.0,0.0,0.0,0.0,0.0,0.0,0.0,0.0,0.0,0.0,0.0,0.0,0.0,0.0,0.0,0.0,0.0,0.0,0.0,0.0,-3.046,-3.1546,-3.2285,-3.2904,-3.3375,-3.3117,-3.2909,-3.2704,-3.1686,-3.0853,0.0,0.0,0.0,0.0,0.0,0.0,0.0,0.0,0.0,0.0,0.0,0.0,0.0,0.0,0.0,0.0,0.0,0.0,0.0,0.0,0.0,0.0,0.0,0.0,0.0,0.0,0.0,0.0,-2.1616,-2.2442,-2.338,0.0,0.0,0.0,0.0,0.0,0.0,0.0,0.0,0.0,0.0,-4.0332,-4.1491,-4.2864,0.0,0.0,-4.3348,-4.2931,-4.0887,-4.1177,-4.0937,-3.8923,-3.7917,0.0,0.0,0.0,0.0,0.0,0.0,0.0,0.0,0.0,0.0,0.0,0.0,0.0,0.0,0.0,0.0,0.0,0.0,0.0,0.0,0.0,0.0,0.0,0.0,0.0,0.0,0.0,0.0,0.0,0.0,0.0,0.0,0.0,0.0,0.0,0.0,0.0,0.0,0.0,0.0,0.0,0.0,0.0,0.0,0.0,0.0,0.0,0.0,0.0,0.0,0.0,0.0,-3.1114,-3.2101,-3.2658,-3.3085,-3.3393,-3.3286,-3.2943,-3.2317,-3.1865,-3.0984,0.0,0.0,0.0,0.0,0.0,0.0,0.0,0.0,0.0,0.0,0.0,0.0,0.0,0.0,0.0,0.0,0.0,0.0,0.0,0.0,0.0,0.0,0.0,0.0,0.0,0.0,0.0,0.0,-2.3177,-2.3984,-2.5076,0.0,0.0,0.0,0.0,0.0,0.0,0.0,0.0,0.0,0.0,-4.0588,-4.1325,-4.296,-4.3858,-4.3222,-4.3919,-4.3813,-4.1687,-4.1512,-4.1024,-3.9389,0.0,0.0,0.0,0.0,0.0,0.0,0.0,0.0,0.0,0.0,0.0,0.0,0.0,0.0,0.0,0.0,0.0,0.0,0.0,0.0,0.0,0.0,0.0,0.0,0.0,0.0,0.0,0.0,0.0,0.0,-2.797,0.0,0.0,0.0,0.0,0.0,0.0,0.0,0.0,0.0,0.0,0.0,0.0,0.0,0.0,0.0,0.0,0.0,0.0,0.0,0.0,0.0,0.0,-3.2834,-3.2155,-3.3689,-3.4135,-3.3429,-3.3019,-3.2666,-3.2299,-3.1237,-3.0341,-2.9699,0.0,0.0,0.0,0.0,0.0,0.0,0.0,0.0,0.0,0.0,0.0,0.0,0.0,0.0,0.0,0.0,0.0,0.0,0.0,0.0,0.0,0.0,0.0,0.0,0.0,0.0,-2.4447,-2.4961,-2.5799,0.0,0.0,0.0,0.0,0.0,0.0,0.0,0.0,0.0,0.0,-3.9332,-4.0504,-4.0809,-4.2295,-4.3401,-4.3393,-4.324,-4.2753,-4.18,-4.0804,-3.9731,0.0,0.0,0.0,0.0,0.0,0.0,0.0,0.0,0.0,0.0,0.0,0.0,0.0,0.0,0.0,0.0,0.0,0.0,0.0,0.0,0.0,0.0,0.0,0.0,0.0,0.0,0.0,-3.2386,-3.2242,0.0,0.0,0.0,0.0,0.0,0.0,0.0,0.0,0.0,0.0,0.0,-3.4093,-3.3845,0.0,0.0,0.0,0.0,0.0,0.0,0.0,0.0,0.0,0.0,0.0,0.0,-3.2907,-3.3725,-3.378,-3.3665,-3.3411,-3.3256,-3.3019,-3.2634,-3.2269,-3.1219,-2.9353,0.0,0.0,0.0,0.0,0.0,0.0,0.0,0.0,0.0,0.0,0.0,0.0,0.0,0.0,0.0,0.0,0.0,0.0,0.0,0.0,0.0,0.0,0.0,0.0,0.0,-2.5131,0.0,0.0,0.0,0.0,0.0,0.0,0.0,0.0,0.0,0.0,0.0,-3.7355,-3.8267,-3.9774,-4.0853,-4.0986,-4.1992,-4.2894,0.0,0.0,0.0,0.0,0.0,0.0,0.0,0.0,0.0,0.0,0.0,0.0,0.0,0.0,-3.6354,-3.6287,-3.6025,-3.5778,-3.5597,0.0,0.0,0.0,0.0,0.0,0.0,0.0,0.0,0.0,0.0,0.0,0.0,0.0,0.0,-3.4694,0.0,-3.4022,0.0,0.0,0.0,0.0,0.0,0.0,0.0,0.0,-3.542,-3.5631,-3.5683,-3.5449,-3.5519,0.0,-3.5593,-3.4509,0.0,0.0,0.0,0.0,0.0,0.0,0.0,0.0,-3.3683,-3.4184,-3.3954,-3.3683,-3.3411,-3.3393,-3.3208,-3.2827,-3.2432,-3.1421,-2.9693,-2.837,-2.7114,0.0,0.0,0.0,0.0,0.0,0.0,0.0,0.0,0.0,0.0,0.0,0.0,0.0,0.0,0.0,0.0,0.0,0.0,0.0,0.0,0.0,0.0,0.0,-2.7147,0.0,0.0,0.0,0.0,0.0,0.0,0.0,0.0,0.0,-3.7192,-3.7648,-3.8282,-3.9028,-4.0032,-4.0713,-4.0756,0.0,0.0,0.0,0.0,0.0,0.0,0.0,-4.1252,-4.0296,-4.0253,-4.0362,-4.0333,-3.9728,-3.9065,-3.8472,0.0,0.0,-3.7466,-3.7194,-3.7131,-3.7022,-3.6586,-3.64,-3.7,-3.6293,-3.5707,0.0,0.0,0.0,0.0,0.0,0.0,0.0,0.0,-3.554,-3.5511,0.0,-3.5272,0.0,0.0,0.0,0.0,0.0,-3.5593,0.0,0.0,-3.6635,-3.7011,-3.6757,-3.6168,-3.5975,-3.6106,-3.5301,-3.5457,-3.6441,-3.4907,0.0,0.0,0.0,0.0,0.0,0.0,-3.5084,-3.3684,-3.4213,-3.4154,-3.3411,-3.3393,-3.3208,-3.2827,-3.1862,-3.111,-3.0577,-2.9076,-2.7842,-2.716,-2.6043,0.0,0.0,0.0,0.0,0.0,0.0,0.0,0.0,0.0,0.0,0.0,0.0,0.0,0.0,0.0,0.0,0.0,0.0,0.0,0.0,-2.8193,0.0,0.0,0.0,0.0,0.0,0.0,0.0,0.0,0.0,0.0,-3.8194,-3.9273,-4.0004,-4.0081,0.0,0.0,0.0,0.0,-4.2602,-4.2579,-4.3205,-4.3371,-4.2582,-4.1562,-4.0626,-3.9924,0.0,0.0,-4.1206,-4.0918,-4.0522,-4.0435,-4.0221,-3.9569,-3.705,-3.6558,-3.6388,-3.6371,-3.6328,-3.6182,-3.6165,-3.6294,-3.6182,-3.9326,0.0,0.0,0.0,0.0,-3.6707,-3.6833,-3.6744,-3.7307,-3.7544,-3.7443,-3.6848,0.0,0.0,0.0,0.0,0.0,0.0,-3.6417,-3.7468,-3.7718,-3.7616,-3.721,-3.7022,-3.7121,-3.7441,-3.7192,-3.7326,-3.7723,-3.6732,-3.5546,-3.4271,0.0,0.0,0.0,0.0,-3.4632,-3.4798,-3.4128,-3.3613,-3.3377,-3.3379,-3.3364,-3.3208,-3.2931,-3.2353,-3.142,-3.091,-2.9881,-2.825,-2.7742,0.0,0.0,0.0,0.0,0.0,0.0,0.0,0.0,0.0,0.0,0.0,0.0,0.0,0.0,0.0,0.0,0.0,0.0,0.0,-2.7614,-2.9564,-3.1192,0.0,0.0,0.0,0.0,0.0,0.0,0.0,0.0,0.0,-3.8831,-3.9144,-3.9563,0.0,0.0,-4.0302,-4.0302,-4.0775,-4.1313,-4.1819,-4.1589,0.0,-4.1684,-4.1015,-4.0576,-4.086,-4.0867,-4.079,-4.0747,-4.0382,-3.9863,-3.926,-3.9376,-3.9102,-3.8026,-3.8282,-3.8669,-3.8682,-3.8111,-3.7725,-3.8051,-3.7384,-3.6676,-4.0504,-3.8665,-3.8874,-3.8474,-3.7748,-3.8137,-3.8228,-3.8155,-3.8625,-3.8789,-3.8722,-3.8162,-3.7516,-3.682,-3.6209,0.0,0.0,0.0,-3.7116,-3.7913,-3.7812,-3.7635,-3.7393,-3.7081,-3.7118,-3.7452,-3.7058,-3.7205,-3.7812,-3.6578,-3.5848,-3.5578,0.0,0.0,-3.477,-3.4622,-3.4607,-3.475,-3.3963,-3.3497,-3.3385,-3.3379,-3.3393,-3.3393,-3.3393,-3.2991,-3.2166,-3.1844,-3.0911,-2.9222,-2.8809,-2.8094,0.0,0.0,0.0,0.0,0.0,0.0,0.0,0.0,0.0,0.0,0.0,-2.6185,-2.6403,0.0,0.0,0.0,-2.8282,-2.9145,-3.0129,-3.1504,0.0,0.0,0.0,0.0,0.0,0.0,0.0,-3.7013,-3.7294,-3.7637,-3.8218,-3.8785,-3.9519,-4.0501,-4.0569,-4.0519,-4.0485,0.0,-4.1247,-4.1649,-4.1283,-4.1075,-4.147,-4.086,-4.0441,-4.0768,-4.0682,-4.0348,-3.9827,-3.9452,-3.9026,-3.8608,-3.8559,-3.8656,-3.8541,-3.8964,-3.9265,-3.9138,-3.8595,-3.8244,-3.8553,-3.7535,-3.6732,-4.1383,-4.0662,-4.0118,-3.9821,-3.9731,-3.9595,-3.9529,-3.9481,-3.9414,-3.9327,-3.9207,-3.9005,-3.8785,-3.8533,-3.8218,0.0,-3.7125,-3.7869,-3.7876,-3.7289,-3.7211,-3.7204,-3.7213,-3.6486,-3.6288,-3.6563,-3.5647,-3.585,-3.6963,-3.5282,-3.489,-3.5859,-3.5647,-3.508,-3.429,-3.4858,-3.4792,-3.3925,-3.3771,-3.3587,-3.3411,-3.3393,-3.3393,-3.3393,-3.3393,-3.3172,-3.2751,-3.2089,-3.1199,-3.0057,-2.9352,-2.8534,-2.7654,0.0,0.0,0.0,0.0,0.0,0.0,0.0,0.0,0.0,0.0,0.0,0.0,0.0,0.0,0.0,-3.0108,0.0,-3.3412,-3.362,0.0,0.0,0.0,-3.6331,-3.7241,-3.6722,-3.6386,-3.6511,0.0,0.0,-3.6883,-3.8241,-3.9521,-4.0391,-4.0546,-4.0571,-4.0505,-4.1098,-4.1672,-4.1437,-4.1504,-4.1489,-4.1204,-4.055,-3.9938,-3.9815,-3.9833,-3.9488,-3.8715,-3.8369,-3.8193,-3.8126,-3.7991,-3.8059,-3.8821,-3.8654,-3.8395,-3.8081,-3.799,-3.7925,-3.7719,-3.7021,-3.6309,-4.0946,-4.0761,-4.0626,-4.035,-4.0002,-3.9922,-3.9731,-3.9443,-3.8794,-3.8483,-3.8402,-3.771,-3.7068,-3.6409,-3.5744,-3.564,-3.6068,-3.6081,-3.6414,-3.6956,-3.6583,-3.6213,-3.5929,-3.5551,-3.5413,-3.5555,-3.5317,-3.5799,-3.6771,-3.5752,-3.545,-3.5818,-3.518,-3.4637,-3.4288,-3.4303,-3.4257,-3.4138,-3.3844,-3.3587,-3.3393,-3.3393,-3.3393,-3.3393,-3.3393,-3.3074,-3.2372,-3.2155,-3.1415,-2.9944,-2.9692,-2.9224,-2.8466,-2.8165,0.0,0.0,0.0,0.0,0.0,0.0,0.0,0.0,0.0,-2.8494,-2.8667,0.0,-3.0356,0.0,-3.2069,-3.3196,-3.3294,-3.4194,0.0,0.0,-3.5564,-3.563,-3.5863,-3.582,-3.5817,-3.5824,-3.5893,-3.618,-3.6818,-3.7255,-3.7808,-3.869,-3.9322,-3.9715,-3.9683,-3.9322,-3.9083,-3.9129,-3.9168,-3.9052,-3.9116,-3.8872,-3.8642,-3.8369,-3.8355,-3.8153,-3.7695,-3.7553,-3.753,-3.7511,-3.7467,-3.754,-3.7725,-3.7539,-3.7387,-3.7277,-3.7184,-3.7076,-3.6976,-3.6314,-3.5623,-4.0496,-4.0762,-4.0343,-3.9998,-3.9789,-4.0074,-3.9871,-3.9273,-3.8753,-3.8353,-3.7934,-3.7243,-3.6658,-3.6189,-3.5666,-3.5722,-3.6208,-3.6099,-3.6341,-3.686,-3.621,-3.582,-3.5656,-3.516,-3.4969,-3.5044,-3.5086,-3.5375,-3.5897,-3.5421,-3.5255,-3.5381,-3.4783,-3.4409,-3.4293,-3.4288,-3.4234,-3.4097,-3.3931,-3.3762,-3.3671,-3.3689,-3.3661,-3.3577,-3.3595,-3.3184,-3.2356,-3.232,-3.1619,-3.0061,-2.997,-2.9655,-2.8918,-2.8676,-2.8591,0.0,0.0,0.0,0.0,0.0,0.0,0.0,0.0,0.0,0.0,0.0,-3.1914,-3.2311,-3.3345,-3.4036,-3.4178,-3.4879,-3.5374,-3.5484,-3.5482,-3.5502,-3.554,-3.5596,-3.5639,-3.5639,-3.5662,-3.5878,-3.63,-3.6679,-3.7077,-3.756,-3.7982,-3.8414,-3.8755,-3.8458,-3.8218,-3.8218,-3.8218,-3.8218,-3.8218,-3.8218,-3.815,-3.7978,-3.7935,-3.7759,-3.716,-3.6957,-3.6901,-3.6901,-3.6823,-3.6895,-3.7196,-3.7246,-3.7137,-3.6977,-3.6638,-3.6452,-3.6553,-3.5933,-3.526,-4.0032,-4.0449,-3.9635,-3.9238,-3.9234,-3.9926,-3.9721,-3.8939,-3.8759,-3.819,-3.7351,-3.6948,-3.6735,-3.6671,-3.6453,-3.6478,-3.6671,-3.6625,-3.6625,-3.6637,-3.5897,-3.5622,-3.5732,-3.5013,-3.4714,-3.4831,-3.4831,-3.4851,-3.4851,-3.4791,-3.4788,-3.4809,-3.4517,-3.4358,-3.434,-3.4517,-3.4404,-3.4023,-3.3998,-3.3998,-3.3998,-3.3998,-3.3947,-3.3842,-3.3723,-3.3275,-3.2426,-3.2279,-3.1554,-3.0178,-3.0073,-2.9803,-2.9189,-2.9115,-2.9178,0.0,-3.0071,0.0,0.0,0.0,0.0,0.0,0.0,0.0,0.0,-3.2821,-3.3288,-3.4159,-3.4287,-3.4623,-3.5393,-3.5502,-3.557,-3.5612,-3.5626,-3.5648,-3.5707,-3.5707,-3.5707,-3.5707,-3.5707,-3.5727,-3.5776,-3.6327,-3.6753,-3.6764,-3.6813,-3.7073,-3.7702,-3.7815,-3.7754,-3.7889,-3.787,-3.7677,-3.7735,-3.7793,-3.7769,-3.7746,-3.7656,-3.7494,-3.6661,-3.6408,-3.6293,-3.6279,-3.6175,-3.6274,-3.6956,-3.7012,-3.6892,-3.6663,-3.6081,-3.5787,-3.6128,-3.5633,-3.5018,-3.9494,-3.9017,-3.8814,-3.865,-3.8501,-3.8597,-3.8447,-3.8076,-3.7319,-3.6485,-3.5687,-3.5583,-3.5529,-3.5511,-3.5305,-3.5343,-3.5511,-3.5126,-3.5167,-3.5511,-3.4977,-3.4819,-3.498,-3.4626,-3.4423,-3.4401,-3.4401,-3.4508,-3.4653,-3.4632,-3.4732,-3.487,-3.4769,-3.4623,-3.4473,0.0,0.0,0.0,-3.3998,-3.3998,-3.3998,-3.3998,-3.4016,-3.3954,-3.332,0.0,-3.1802,-3.1167,-3.036,-2.9459,-2.9431,0.0,0.0,0.0,0.0,0.0,0.0,0.0,0.0,0.0,0.0,0.0,-3.4692,-3.4517,-3.3089,-3.3677,-3.4505,-3.5368,-3.5461,-3.5553,-3.5689,-3.5735,-3.5762,-3.5762,-3.5768,-3.5775,-3.5775,-3.5775,-3.5775,-3.5775,-3.5775,-3.5795,-3.5795,-3.5931,-3.6021,-3.6054,-3.6009,-3.6067,-3.6274,-3.6318,-3.6218,-3.6168,-3.6306,-3.6218,-3.6187,-3.6256,-3.6303,-3.6098,-3.6054,-3.6023,-3.5842,-3.5743,-3.5676,-3.5701,-3.5633,-3.5656,-3.5852,-3.5701,-3.5624,-3.5362,-3.5068,-3.4982,-3.5541,-3.4925,-3.4212,-3.8556,0.0,-3.8038,-3.7792,0.0,-3.7626,-3.7284,-3.6694,-3.6596,-3.6058,-3.5245,-3.5107,-3.5107,-3.5193,-3.5001,-3.5019,-3.5174,-3.4963,-3.4772,-3.4601,-3.4374,-3.4092,-3.3766,-3.4055,-3.4188,-3.4169,-3.4566,-3.4813,-3.487,-3.4851,-3.4908,-3.5001,-3.4908,-3.4791,-3.471,-3.4708,-3.458,-3.4293,-3.4293,-3.4311,-3.4293,-3.4311,-3.4269,-3.4179,0.0,0.0,0.0,0.0,0.0,0.0,0.0,0.0,0.0,0.0,0.0,-3.1197,-3.1975,-3.2725,-3.3451,-3.4406,-3.497,-3.509,-3.5561,-3.5433,-3.4447,-3.4897,-3.5392,-3.5724,-3.5821,-3.5821,-3.5752,-3.5771,-3.574,-3.5757,-3.5759,-3.5759,-3.574,-3.5759,-3.574,-3.5757,-3.5744,-3.5752,-3.5747,-3.5788,-3.5791,-3.5791,-3.5791,-3.5797,-3.5805,-3.5774,-3.5741,-3.576,-3.5741,-3.576,-3.5741,-3.5752,-3.5735,-3.5698,-3.5699,-3.5679,-3.5607,-3.5596,-3.5596,-3.5596,-3.5596,-3.5585,-3.5553,-3.5451,-3.5321,-3.5124,-3.4982,-3.4885,-3.5057,-3.4519,-3.4023,-3.7689,-3.7904,-3.721,-3.6871,-3.6775,-3.6787,-3.6221,-3.5334,0.0,0.0,0.0,-3.4901,-3.4902,-3.5155,-3.483,-3.4791,-3.4964,-3.4776,-3.4375,-3.3777,-3.3777,-3.3394,-3.2749,-3.3433,-3.3777,-3.3815,-3.4598,-3.4999,-3.4999,-3.5049,-3.511,-3.511,-3.4831,-3.4699,-3.468,-3.4603,-3.4598,-3.467,-3.4645,-3.4604,-3.4666,-3.4647,-3.4551,-3.4317,-3.3529,-3.2746,-3.2014,-3.1202,-3.0566,-3.0095,-3.007,-3.0065,-3.0054,-3.0143,-3.0601,-3.1495,-3.2298,-3.3242,-3.4335,-3.5139,-3.56,-3.5677,-3.5659,-3.5689,-3.578,-3.5918,-3.5878,-3.5718,-3.5815,-3.5834,-3.5717,-3.5717,-3.5721,-3.572,-3.572,-3.572,-3.57,-3.572,-3.572,-3.572,-3.5722,-3.5717,-3.5738,-3.5764,-3.5802,-3.5806,-3.5796,-3.5802,-3.5798,-3.5797,-3.58,-3.58,-3.5788,-3.58,-3.5805,-3.5788,-3.5801,-3.5787,-3.5799,-3.5764,-3.5721,-3.5713,-3.5713,-3.5696,-3.5713,-3.5678,-3.563,-3.5609,-3.5512,-3.5262,-3.5203,-3.5086,-3.4751,-3.4431,-3.4203,-3.7556,-3.6327,-3.6209,-3.6094,-3.5981,-3.6025,-3.5463,-3.4544,-3.4488,-3.4798,-3.5328,-3.45,-3.4522,-3.5136,-3.4222,-3.3916,-3.4085,-3.3232,-3.2813,-3.2882,-3.2882,-3.2806,-3.2726,-3.2825,-3.2882,-3.2955,-3.3777,-3.4159,-3.4235,-3.4868,-3.5193,-3.5081,-3.4365,-3.3937,-3.3866,-3.3753,-3.4112,-3.4906,-3.473,-3.4689,-3.487,-3.4851,-3.4548,-3.3968,-3.3146,-3.2313,-3.1525,-3.0778,-3.0356,-3.026,-3.0308,-3.0317,-3.026,-3.0424,-3.0889,-3.167,-3.1975,-3.2854,-3.4417,-3.464,-3.4706,-3.4765,-3.4783,-3.5076,-3.5724,-3.5817,-3.5817,-3.5786,-3.5752,-3.5806,-3.5786,-3.5752,-3.5728,-3.5778,-3.5758,-3.5773,-3.5773,-3.5778,-3.5773,-3.5778,-3.5782,-3.5791,-3.5775,-3.5798,-3.5789,-3.5802,-3.5798,-3.5802,-3.5804,-3.5794,-3.5807,-3.5791,-3.58,-3.5794,-3.5816,-3.5801,-3.5801,-3.5806,-3.5813,-3.5787,-3.5725,-3.5737,-3.5737,-3.5702,-3.5737,-3.5721,-3.5704,-3.5696,-3.5582,-3.5387,-3.5301,-3.52,-3.4925,-3.4793,-3.4591,-3.7363,-3.6682,-3.6657,-3.6601,-3.6541,-3.6035,-3.5373,-3.451,-3.3887,-3.3819,-3.4097,-3.3615,-3.3613,-3.3892,-3.3347,-3.3448,-3.3968,-3.2994,-3.2613,-3.2653,-3.2233,-3.1809,-3.1408,-3.1775,-3.2004,-3.2134,-3.3394,-3.3987,-3.4063,-3.4808,-3.498,-3.4522,-3.3697,-3.3238,-3.3191,-3.3144,-3.3554,-3.445,-3.4661,-3.487,-3.5054,-3.4598,-3.4202,-3.3955,-3.2718,-3.1862,-3.1584,-3.082,-3.0435,-3.0516,-3.0549,-3.0549,-3.0523,-3.0638,-3.1059,-3.1838,-3.2001,-3.2597,-3.3824,-3.3875,-3.3848,-3.3854,-3.3842,-3.3944,-3.4253,-3.4387,-3.4637,-3.5029,-3.5112,-3.5332,-3.5684,-3.5353,-3.5254,-3.5713,-3.5324,-3.5247,-3.5655,-3.5752,-3.5752,-3.5732,-3.5753,-3.5735,-3.5755,-3.5768,-3.5791,-3.5791,-3.5791,-3.5791,-3.5786,-3.5798,-3.58,-3.5859,-3.5859,-3.5877,-3.5894,-3.589,-3.5901,-3.5907,-3.59,-3.5888,-3.586,-3.5855,-3.5875,-3.5855,-3.5855,-3.5839,-3.5814,-3.5807,-3.571,-3.5573,-3.5521,-3.5423,-3.5215,-3.5018,-3.4679,-3.7025,-3.6874,-3.6891,-3.6925,-3.6869,-3.6152,-3.5292,-3.4355,-3.3587,-3.2991,-3.2622,-3.2619,-3.2744,-3.2875,-3.2615,-3.2833,-3.3327,-3.257,-3.2187,-3.211,-3.1536,-3.0866,-3.0349,-3.0904,-3.1191,-3.1402,-3.2761,-3.3566,-3.3834,-3.458,-3.4561,-3.3772,-3.2947,-3.2539,-3.2538,-3.2532,-3.2935,-3.3759,-3.4246,-3.4634,-3.4969,-3.432,-3.3848,-3.3471,-3.2309,-3.1557,-3.1469,-3.0885,-3.0619,-3.0707,-3.071,-3.0716,-3.0701,-3.0735,-3.1054,-3.1637,-3.1738,-3.2112,-3.2842,-3.3128,-3.3096,-3.2829,-3.282,-3.2687,-3.2436,-3.2529,-3.3063,-3.3932,-3.4345,-3.4653,-3.4826,-3.4478,-3.4449,-3.5176,-3.4739,-3.472,-3.5434,-3.5608,-3.5608,-3.562,-3.5609,-3.5592,-3.565,-3.5674,-3.5671,-3.5671,-3.5687,-3.5687,-3.5687,-3.5694,-3.5728,-3.5768,-3.5846,-3.5903,-3.5949,-3.5984,-3.5992,-3.6015,-3.5996,-3.5994,-3.5987,-3.6003,-3.5999,-3.5977,-3.5994,-3.5958,-3.5934,-3.5909,-3.5864,-3.5741,-3.5737,-3.5674,-3.5484,-3.5213,-3.4824,-3.6561,-3.5896,-3.6051,-3.6055,-3.6126,-3.5992,-3.5015,-3.3629,-3.3416,-3.248,-3.1209,-3.1637,-3.2298,-3.2813,-3.2164,-3.192,-3.1997,-3.1028,-3.0709,-3.0736,-3.0535,-3.0439,-3.037,-3.0477,-3.0497,-3.0651,-3.1507,-3.2374,-3.3099,-3.3858,-3.3858,-3.308,-3.2212,-3.1785,-3.1797,-3.1748,-3.2201,-3.3148,-3.318,-3.3574,-3.432,-3.4309,-3.3604,-3.2219,-3.203,-3.1607,-3.0947,-3.081,-3.0774,-3.0793,-3.0792,-3.0743,-3.07,-3.0712,-3.0747,-3.0817,-3.0784,-3.1033,-3.1729,-3.2492,-3.2516,-3.177,-3.1642,-3.136,-3.0689,-3.0631,-3.1289,-3.2615,-3.3634,-3.3757,-3.3173,-3.3013,-3.334,-3.4153,-3.4145,-3.4457,-3.5129,-3.5345,-3.5326,-3.5345,-3.5369,-3.5383,-3.5489,-3.5425,-3.5359,-3.5366,-3.5315,-3.5334,-3.5366,-3.5412,-3.5419,-3.5488,-3.5687,-3.5864,-3.5896,-3.596,-3.5984,-3.5989,-3.5992,-3.5993,-3.5995,-3.6015,-3.6013,-3.6012,-3.6007,-3.5996,-3.5991,-3.5988,-3.5955,-3.589,-3.5844,-3.5827,-3.5682,-3.5475,-3.518,-3.6726,-3.6396,-3.647,-3.6222,-3.5811,-3.5377,-3.4502,-3.3398,-3.2836,-3.1944,-3.0914,-3.1089,-3.163,-3.2309,-3.1929,-3.2271,-3.3106,-3.1851,-3.1516,-3.1786,-3.0906,-3.0383,-3.0383,-3.0383,-3.0433,-3.0452,-3.082,-3.1429,-3.22,-3.2615,-3.264,-3.2283,-3.1474,-3.1074,-3.1095,-3.1037,-3.1484,-3.2393,-3.2339,-3.2499,-3.2832,-3.2973,-3.2703,-3.2031,-3.1543,-3.1133,-3.0793,-3.0751,-3.0743,-3.0739,-3.0728,-3.0711,-3.0656,-3.0606,-3.0536,-3.0463,-3.0288,-3.029,-3.0573,-3.083,-3.0795,-3.038,-3.038,-3.0197,-2.9851,-3.0232,-3.065,-3.0803,-3.1844,-3.2588,-3.2683,-3.2352,-3.2377,-3.3125,-3.3336,-3.3652,-3.4472,-3.5013,-3.5315,-3.5315,-3.5315,-3.5296,-3.5326,-3.5178,-3.5098,-3.5045,-3.4939,-3.4904,-3.5009,-3.5114,-3.5095,-3.5035,-3.5321,-3.5648,-3.5718,-3.5753,-3.5807,-3.5851,-3.5888,-3.5892,-3.5986,-3.6012,-3.6015,-3.6015,-3.6015,-3.6013,-3.601,-3.6009,-3.6005,-3.5957,-3.5945,-3.5923,-3.5788,-3.5671,-3.5476,-3.6194,-3.6292,-3.6331,-3.5871,-3.5126,-3.4844,-3.3949,-3.2888,-3.2575,-3.1904,-3.0955,-3.1106,-3.1499,-3.1931,-3.1694,-3.2354,-3.338,-3.2166,-3.1955,-3.2489,-3.1177,-3.0521,-3.0505,-3.0233,-3.0188,-3.0212,-3.0224,-3.0795,-3.1757,-3.1879,-3.188,-3.1776,-3.1042,-3.0648,-3.0661,-3.0625,-3.0909,-3.1468,-3.1456,-3.1409,-3.1404,-3.1487,-3.1565,-3.1515,-3.0955,-3.0575,-3.0535,-3.0549,-3.0549,-3.0562,-3.0561,-3.0559,-3.0521,-3.0421,-3.0258,-3.0075,-2.9855,-2.9737,-2.9723,-2.9603,-2.9513,-2.9513,-2.9532,-2.9439,-2.9398,-2.9824,-2.9797,-2.928,-3.0002,-3.0945,-3.1619,-3.126,-3.1279,-3.2038,-3.2327,-3.2844,-3.3703,-3.452,-3.4961,-3.4978,-3.4944,-3.4978,-3.4961,-3.4813,-3.4718,-3.4679,-3.4559,-3.4459,-3.466,-3.4737,-3.4699,-3.4542,-3.4901,-3.5211,-3.5432,-3.5579,-3.5641,-3.5685,-3.576,-3.5788,-3.5888,-3.59,-3.5955,-3.591,-3.5962,-3.6011,-3.6015,-3.6015,-3.5937,-3.5996,-3.5995,-3.5955,-3.589,-3.5812,-3.5749,-3.437,-3.4812,-3.495,-3.4607,-3.3872,-3.4542,-3.3508,-3.161,-3.2813,-3.2545,-3.1213,-3.1763,-3.2225,-3.2186,-3.1246,-3.1348,-3.2051,-3.1287,-3.1284,-3.1923,-3.114,-3.0762,-3.0716,-2.9955,-2.9564,-2.9672,-2.9645,-3.0387,-3.1875,-3.2029,-3.2018,-3.1816,-3.1074,-3.0658,-3.0615,-3.0579,-3.0541,-3.0554,-3.0537,-3.0375,-3.0157,-3.0197,-3.0308,-3.044,-3.0269,-3.0143,-3.0123,-3.0142,-3.016,-3.0232,-3.0202,-3.0237,-3.026,-3.0051,-2.9766,-2.9494,-2.9401,-2.9362,-2.9279,-2.9217,-2.9217,-2.9275,-2.9175,-2.9153,-2.8796,-2.8865,-2.8772,-2.839,-2.8537,-2.8925,-2.9479,-2.96,-2.9805,-3.0516,-3.1275,-3.2039,-3.2881,-3.3564,-3.4176,-3.4186,-3.4199,-3.4255,-3.426,-3.4297,-3.4255,-3.4218,-3.4203,-3.4141,-3.4147,-3.4176,-3.4204,-3.4204,-3.4323,-3.4559,-3.5085,-3.5273,-3.5456,-3.5538,-3.5488,-3.559,-3.565,-3.5693,-3.5755,-3.583,-3.5888,-3.5952,-3.5987,-3.5951,-3.5831,-3.5827,-3.5882,-3.5886,-3.5893,-3.5953,-3.5895,-3.3876,-3.4274,-3.4391,-3.4377,-3.4315,-3.4151,-3.3261,-3.2029,-3.1966,-3.1364,-3.0513,-3.0659,-3.0789,-3.0772,-3.0411,-3.1,-3.2202,-3.1436,-3.1197,-3.1387,-3.0624,-3.0228,-3.0201,-3.0007,-2.992,-2.9849,-2.9536,-2.9665,-3.029,-3.0856,-3.1122,-3.1051,-3.0793,-3.0578,-3.0474,-3.0372,-3.0288,-3.0151,-2.997,-2.9844,-2.9718,-2.9525,-2.9451,-2.9519,-2.9723,-2.983,-2.9846,-2.973,-2.9649,-2.9709,-2.9658,-2.9612,-2.9565,-2.9268,-2.9005,-2.8872,-2.8518,-2.8279,-2.8258,-2.8156,-2.8085,-2.8103,-2.8103,-2.8058,-2.7949,-2.7931,-2.7913,-2.783,-2.7865,-2.8066,-2.8236,-2.8506,-2.8772,-2.9125,-2.9844,-3.0595,-3.1125,-3.1837,-3.2427,-3.2692,-3.3069,-3.3536,-3.3788,-3.3943,-3.3873,-3.3597,-3.3421,-3.3306,-3.3317,-3.346,-3.3642,-3.3625,-3.4031,-3.4445,-3.447,-3.4698,-3.4867,-3.5018,-3.5097,-3.521,-3.5303,-3.5469,-3.5563,-3.5418,-3.5551,-3.5321,-3.5139,-3.4865,-3.4904,-3.5073,-3.5184,-3.5597,-3.5851,-3.5825,-3.5829,-3.2152,-3.2475,-3.2746,-3.2883,-3.2845,-3.2625,-3.1918,-3.1002,-3.0641,-3.0208,-2.9741,-2.9728,-2.9734,-2.972,-2.972,-3.0113,-3.1021,-3.0814,-3.0791,-3.0712,-2.9873,-2.9294,-2.9059,-2.8888,-2.8932,-2.909,-2.9031,-2.9057,-2.9419,-2.996,-3.0211,-3.022,-3.02,-3.0155,-3.0037,-2.9931,-2.9821,-2.9666,-2.9494,-2.9382,-2.9321,-2.8968,-2.8769,-2.8778,-2.8938,-2.9157,-2.9401,-2.9187,-2.905,-2.9031,-2.8809,-2.8576,-2.8306,-2.8062,-2.7906,-2.7798,-2.7478,-2.726,-2.7278,-2.7134,-2.706,-2.7109,-2.706,-2.7029,-2.6967,-2.7014,-2.6965,-2.6901,-2.6918,-2.6985,-2.7046,-2.7235,-2.7593,-2.8031,-2.8766,-2.9314,-2.9681,-3.0314,-3.0848,-3.1279,-3.1926,-3.2529,-3.2918,-3.3169,-3.3064,-3.2751,-3.2613,-3.2565,-3.226,-3.2656,-3.2937,-3.2755,-3.3263,-3.3606,-3.3558,-3.3486,-3.3761,-3.3957,-3.4472,-3.4689,-3.4706,-3.4971,-3.5091,-3.5008,-3.4764,-3.4457,-3.4144,-3.3808,-3.3828,-3.4011,-3.4477,-3.4923,-3.5277,-3.5643,-3.5607,-2.9004,-2.9346,-2.9847,-2.9844,-2.9563,-3.0082,-2.9408,-2.8303,-2.8856,-2.9022,-2.8794,-2.9171,-2.8997,-2.9132,-2.8864,-2.8774,-2.8515,-2.912,-2.9669,-2.9784,-2.894,-2.8139,-2.7491,-2.6874,-2.6995,-2.7627,-2.7966,-2.865,-2.9402,-2.9497,-2.9494,-2.9408,-2.9408,-2.9359,-2.9268,-2.9211,-2.9148,-2.8938,-2.8809,-2.8792,-2.8737,-2.834,-2.8139,-2.8157,-2.7784,-2.7877,-2.8646,-2.841,-2.826,-2.8258,-2.769,-2.7073,-2.6716,-2.6544,-2.6434,-2.6286,-2.6236,-2.6303,-2.6371,-2.6235,-2.6133,-2.6218,-2.6252,-2.5994,-2.5848,-2.5881,-2.5773,-2.5623,-2.5566,-2.5545,-2.5582,-2.566,-2.6164,-2.74,-2.7886,-2.8251,-2.8732,-2.9196,-2.9636,-2.9994,-3.0582,-3.112,-3.1348,-3.1663,-3.1792,-3.1515,-3.1707,-3.1602,-3.0956,-3.1445,-3.1935,-3.1795,-3.1938,-3.2192,-3.2201,-3.217,-3.2492,-3.2864,-3.3515,-3.3913,-3.3677,-3.3768,-3.3889,-3.3808,-3.3312,-3.2993,-3.2549,-3.2313,-3.2764,-3.3066,-3.3667,-3.4293,-3.4886,-3.5253,-3.5253,-2.6546,-2.7365,-2.8025,-2.8179,-2.7964,-2.8208,-2.7566,-2.6433,-2.7022,-2.6997,-2.6517,-2.6404,-2.6635,-2.6833,-2.6567,-2.645,-2.6639,-2.6662,-2.7263,-2.8292,-2.7805,-2.7295,-2.7082,-2.7042,-2.7606,-2.837,-2.8166,-2.8333,-2.8874,-2.8986,-2.8925,-2.8698,-2.8618,-2.8562,-2.8361,-2.816,-2.7887,-2.7672,-2.7268,-2.7156,-2.7337,-2.6923,-2.6798,-2.704,-2.667,-2.6554,-2.6796,-2.7023,-2.7151,-2.7147,-2.665,-2.6117,-2.5686,-2.5362,-2.5067,-2.4671,-2.4406,-2.4302,-2.4358,-2.4358,-2.4342,-2.4358,-2.4358,-2.4278,-2.4244,-2.4356,-2.4396,-2.4387,-2.4483,-2.4563,-2.4768,-2.4823,-2.5217,-2.6073,-2.6324,-2.6528,-2.6927,-2.725,-2.7725,-2.8338,-2.8664,-2.8991,-2.9472,-2.9919,-2.9843,-2.9542,-2.9884,-2.99,-2.922,-2.9765,-3.0202,-2.9807,-3.0197,-3.0523,-3.0454,-3.0349,-3.0442,-3.0975,-3.1803,-3.241,-3.2317,-3.243,-3.2566,-3.2331,-3.1843,-3.141,-3.0974,-3.0993,-3.1352,-3.2049,-3.2599,-3.3431,-3.4464,-3.4645,-3.4384,-2.2916,-2.3595,-2.4232,-2.4433,-2.4355,-2.4498,-2.4151,-2.3493,-2.3802,-2.3822,-2.3614,-2.3458,-2.3779,-2.4258,-2.3989,-2.3946,-2.4143,-2.3882,-2.4507,-2.5606,-2.561,-2.5302,-2.5216,-2.5835,-2.6603,-2.7392,-2.7279,-2.7344,-2.771,-2.7878,-2.7799,-2.7483,-2.7591,-2.7406,-2.6991,-2.6726,-2.651,-2.6334,-2.6016,-2.6032,-2.6236,-2.5801,-2.5619,-2.5779,-2.5329,-2.5013,-2.4997,-2.5142,-2.5419,-2.5655,-2.518,-2.4571,-2.4101,-2.3804,-2.3583,-2.337,-2.3141,-2.3054,-2.3069,-2.2937,-2.2893,-2.2996,-2.2893,-2.2893,-2.304,-2.3259,-2.3374,-2.3243,-2.3588,-2.3758,-2.3773,-2.3956,-2.4179,-2.4312,-2.476,-2.498,-2.5255,-2.5542,-2.5924,-2.6422,-2.6772,-2.716,-2.7528,-2.7976,-2.7865,-2.7632,-2.7965,-2.7985,-2.7396,-2.7858,-2.7931,-2.8059,-2.8279,-2.8507,-2.8668,-2.854,-2.8425,-2.9057,-2.9811,-3.0273,-3.0477,-3.0866,-3.1089,-3.0501,-2.9972,-2.9655,-2.9272,-2.9351,-2.9655,-3.0516,-3.1391,-3.1968,-3.2643,-3.3072,-3.3023,-1.8466,-1.8416,-1.9061,-1.9445,-1.9412,-1.9627,-1.9789,-1.9574,-1.9824,-2.0283,-2.0675,-2.0695,-2.0994,-2.153,-2.1568,-2.1427,-2.1155,-2.1485,-2.1647,-2.1894,-2.2093,-2.2164,-2.2468,-2.3303,-2.4182,-2.4928,-2.541,-2.569,-2.5861,-2.6135,-2.6183,-2.5822,-2.6082,-2.5994,-2.531,-2.5104,-2.5067,-2.5013,-2.497,-2.5099,-2.5513,-2.4898,-2.4524,-2.4563,-2.3819,-2.337,-2.3327,-2.2995,-2.3314,-2.4219,-2.3458,-2.2714,-2.2193,-2.2035,-2.2072,-2.2025,-2.2114,-2.2114,-2.2114,-2.1744,-2.1697,-2.1993,-2.173,-2.1758,-2.2086,-2.2225,-2.2211,-2.2011,-2.25,-2.2756,-2.25,-2.2696,-2.2786,-2.2577,-2.3171,-2.3719,-2.3903,-2.423,-2.4424,-2.4558,-2.4994,-2.5399,-2.5352,-2.5862,-2.5911,-2.583,-2.5978,-2.5832,-2.5621,-2.5783,-2.6187,-2.635,-2.6443,-2.6623,-2.6769,-2.6809,-2.6665,-2.6939,-2.7692,-2.8224,-2.8793,-2.929,-2.9467,-2.8865,-2.8464,-2.8074,-2.784,-2.8021,-2.8454,-2.9308,-2.9917,-3.0264,-3.0827,-3.1478,-3.1604,-1.5541,-1.61,-1.7099,-1.7388,-1.7103,-1.7189,-1.6979,-1.6846,-1.7457,-1.7795,-1.8012,-1.8187,-1.8582,-1.9108,-1.9043,-1.9152,-1.9315,-1.9433,-1.9282,-1.8968,-1.864,-2.0165,-2.171,-2.205,-2.2742,-2.384,-2.3592,-2.3678,-2.4217,-2.4257,-2.4184,-2.4051,-2.4197,-2.4172,-2.3845,-2.3553,-2.3443,-2.3357,-2.3054,-2.317,-2.3513,-2.3112,-2.2981,-2.3214,-2.246,-2.2016,-2.1923,-2.1226,-2.1534,-2.2962,-2.2331,-2.1663,-2.1175,-2.0841,-2.0594,-2.0383,-2.0245,-2.0245,-2.0232,-2.0131,-2.0144,-2.0194,-2.0232,-2.0042,-2.0194,-2.0283,-2.0333,-2.037,-2.062,-2.0805,-2.0855,-2.1002,-2.1002,-2.1086,-2.1777,-2.2532,-2.3157,-2.3187,-2.301,-2.304,-2.3231,-2.317,-2.3062,-2.3057,-2.3169,-2.3163,-2.3425,-2.3786,-2.3652,-2.3912,-2.4415,-2.4443,-2.4556,-2.4729,-2.4865,-2.4911,-2.4954,-2.5004,-2.5538,-2.6231,-2.6995,-2.7774,-2.7747,-2.7428,-2.7466,-2.7175,-2.6935,-2.6873,-2.7532,-2.8117,-2.8366,-2.8719,-2.9756,-3.0516,-3.0166,-1.3012,-1.3202,-1.3944,-1.397,-1.3699,-1.3804,-1.3648,-1.3673,-1.4628,-1.498,-1.4988,-1.5787,-1.6201,-1.6407,-1.6602,-1.6763,-1.6926,-1.6916,-1.6756,-1.6574,-1.65,-1.7991,-1.9906,-2.0215,-2.0841,-2.2046,-2.1816,-2.1887,-2.2262,-2.2439,-2.2452,-2.2405,-2.2509,-2.2419,-2.1978,-2.1801,-2.1655,-2.1608,-2.1397,-2.1493,-2.1937,-2.154,-2.1397,-2.1513,-2.0975,-2.0607,-2.0508,-2.0067,-2.0409,-2.118,-2.0957,-2.0484,-2.0245,-1.9978,-1.9683,-1.942,-1.942,-1.942,-1.9368,-1.9275,-1.9223,-1.9316,-1.9275,-1.9263,-1.946,-1.946,-1.9604,-1.9488,-1.9747,-1.9888,-1.9888,-1.994,-2.0093,-2.0484,-2.0557,-2.1037,-2.2021,-2.188,-2.171,-2.171,-2.1677,-2.1629,-2.1293,-2.1245,-2.1245,-2.1326,-2.173,-2.1835,-2.1822,-2.2275,-2.2611,-2.2718,-2.2905,-2.3097,-2.3481,-2.3626,-2.3912,-2.3882,-2.4147,-2.4673,-2.5266,-2.6184,-2.6267,-2.6212,-2.6334,-2.6334,-2.6106,-2.5997,-2.6291,-2.6719,-2.6887,-2.7212,-2.8118,-2.8817,-2.8537,-1.0867,-1.0403,-1.0397,-1.025,-1.0288,-1.0325,-1.0712,-1.0587,-1.1813,-1.215,-1.2176,-1.3436,-1.3959,-1.3768,-1.4487,-1.4524,-1.4336,-1.4658,-1.4493,-1.4639,-1.4925,-1.6102,-1.7408,-1.8172,-1.8836,-1.9773,-2.0015,-2.0126,-2.0374,-2.0836,-2.0987,-2.0895,-2.1097,-2.0868,-2.0492,-2.0181,-2.0042,-2.0194,-2.0244,-2.0395,-2.0667,-2.0395,-2.0244,-2.0143,-1.9658,-1.9202,-1.9056,-1.8963,-1.9202,-1.9659,-1.9436,-1.9396,-1.9291,-1.9239,-1.921,-1.921,-1.9158,-1.9158,-1.921,-1.8839,-1.8851,-1.9052,-1.8851,-1.8851,-1.9093,-1.9291,-1.9239,-1.8934,-1.9579,-1.9527,-1.9319,-1.9344,-1.9592,-1.9888,-1.9488,-1.954,-2.0156,-2.051,-2.051,-2.051,-2.051,-2.051,-2.0459,-2.0459,-2.0396,-2.027,-2.0513,-2.0625,-2.0709,-2.1,-2.1202,-2.1242,-2.1369,-2.1541,-2.1969,-2.2406,-2.277,-2.2995,-2.326,-2.3618,-2.3788,-2.4427,-2.4745,-2.4989,-2.5357,-2.5454,-2.5319,-2.5297,-2.5335,-2.5422,-2.5675,-2.5728,-2.5934,-2.6482,-2.6543,-0.9646,-0.9608,-0.9982,-1.0072,-1.0021,-1.0085,-1.004,-1.0026,-1.0493,-1.0671,-1.0692,-1.1271,-1.1711,-1.2038,-1.2706,-1.3104,-1.3384,-1.3571,-1.3768,-1.3391,-1.3437,-1.3878,-1.4977,-1.6144,-1.7497,-1.8177,-1.8317,-1.8466,-1.8761,-1.8919,-1.9165,-1.9386,-1.9517,-1.9773,-1.9475,-1.9319,-1.9552,-1.9552,-1.95,-1.9475,-1.9567,-1.9515,-1.9371,-1.9319,-1.8632,-1.7797,-1.7135,-1.6968,-1.7013,-1.7346,-1.819,-1.8632,-1.8401,-1.8352,-1.8344,-1.8344,-1.8356,-1.8356,-1.8344,-1.8236,-1.8247,-1.8302,-1.8247,-1.8302,-1.8356,-1.8398,-1.8398,-1.8302,-1.8452,-1.8494,-1.8387,-1.8398,-1.8655,-1.8857,-1.8804,-1.8762,-1.9279,-1.9683,-1.9888,-1.9952,-1.9952,-1.9798,-1.9448,-1.95,-1.9448,-1.9344,-1.9436,-1.954,-1.9747,-1.9952,-2.0105,-2.0258,-2.066,-2.0957,-2.1237,-2.169,-2.2067,-2.2285,-2.2469,-2.2606,-2.2786,-2.3143,-2.3706,-2.4116,-2.4492,-2.4477,-2.4277,-2.4389,-2.4374,-2.443,-2.4461,-2.463,-2.4751,-2.4831,-2.5123,-0.8063,-0.8032,-0.8608,-0.8801,-0.8871,-0.9134,-0.9255,-0.9286,-0.9581,-0.9598,-0.9579,-1.0208,-1.0625,-1.0667,-1.1248,-1.1741,-1.1914,-1.2032,-1.199,-1.1809,-1.1816,-1.2202,-1.2951,-1.409,-1.5209,-1.6346,-1.6641,-1.6754,-1.6912,-1.709,-1.7235,-1.7468,-1.7688,-1.7665,-1.7852,-1.7907,-1.7797,-1.7852,-1.7918,-1.7918,-1.7918,-1.7972,-1.7972,-1.7918,-1.7424,-1.681,-1.6415,-1.6358,-1.6301,-1.6539,-1.7101,-1.7523,-1.7346,-1.7291,-1.7268,-1.7224,-1.7279,-1.7279,-1.7279,-1.7279,-1.7224,-1.729,-1.7445,-1.7379,-1.7368,-1.7379,-1.739,-1.7301,-1.7279,-1.7279,-1.7346,-1.7346,-1.7501,-1.7733,-1.7831,-1.7952,-1.8213,-1.8685,-1.9162,-1.9226,-1.9174,-1.9121,-1.8975,-1.8815,-1.8934,-1.9081,-1.9081,-1.9186,-1.9291,-1.95,-1.9617,-1.9823,-2.0271,-2.056,-2.0746,-2.1077,-2.1465,-2.1643,-2.1785,-2.1833,-2.1913,-2.2377,-2.2876,-2.3201,-2.342,-2.3274,-2.3098,-2.3274,-2.3231,-2.2951,-2.2965,-2.3378,-2.357,-2.3376,-2.3846,-0.6542,-0.6396,-0.706,-0.7326,-0.7391,-0.7917,-0.8052,-0.8007,-0.8628,-0.851,-0.8391,-0.9518,-0.9622,-0.9655,-1.0041,-1.0298,-1.0355,-1.028,-1.0385,-1.0423,-1.0724,-1.1188,-1.1861,-1.236,-1.3018,-1.4346,-1.4972,-1.5206,-1.5332,-1.5565,-1.6016,-1.5843,-1.5901,-1.6234,-1.6177,-1.613,-1.6348,-1.6472,-1.6585,-1.6574,-1.6528,-1.6528,-1.6528,-1.6301,-1.612,-1.5891,-1.5593,-1.5477,-1.5545,-1.5718,-1.5708,-1.5708,-1.5776,-1.6244,-1.6301,-1.6358,-1.6472,-1.6472,-1.6472,-1.6301,-1.6177,-1.613,-1.6431,-1.6374,-1.6208,-1.6343,-1.6353,-1.6208,-1.612,-1.6177,-1.6187,-1.6301,-1.6472,-1.6765,-1.6821,-1.6933,-1.7202,-1.7589,-1.8027,-1.8483,-1.8363,-1.8255,-1.8363,-1.8417,-1.859,-1.8762,-1.8774,-1.8774,-1.8827,-1.8815,-1.8869,-1.875,-1.9032,-1.9294,-1.949,-1.9748,-2.0231,-2.0495,-2.0693,-2.0693,-2.0693,-2.0716,-2.1019,-2.1932,-2.2179,-2.21,-2.21,-2.2271,-2.2053,-2.1465,-2.1746,-2.2473,-2.2366,-2.1888,-2.2578,-0.6168,-0.6207,-0.6465,-0.6597,-0.6597,-0.6728,-0.6741,-0.6621,-0.7073,-0.7037,-0.7082,-0.7643,-0.8219,-0.8444,-0.8714,-0.9033,-0.9295,-0.9337,-0.9485,-0.9678,-1.01,-1.0673,-1.0872,-1.1345,-1.1813,-1.2318,-1.3278,-1.3948,-1.4314,-1.4972,-1.5031,-1.5332,-1.5439,-1.5545,-1.5545,-1.5843,-1.5487,-1.5487,-1.5651,-1.5708,-1.5776,-1.5833,-1.5718,-1.5323,-1.4953,-1.4532,-1.4016,-1.3468,-1.3105,-1.3105,-1.3105,-1.3218,-1.376,-1.5119,-1.5958,-1.5948,-1.5891,-1.5823,-1.5833,-1.5583,-1.5467,-1.5467,-1.5429,-1.5177,-1.4974,-1.51,-1.5061,-1.4993,-1.5041,-1.5216,-1.4721,-1.5041,-1.5583,-1.5871,-1.5928,-1.6156,-1.6676,-1.6743,-1.6687,-1.7079,-1.7191,-1.749,-1.7765,-1.7918,-1.7929,-1.7984,-1.7984,-1.7941,-1.7929,-1.782,-1.7765,-1.7644,-1.7523,-1.7797,-1.8027,-1.8286,-1.8638,-1.8915,-1.9113,-1.9113,-1.902,-1.8715,-1.9113,-2.0398,-2.1171,-2.1269,-2.134,-2.1326,-2.1161,-2.0795,-2.1202,-2.1636,-2.1382,-2.114,-2.1609,-0.4786,-0.4851,-0.5359,-0.5669,-0.5785,-0.6165,-0.6273,-0.6249,-0.6405,-0.6384,-0.6375,-0.6564,-0.6731,-0.6996,-0.7367,-0.7787,-0.8199,-0.8355,-0.8626,-0.9004,-0.9494,-0.9938,-1.0098,-1.0551,-1.0554,-1.0795,-1.1578,-1.2435,-1.2679,-1.3028,-1.3459,-1.3391,-1.3502,-1.3622,-1.3691,-1.3622,-1.387,-1.3999,-1.4109,-1.4227,-1.4287,-1.4346,-1.4186,-1.3888,-1.364,-1.3287,-1.3,-1.2765,-1.2512,-1.2573,-1.2512,-1.2512,-1.294,-1.3614,-1.4579,-1.4423,-1.4405,-1.4405,-1.4346,-1.399,-1.3811,-1.3811,-1.3725,-1.3528,-1.3408,-1.3468,-1.3528,-1.3554,-1.3562,-1.3742,-1.3442,-1.3751,-1.393,-1.4168,-1.4346,-1.4632,-1.4993,-1.4953,-1.5303,-1.5718,-1.6265,-1.6719,-1.7268,-1.7324,-1.7268,-1.7213,-1.7168,-1.7045,-1.6933,-1.6856,-1.6743,-1.6856,-1.6789,-1.7013,-1.7191,-1.7235,-1.7401,-1.7578,-1.7699,-1.7699,-1.7809,-1.7754,-1.8398,-1.9521,-1.9992,-2.0072,-2.007,-1.992,-1.9985,-2.0131,-2.008,-2.0118,-2.037,-2.0547,-2.0924,-0.3514,-0.3578,-0.433,-0.4705,-0.4909,-0.5445,-0.5674,-0.5717,-0.5821,-0.5836,-0.5897,-0.6036,-0.612,-0.6194,-0.6538,-0.697,-0.7263,-0.7507,-0.7937,-0.8396,-0.8808,-0.9112,-0.9368,-0.9685,-0.9787,-0.9831,-1.0168,-1.0667,-1.1337,-1.1695,-1.1571,-1.1819,-1.1633,-1.1578,-1.1881,-1.2189,-1.195,-1.202,-1.2205,-1.2266,-1.2389,-1.2389,-1.2389,-1.2328,-1.2266,-1.2189,-1.2135,-1.1896,-1.1834,-1.1834,-1.1834,-1.1896,-1.2027,-1.2382,-1.2444,-1.2151,-1.2251,-1.2373,-1.2565,-1.2443,-1.2504,-1.2504,-1.2035,-1.2043,-1.1989,-1.1981,-1.1843,-1.2066,-1.2328,-1.2328,-1.2197,-1.2266,-1.2512,-1.2687,-1.287,-1.2992,-1.3545,-1.3914,-1.4213,-1.4756,-1.5381,-1.5771,-1.6133,-1.6055,-1.5812,-1.5822,-1.5772,-1.5682,-1.5624,-1.5776,-1.5823,-1.611,-1.628,-1.6497,-1.6553,-1.6384,-1.6507,-1.6574,-1.6687,-1.6687,-1.6912,-1.7079,-1.7756,-1.8215,-1.8242,-1.8289,-1.8391,-1.884,-1.9175,-1.9263,-1.875,-1.878,-1.9399,-1.9797,-2.0117,-0.3219,-0.3283,-0.3527,-0.3719,-0.3915,-0.4083,-0.4071,-0.4225,-0.4703,-0.5052,-0.5445,-0.5912,-0.6354,-0.6713,-0.6872,-0.7063,-0.7204,-0.7445,-0.7695,-0.7975,-0.8434,-0.8733,-0.8863,-0.9172,-0.9439,-0.9408,-0.9606,-0.9983,-1.0534,-1.108,-1.1392,-1.1329,-1.1267,-1.1454,-1.1267,-1.1274,-1.1571,-1.1578,-1.171,-1.1834,-1.1958,-1.195,-1.195,-1.1826,-1.1516,-1.1197,-1.1149,-1.0843,-1.0604,-1.0541,-1.0421,-1.0358,-1.0358,-1.0485,-1.0618,-1.0843,-1.1377,-1.2143,-1.2197,-1.1903,-1.1608,-1.167,-1.1531,-1.1288,-1.1163,-1.0975,-1.0905,-1.08,-1.1296,-1.1421,-1.124,-1.1373,-1.1732,-1.1926,-1.2065,-1.2544,-1.3094,-1.3096,-1.3456,-1.3786,-1.4416,-1.4453,-1.4568,-1.4462,-1.4311,-1.4373,-1.4382,-1.4371,-1.4381,-1.4706,-1.4777,-1.5012,-1.5313,-1.5535,-1.5756,-1.5583,-1.5708,-1.5728,-1.5786,-1.5796,-1.5958,-1.6155,-1.6178,-1.6517,-1.6614,-1.7421,-1.8323,-1.874,-1.8771,-1.843,-1.8036,-1.823,-1.8715,-1.9047,-1.9114,-0.2953,-0.3002,-0.312,-0.3271,-0.3435,-0.3743,-0.3983,-0.4229,-0.4684,-0.5053,-0.5301,-0.5555,-0.6046,-0.6539,-0.6588,-0.6756,-0.7084,-0.7399,-0.7615,-0.7846,-0.8334,-0.8719,-0.8889,-0.9208,-0.9408,-0.9408,-0.9478,-0.9606,-1.004,-1.0161,-1.0345,-1.0408,-1.0415,-1.0281,-1.0528,-1.0415,-1.0415,-1.0541,-1.0667,-1.078,-1.085,-1.0912,-1.0905,-1.0905,-1.0591,-1.0465,-1.0351,-1.0231,-1.0053,-1.011,-1.018,-1.0238,-1.0301,-1.0358,-1.0351,-1.0561,-1.0905,-1.1212,-1.1288,-1.1108,-1.1052,-1.0996,-1.0989,-1.0863,-1.0618,-1.0618,-1.0618,-1.0618,-1.0807,-1.0821,-1.0742,-1.0971,-1.11,-1.1277,-1.1609,-1.1803,-1.232,-1.2547,-1.2751,-1.3108,-1.3428,-1.3615,-1.3827,-1.3982,-1.4042,-1.3912,-1.3953,-1.3889,-1.3839,-1.3881,-1.3914,-1.3795,-1.4163,-1.446,-1.4688,-1.4796,-1.504,-1.5167,-1.5167,-1.5167,-1.5118,-1.5172,-1.527,-1.5679,-1.6283,-1.7186,-1.8228,-1.8166,-1.777,-1.7522,-1.7275,-1.754,-1.7734,-1.7534,-1.7902,-0.2673,-0.2791,-0.2905,-0.3004,-0.3182,-0.3576,-0.3826,-0.4107,-0.4391,-0.4727,-0.5089,-0.5386,-0.5823,-0.6209,-0.6426,-0.6756,-0.7106,-0.7397,-0.7567,-0.7927,-0.8276,-0.8669,-0.8823,-0.9151,-0.9285,-0.935,-0.9414,-0.9478,-0.9542,-0.9606,-0.96,-0.9478,-0.9728,-0.9606,-0.9542,-0.9606,-0.9734,-0.9868,-0.9926,-0.9983,-0.9983,-0.9919,-0.9926,-0.9926,-0.9862,-0.9856,-0.9862,-0.9862,-0.9926,-0.9989,-1.0053,-1.0053,-1.018,-1.0104,-1.0161,-1.0301,-1.0478,-1.0548,-1.0681,-1.0618,-1.0555,-1.0618,-1.0618,-1.0681,-1.0618,-1.0618,-1.0618,-1.0618,-1.0618,-1.0658,-1.0759,-1.0947,-1.1046,-1.119,-1.1317,-1.1293,-1.1446,-1.2173,-1.2676,-1.3079,-1.3383,-1.3458,-1.3611,-1.3842,-1.385,-1.3591,-1.3515,-1.338,-1.3269,-1.3155,-1.3025,-1.2964,-1.3199,-1.3442,-1.3571,-1.3803,-1.4172,-1.4538,-1.4597,-1.4529,-1.4469,-1.4538,-1.4671,-1.5203,-1.5798,-1.6169,-1.6759,-1.6759,-1.6787,-1.7001,-1.7134,-1.6644,-1.6537,-1.6396,-1.6853,-0.2413,-0.2701,-0.2701,-0.2824,-0.2947,-0.2932,-0.3093,-0.3378,-0.337,-0.3811,-0.4622,-0.5441,-0.5991,-0.6263,-0.6539,-0.681,-0.7052,-0.7564,-0.7549,-0.7751,-0.8221,-0.8313,-0.8425,-0.8575,-0.8829,-0.9017,-0.8952,-0.9087,-0.9414,-0.9285,-0.9414,-0.9478,-0.9478,-0.9478,-0.9478,-0.9478,-0.9478,-0.9548,-0.9606,-0.9606,-0.9606,-0.9606,-0.9542,-0.9542,-0.9542,-0.9542,-0.9548,-0.9548,-0.9612,-0.9676,-0.974,-0.9734,-0.9862,-0.9919,-0.9983,-1.011,-1.0117,-1.0244,-1.0308,-1.0428,-1.0561,-1.0561,-1.0555,-1.0491,-1.0555,-1.0555,-1.0618,-1.0575,-1.0672,-1.0722,-1.0855,-1.1002,-1.1243,-1.1337,-1.1458,-1.1532,-1.184,-1.2372,-1.2878,-1.3192,-1.3316,-1.3307,-1.3247,-1.3378,-1.333,-1.3088,-1.2662,-1.2531,-1.2422,-1.2351,-1.2228,-1.2228,-1.2466,-1.2528,-1.2421,-1.2789,-1.345,-1.3812,-1.3932,-1.3872,-1.3752,-1.39,-1.4197,-1.4619,-1.5154,-1.5248,-1.5449,-1.5912,-1.6449,-1.6876,-1.6933,-1.6419,-1.6315,-1.6377,-1.6769,-0.2296,-0.241,-0.2635,-0.2747,-0.2805,-0.3081,-0.3299,-0.3574,-0.3852,-0.4233,-0.4725,-0.5273,-0.5605,-0.5714,-0.5828,-0.5991,-0.6028,-0.6317,-0.6499,-0.6657,-0.696,-0.7234,-0.7364,-0.7643,-0.7842,-0.8231,-0.8166,-0.8431,-0.9087,-0.8958,-0.9087,-0.9215,-0.9414,-0.9478,-0.9478,-0.9478,-0.9478,-0.9478,-0.9478,-0.9478,-0.9478,-0.9478,-0.9478,-0.9478,-0.9478,-0.9478,-0.9478,-0.9478,-0.9548,-0.9676,-0.9676,-0.9676,-0.9734,-0.9798,-0.9926,-0.9983,-0.9989,-1.0053,-1.011,-1.0174,-1.0244,-1.0238,-1.0238,-1.0301,-1.0364,-1.0434,-1.0491,-1.0601,-1.0722,-1.0875,-1.0962,-1.1289,-1.1632,-1.1592,-1.1668,-1.1784,-1.2089,-1.2539,-1.272,-1.2902,-1.3038,-1.3143,-1.3048,-1.2914,-1.2716,-1.2482,-1.2065,-1.177,-1.1737,-1.1802,-1.174,-1.1802,-1.2042,-1.229,-1.2174,-1.2482,-1.285,-1.3094,-1.3338,-1.3329,-1.3321,-1.3519,-1.383,-1.4213,-1.4507,-1.4652,-1.497,-1.5561,-1.5973,-1.63,-1.629,-1.6038,-1.6097,-1.6278,-1.6654,-0.1959,-0.2127,-0.2296,-0.2521,-0.2747,-0.3023,-0.3302,-0.3522,-0.3744,-0.4125,-0.4453,-0.467,-0.4831,-0.4944,-0.5171,-0.5277,-0.5381,-0.5624,-0.5694,-0.5956,-0.6198,-0.6378,-0.648,-0.6693,-0.7035,-0.7414,-0.7512,-0.7842,-0.8619,-0.8495,-0.8823,-0.9151,-0.928,-0.935,-0.9478,-0.9478,-0.9478,-0.9478,-0.9478,-0.9478,-0.9478,-0.9478,-0.9478,-0.9478,-0.9478,-0.9478,-0.9478,-0.9478,-0.9548,-0.9612,-0.967,-0.9734,-0.9798,-0.9862,-0.9856,-0.9926,-0.9862,-0.9862,-0.9926,-0.9983,-0.9989,-1.0047,-1.0047,-1.011,-1.0174,-1.0244,-1.0308,-1.0454,-1.0737,-1.0963,-1.1042,-1.151,-1.1824,-1.1888,-1.1975,-1.2094,-1.2124,-1.2423,-1.2465,-1.2578,-1.2832,-1.3063,-1.2985,-1.2781,-1.2378,-1.216,-1.1904,-1.1641,-1.1659,-1.1677,-1.1622,-1.1685,-1.1802,-1.1988,-1.2174,-1.2482,-1.2728,-1.2789,-1.2964,-1.3009,-1.307,-1.3216,-1.3265,-1.3404,-1.3637,-1.3942,-1.4263,-1.453,-1.5031,-1.5543,-1.5656,-1.5814,-1.5725,-1.5858,-1.6119,-0.1513,-0.179,-0.1846,-0.2184,-0.2635,-0.2691,-0.2747,-0.28,-0.2856,-0.297,-0.3246,-0.3738,-0.4009,-0.4174,-0.4508,-0.4673,-0.4864,-0.5159,-0.5342,-0.5385,-0.5529,-0.5888,-0.6133,-0.6219,-0.6523,-0.6824,-0.7116,-0.7512,-0.8156,-0.8425,-0.8823,-0.8958,-0.9087,-0.9215,-0.9478,-0.9478,-0.9478,-0.9478,-0.9478,-0.9478,-0.9478,-0.9478,-0.9478,-0.9478,-0.9478,-0.9478,-0.9478,-0.9478,-0.9548,-0.9542,-0.9542,-0.9606,-0.9606,-0.9606,-0.9606,-0.967,-0.9542,-0.9542,-0.9734,-0.9856,-0.9792,-0.9792,-0.9728,-0.9664,-0.9919,-0.9996,-0.9976,-1.0103,-1.0462,-1.084,-1.1204,-1.162,-1.1742,-1.1966,-1.2038,-1.2198,-1.2224,-1.227,-1.2369,-1.2442,-1.2663,-1.2924,-1.2856,-1.2683,-1.213,-1.1832,-1.1663,-1.1622,-1.156,-1.1622,-1.1622,-1.1622,-1.1685,-1.1934,-1.2112,-1.2359,-1.2544,-1.2536,-1.2736,-1.2997,-1.2846,-1.2717,-1.271,-1.2706,-1.284,-1.3142,-1.3245,-1.3362,-1.4142,-1.4942,-1.5566,-1.5779,-1.5541,-1.5506,-1.5817,-0.1402,-0.1513,-0.1734,-0.1903,-0.2127,-0.2296,-0.2354,-0.241,-0.2579,-0.2749,-0.2916,-0.319,-0.3297,-0.3461,-0.3627,-0.3793,-0.386,-0.3981,-0.4198,-0.4276,-0.4516,-0.4893,-0.5261,-0.5712,-0.6157,-0.688,-0.719,-0.7517,-0.8371,-0.8431,-0.8565,-0.87,-0.8888,-0.9081,-0.921,-0.9274,-0.9338,-0.9408,-0.9408,-0.9478,-0.9478,-0.9478,-0.9478,-0.9478,-0.9478,-0.9478,-0.9478,-0.9414,-0.9478,-0.9414,-0.9414,-0.9414,-0.9414,-0.9414,-0.9285,-0.9081,-0.8818,-0.856,-0.8366,-0.8296,-0.8753,-0.9017,-0.8947,-0.8947,-0.96,-0.9515,-0.9497,-0.9663,-0.998,-1.0148,-1.0027,-1.0737,-1.115,-1.1489,-1.1681,-1.2131,-1.2251,-1.2331,-1.2338,-1.2331,-1.2519,-1.2271,-1.2235,-1.2178,-1.173,-1.1482,-1.1346,-1.1498,-1.156,-1.156,-1.1622,-1.1622,-1.1685,-1.1872,-1.2112,-1.2174,-1.2474,-1.2658,-1.3022,-1.3464,-1.3145,-1.2357,-1.2633,-1.2833,-1.2593,-1.2364,-1.2665,-1.3001,-1.3677,-1.4429,-1.4778,-1.5385,-1.5584,-1.5503,-1.5579,-0.1122,-0.1178,-0.1401,-0.1511,-0.1567,-0.1903,-0.2127,-0.224,-0.2465,-0.2635,-0.2805,-0.286,-0.2914,-0.2968,-0.2968,-0.3021,-0.3023,-0.3193,-0.3524,-0.3479,-0.3707,-0.4435,-0.5008,-0.5326,-0.5982,-0.6785,-0.7125,-0.7386,-0.8047,-0.8042,-0.8112,-0.8312,-0.8635,-0.8565,-0.8694,-0.8818,-0.921,-0.921,-0.9274,-0.928,-0.9285,-0.9285,-0.9285,-0.9285,-0.9285,-0.935,-0.9285,-0.935,-0.935,-0.9285,-0.9151,-0.9017,-0.9017,-0.8888,-0.8689,-0.8226,-0.8032,-0.7837,-0.7647,-0.7186,-0.7772,-0.8495,-0.7782,-0.7972,-0.87,-0.8537,-0.8594,-0.8826,-0.9233,-0.9262,-0.9254,-0.9961,-1.0278,-1.0611,-1.0908,-1.1273,-1.1409,-1.1329,-1.1443,-1.1462,-1.1696,-1.153,-1.1478,-1.1404,-1.1249,-1.1113,-1.0926,-1.1178,-1.1365,-1.1428,-1.1428,-1.1428,-1.149,-1.1677,-1.1802,-1.1864,-1.2228,-1.265,-1.2894,-1.304,-1.2432,-1.1528,-1.2265,-1.2713,-1.2088,-1.171,-1.2277,-1.2776,-1.3179,-1.3464,-1.3547,-1.4329,-1.5308,-1.5479,-1.5412,-0.0785,-0.0897,-0.0898,-0.1009,-0.1065,-0.1679,-0.2015,-0.2184,-0.224,-0.241,-0.2691,-0.2691,-0.2802,-0.2802,-0.2747,-0.2914,-0.3079,-0.3081,-0.3411,-0.3685,-0.3825,-0.4551,-0.5043,-0.5407,-0.5966,-0.6544,-0.6985,-0.7256,-0.7591,-0.8112,-0.8117,-0.7852,-0.8177,-0.7982,-0.7977,-0.8102,-0.8624,-0.8888,-0.9081,-0.9087,-0.9087,-0.9087,-0.9087,-0.9087,-0.9087,-0.9022,-0.8952,-0.8882,-0.8823,-0.8624,-0.8291,-0.8091,-0.7962,-0.7967,-0.7637,-0.7377,-0.7381,-0.7256,-0.7316,-0.6859,-0.6924,-0.7582,-0.7447,-0.7386,-0.7555,-0.7692,-0.7793,-0.7926,-0.8292,-0.8427,-0.8641,-0.8906,-0.917,-0.9404,-0.9628,-0.9766,-0.9824,-0.99,-0.9991,-1.0182,-1.0524,-1.0585,-1.0674,-1.0673,-1.0536,-1.0226,-1.0091,-1.0345,-1.0598,-1.1045,-1.1108,-1.117,-1.1233,-1.1365,-1.149,-1.1421,-1.1718,-1.2117,-1.1767,-1.1783,-1.1142,-1.1141,-1.1812,-1.1982,-1.1204,-1.1109,-1.1846,-1.2233,-1.2456,-1.2676,-1.2891,-1.3645,-1.4649,-1.5043,-1.5093,-0.112,-0.0841,-0.1288,-0.1568,-0.1624,-0.2179,-0.2291,-0.1959,-0.2071,-0.224,-0.2354,-0.2579,-0.2802,-0.319,-0.319,-0.3355,-0.3577,-0.3796,-0.3904,-0.3959,-0.3855,-0.4649,-0.5133,-0.5524,-0.601,-0.6573,-0.7104,-0.7321,-0.7787,-0.8247,-0.8052,-0.7657,-0.7587,-0.7326,-0.7125,-0.7055,-0.7907,-0.8565,-0.8823,-0.8759,-0.8823,-0.8759,-0.8823,-0.8759,-0.8759,-0.8624,-0.8296,-0.8291,-0.8161,-0.7577,-0.7381,-0.7251,-0.7186,-0.7186,-0.7055,-0.699,-0.6736,-0.6478,-0.6924,-0.6859,-0.6859,-0.6994,-0.706,-0.7186,-0.7254,-0.7198,-0.7099,-0.7346,-0.738,-0.7436,-0.7607,-0.7819,-0.8153,-0.8432,-0.8797,-0.9295,-0.9414,-0.9631,-0.9715,-1.002,-1.027,-1.0025,-1.0114,-0.9794,-0.9615,-0.9291,-0.9262,-0.9646,-0.9964,-1.0408,-1.0661,-1.0724,-1.0787,-1.085,-1.0843,-1.0843,-1.1192,-1.1461,-1.1159,-1.1162,-1.1553,-1.163,-1.1644,-1.1507,-1.1253,-1.1335,-1.1646,-1.1972,-1.2297,-1.2351,-1.2551,-1.3237,-1.3943,-1.4355,-1.4744,-0.1568,-0.1345,-0.1792,-0.2015,-0.2127,-0.2514,-0.2347,-0.1902,-0.2071,-0.2184,-0.2127,-0.2521,-0.2745,-0.274,-0.3021,-0.3244,-0.3186,-0.3352,-0.3519,-0.3741,-0.3741,-0.4395,-0.4919,-0.5485,-0.6031,-0.6585,-0.6874,-0.6999,-0.7451,-0.7321,-0.706,-0.6535,-0.6736,-0.6732,-0.6531,-0.6662,-0.7386,-0.7977,-0.8242,-0.8037,-0.8102,-0.8102,-0.7972,-0.8102,-0.8102,-0.7837,-0.7572,-0.7637,-0.7512,-0.719,-0.7125,-0.7125,-0.706,-0.6994,-0.7064,-0.7064,-0.6798,-0.6671,-0.6859,-0.6924,-0.6859,-0.6793,-0.6671,-0.6655,-0.6672,-0.6664,-0.6728,-0.684,-0.6653,-0.6503,-0.6546,-0.6729,-0.7128,-0.7522,-0.8297,-0.9136,-0.9441,-0.9662,-0.99,-1.0263,-1.0157,-0.9867,-0.9557,-0.9127,-0.9139,-0.9396,-0.9454,-0.9582,-0.9709,-0.9837,-1.0148,-1.0275,-1.0212,-1.0275,-1.0205,-1.0218,-1.045,-1.0698,-1.0689,-1.0921,-1.167,-1.1839,-1.1478,-1.1586,-1.1729,-1.1761,-1.1749,-1.199,-1.2198,-1.2231,-1.2378,-1.2924,-1.3411,-1.3795,-1.425,-0.2127,-0.2128,-0.2184,-0.2184,-0.2352,-0.2514,-0.2235,-0.1734,-0.1959,-0.2015,-0.1903,-0.2354,-0.2352,-0.2348,-0.2738,-0.2794,-0.2905,-0.3019,-0.3352,-0.3411,-0.3469,-0.3972,-0.4646,-0.5229,-0.5438,-0.6017,-0.6293,-0.6085,-0.6363,-0.6453,-0.6272,-0.5219,-0.5947,-0.621,-0.6207,-0.6141,-0.6736,-0.726,-0.7125,-0.6728,-0.6985,-0.6789,-0.6597,-0.6793,-0.6859,-0.6789,-0.6793,-0.706,-0.7456,-0.7391,-0.7326,-0.7326,-0.7129,-0.6933,-0.7064,-0.7082,-0.6758,-0.6705,-0.67,-0.6692,-0.6728,-0.6601,-0.6284,-0.6297,-0.6463,-0.6119,-0.615,-0.6246,-0.6111,-0.6011,-0.6044,-0.6191,-0.6491,-0.6818,-0.7431,-0.8186,-0.8643,-0.8991,-0.9446,-0.9622,-0.9307,-0.9037,-0.8571,-0.8102,-0.7967,-0.8935,-0.9134,-0.9,-0.9262,-0.9198,-0.9576,-0.9697,-0.964,-0.9582,-0.9716,-0.9728,-0.9701,-0.9819,-1.0086,-1.0361,-1.0899,-1.1078,-1.1205,-1.1465,-1.1706,-1.1855,-1.1922,-1.2077,-1.2231,-1.2305,-1.2452,-1.2666,-1.3025,-1.331,-1.4106,-0.2404,-0.2071,-0.2184,-0.1737,-0.112,-0.1955,-0.1732,-0.084,-0.1455,-0.1624,-0.1513,-0.1849,-0.2127,-0.2235,-0.2458,-0.2625,-0.2792,-0.285,-0.335,-0.3352,-0.3299,-0.3426,-0.4038,-0.4226,-0.4473,-0.4637,-0.4809,-0.5058,-0.5417,-0.5817,-0.6141,-0.5617,-0.5951,-0.6083,-0.5818,-0.5822,-0.6083,-0.6741,-0.6346,-0.6671,-0.7521,-0.7852,-0.7982,-0.7852,-0.7782,-0.7386,-0.7326,-0.726,-0.7125,-0.6793,-0.6666,-0.6662,-0.6662,-0.6535,-0.6539,-0.6613,-0.6485,-0.6431,-0.6443,-0.6406,-0.6408,-0.6465,-0.6358,-0.6459,-0.6331,-0.5689,-0.5474,-0.5553,-0.5583,-0.5537,-0.5616,-0.5751,-0.5966,-0.6293,-0.6621,-0.7292,-0.7893,-0.8362,-0.8885,-0.8722,-0.8425,-0.8096,-0.7642,-0.7386,-0.712,-0.7125,-0.7129,-0.726,-0.7842,-0.8102,-0.8941,-0.9128,-0.8952,-0.8952,-0.9151,-0.9291,-0.9321,-0.9503,-0.9807,-0.9991,-1.0239,-1.0688,-1.115,-1.1428,-1.1632,-1.1855,-1.2003,-1.215,-1.2231,-1.2305,-1.2378,-1.2592,-1.2586,-1.2806,-1.3882,-0.2571,-0.2348,-0.2462,-0.1959,-0.1343,-0.1898,-0.1675,-0.1007,-0.1286,-0.1287,-0.1065,-0.1512,-0.1846,-0.1958,-0.2179,-0.2179,-0.2456,-0.2625,-0.2625,-0.2683,-0.2852,-0.2852,-0.306,-0.3345,-0.3629,-0.3792,-0.4005,-0.4336,-0.4736,-0.5153,-0.5422,-0.5418,-0.5749,-0.5881,-0.5624,-0.5624,-0.5745,-0.6346,-0.5947,-0.6666,-0.7847,-0.7657,-0.7326,-0.726,-0.7321,-0.719,-0.7256,-0.7125,-0.6929,-0.6531,-0.6404,-0.647,-0.6494,-0.6356,-0.6229,-0.6199,-0.6116,-0.609,-0.6041,-0.5985,-0.5947,-0.6005,-0.5741,-0.5617,-0.5576,-0.5064,-0.5183,-0.5322,-0.5154,-0.5054,-0.5303,-0.5494,-0.5744,-0.6066,-0.6531,-0.7122,-0.7522,-0.7826,-0.8122,-0.8177,-0.8027,-0.8032,-0.7777,-0.7842,-0.7712,-0.7837,-0.7451,-0.726,-0.7517,-0.7396,-0.8102,-0.8619,-0.8436,-0.8576,-0.8899,-0.9034,-0.9057,-0.9259,-0.9554,-0.9959,-1.0341,-1.0728,-1.1075,-1.1359,-1.1632,-1.1929,-1.2077,-1.215,-1.2231,-1.2305,-1.2378,-1.2445,-1.2445,-1.2586,-1.3593,-0.235,-0.2458,-0.2516,-0.2237,-0.179,-0.1843,-0.1564,-0.1174,-0.1118,-0.084,-0.0561,-0.1232,-0.1232,-0.1288,-0.1512,-0.1457,-0.1513,-0.1792,-0.179,-0.1846,-0.1902,-0.2183,-0.2542,-0.2815,-0.318,-0.3497,-0.3819,-0.4132,-0.4437,-0.4841,-0.5087,-0.5084,-0.5272,-0.5533,-0.5939,-0.5898,-0.5719,-0.6327,-0.6404,-0.649,-0.6506,-0.6338,-0.6338,-0.6203,-0.6067,-0.6203,-0.6531,-0.6662,-0.6666,-0.6465,-0.6272,-0.6272,-0.6292,-0.616,-0.5841,-0.5805,-0.5637,-0.5576,-0.5525,-0.5363,-0.5439,-0.5411,-0.4948,-0.4718,-0.4665,-0.4674,-0.4792,-0.4807,-0.464,-0.4763,-0.4944,-0.5163,-0.5484,-0.5807,-0.6268,-0.6724,-0.699,-0.7251,-0.7381,-0.7507,-0.7507,-0.7577,-0.7577,-0.7712,-0.7907,-0.8161,-0.8285,-0.835,-0.8156,-0.7652,-0.7717,-0.8107,-0.8182,-0.8376,-0.8749,-0.8848,-0.8952,-0.9205,-0.9522,-1.003,-1.0425,-1.0622,-1.0942,-1.139,-1.1632,-1.1855,-1.2077,-1.2157,-1.2231,-1.2305,-1.2305,-1.2378,-1.2519,-1.2732,-1.3448,-0.1343,-0.1064,-0.112,-0.084,-0.0448,-0.0448,-0.0336,-0.028,-0.0392,-0.0336,-0.0449,-0.0505,-0.0561,-0.0505,-0.0617,-0.0729,-0.1121,-0.1233,-0.1346,-0.1402,-0.1792,-0.1846,-0.2133,-0.2719,-0.3056,-0.3432,-0.3795,-0.3963,-0.4411,-0.4801,-0.5017,-0.5071,-0.541,-0.5686,-0.5898,-0.5625,-0.5251,-0.5694,-0.58,-0.5675,-0.5955,-0.6189,-0.712,-0.6999,-0.6732,-0.6933,-0.7064,-0.6933,-0.6736,-0.6539,-0.6071,-0.5807,-0.5697,-0.5536,-0.5206,-0.4843,-0.4748,-0.448,-0.433,-0.4209,-0.4303,-0.4353,-0.402,-0.4025,-0.3996,-0.3996,-0.4053,-0.4053,-0.4009,-0.4282,-0.4495,-0.4628,-0.4888,-0.5153,-0.5547,-0.5807,-0.6071,-0.6465,-0.6728,-0.6597,-0.6465,-0.6338,-0.6145,-0.6276,-0.647,-0.6662,-0.6929,-0.699,-0.719,-0.7195,-0.733,-0.7591,-0.7792,-0.8448,-0.8876,-0.8942,-0.9036,-0.9264,-0.9443,-0.9787,-1.0078,-1.0313,-1.0725,-1.1255,-1.1558,-1.1855,-1.2003,-1.2157,-1.2231,-1.2305,-1.2305,-1.2378,-1.2519,-1.2732,-1.3237]},{"header":{"parameterUnit":"m.s-1","parameterCategory":1,"la1":31.0,"la2":29.5877,"lo1":-88.7671,"lo2":-86.6584,"dy":0.0162,"dx":0.0185,"nx":115,"ny":88,"refTime":"2023-05-26T00:00:00:Z","depth":0,"parameterNumber":3,"parameterNumberName":"V-component_of_WINDS"},"data":[0.0,0.0,0.0,0.0,0.0,0.0,0.0,0.0,0.0,0.0,0.0,0.0,0.0,0.0,0.0,0.0,0.0,0.0,0.0,0.0,0.0,0.0,0.0,0.0,0.0,0.0,0.0,0.0,0.0,0.0,0.0,0.0,0.0,0.0,0.0,0.0,0.0,0.0,0.0,0.0,0.0,0.0,0.0,0.0,0.0,0.0,0.0,0.0,0.0,0.0,0.0,0.0,0.0,0.0,0.0,0.0,0.0,0.0,0.0,0.0,0.0,0.0,0.0,0.0,0.0,0.0,0.0,0.0,0.0,0.0,0.0,0.0,0.0,0.0,0.0,0.0,0.0,0.0,0.0,0.0,0.0,0.0,0.0,0.0,0.0,0.0,0.0,0.0,0.0,0.0,0.0,0.0,0.0,0.0,0.0,0.0,0.0,0.0,0.0,0.0,0.0,0.0,0.0,0.0,0.0,0.0,0.0,0.0,0.0,0.0,0.0,0.0,0.0,0.0,0.0,0.0,0.0,0.0,0.0,0.0,0.0,0.0,0.0,0.0,0.0,0.0,0.0,0.0,0.0,0.0,0.0,0.0,0.0,0.0,0.0,0.0,0.0,0.0,0.0,0.0,0.0,0.0,0.0,0.0,0.0,0.0,0.0,0.0,0.0,0.0,0.0,0.0,0.0,0.0,0.0,0.0,0.0,0.0,0.0,0.0,0.0,0.0,0.0,0.0,0.0,0.0,0.0,0.0,0.0,0.0,0.0,0.0,0.0,0.0,0.0,0.0,0.0,0.0,0.0,0.0,0.0,0.0,0.0,0.0,0.0,0.0,0.0,0.0,0.0,0.0,0.0,0.0,0.0,0.0,0.0,0.0,0.0,0.0,0.0,0.0,0.0,0.0,0.0,0.0,0.0,0.0,0.0,0.0,0.0,0.0,0.0,0.0,0.0,0.0,0.0,0.0,0.0,0.0,0.0,0.0,0.0,0.0,0.0,0.0,0.0,0.0,0.0,0.0,0.0,0.0,0.0,0.0,0.0,0.0,0.0,0.0,0.0,0.0,0.0,0.0,0.0,0.0,0.0,0.0,0.0,0.0,0.0,0.0,0.0,0.0,0.0,0.0,0.0,0.0,0.0,0.0,0.0,0.0,0.0,0.0,0.0,0.0,0.0,0.0,0.0,0.0,0.0,0.0,0.0,0.0,0.0,0.0,0.0,0.0,0.0,0.0,0.0,0.0,0.0,0.0,0.0,0.0,0.0,0.0,0.0,0.0,0.0,0.0,0.0,0.0,0.0,0.0,0.0,0.0,0.0,0.0,0.0,0.0,0.0,0.0,0.0,0.0,0.0,0.0,0.0,0.0,0.0,0.0,0.0,0.0,0.0,0.0,0.0,0.0,0.0,0.0,0.0,0.0,0.0,0.0,0.0,0.0,0.0,0.0,0.0,0.0,0.0,0.0,0.0,0.0,0.0,0.0,0.0,0.0,0.0,0.0,0.0,0.0,0.0,0.0,0.0,0.0,0.0,0.0,0.0,0.0,0.0,0.0,0.0,0.0,0.0,0.0,0.0,0.0,0.0,0.0,0.0,0.0,0.0,0.0,0.0,0.0,0.0,0.0,0.0,0.0,0.0,0.0,0.0,0.0,0.0,0.0,0.0,0.0,0.0,0.0,0.0,0.0,0.0,0.0,0.0,0.0,0.0,0.0,0.0,0.0,0.0,0.0,0.0,0.0,0.0,0.0,0.0,0.0,0.0,0.0,0.0,0.0,0.0,0.0,0.0,0.0,0.0,0.0,0.0,0.0,0.0,0.0,0.0,0.0,0.0,0.0,0.0,0.0,0.0,0.0,0.0,0.0,0.0,0.0,0.0,0.0,0.0,0.0,0.0,0.0,0.0,0.0,0.0,0.0,0.0,0.0,0.0,0.0,0.0,0.0,0.0,0.0,0.0,0.0,0.0,0.0,0.0,0.0,0.0,0.0,0.0,0.0,0.0,0.0,0.0,0.0,0.0,0.0,0.0,0.0,0.0,0.0,0.0,0.0,0.0,0.0,0.0,0.0,0.0,0.0,0.0,0.0,0.0,0.0,0.0,0.0,0.0,0.0,0.0,0.0,0.0,0.0,0.0,0.0,0.0,0.0,0.0,0.0,0.0,0.0,0.0,0.0,0.0,0.0,0.0,0.0,0.0,0.0,0.0,0.0,0.0,0.0,0.0,0.0,0.0,0.0,0.0,0.0,0.0,0.0,0.0,0.0,0.0,0.0,0.0,0.0,0.0,0.0,0.0,0.0,0.0,0.0,0.0,0.0,0.0,0.0,0.0,0.0,0.0,0.0,0.0,0.0,0.0,0.0,0.0,0.0,0.0,0.0,0.0,0.0,0.0,0.0,0.0,0.0,0.0,0.0,0.0,0.0,0.0,0.0,0.0,0.0,0.0,0.0,0.0,0.0,0.0,0.0,0.0,0.0,0.0,0.0,0.0,0.0,0.0,0.0,0.0,0.0,0.0,0.0,0.0,0.0,0.0,0.0,0.0,0.0,0.0,0.0,0.0,0.0,0.0,0.0,0.0,0.0,0.0,0.0,0.0,0.0,0.0,0.0,0.0,0.0,0.0,0.0,0.0,0.0,0.0,0.0,0.0,0.0,0.0,0.0,0.0,0.0,0.0,0.0,0.0,0.0,0.0,0.0,0.0,0.0,0.0,0.0,0.0,0.0,0.0,0.0,0.0,0.0,0.0,0.0,0.0,0.0,0.0,0.0,0.0,0.0,0.0,0.0,0.0,0.0,0.0,0.0,0.0,0.0,0.0,0.0,0.0,0.0,0.0,0.0,0.0,0.0,0.0,0.0,0.0,0.0,0.0,0.0,0.0,0.0,0.0,0.0,0.0,0.0,0.0,0.0,0.0,0.0,0.0,0.0,0.0,0.0,0.0,0.0,0.0,0.0,0.0,0.0,0.0,0.0,0.0,0.0,0.0,0.0,0.0,0.0,0.0,0.0,0.0,0.0,0.0,0.0,0.0,0.0,0.0,0.0,0.0,0.0,0.0,0.0,0.0,0.0,0.0,0.0,0.0,0.0,0.0,0.0,0.0,0.0,0.0,0.0,0.0,0.0,0.0,0.0,0.0,0.0,0.0,0.0,0.0,0.0,0.0,0.0,0.0,0.0,0.0,0.0,0.0,0.0,0.0,0.0,0.0,0.0,0.0,0.0,0.0,0.0,0.0,0.0,0.0,0.0,0.0,0.0,0.0,0.0,0.0,0.0,0.0,0.0,0.0,0.0,0.0,0.0,0.0,0.0,0.0,0.0,0.0,0.0,0.0,0.0,0.0,0.0,0.0,0.0,0.0,0.0,0.0,0.0,0.0,0.0,0.0,0.0,0.0,0.0,0.0,0.0,0.0,0.0,0.0,0.0,0.0,0.0,0.0,0.0,0.0,0.0,0.0,0.0,0.0,0.0,0.0,0.0,0.0,0.0,0.0,0.0,0.0,0.0,0.0,0.0,0.0,0.0,0.0,0.0,0.0,0.0,0.0,0.0,0.0,0.0,0.0,0.0,0.0,0.0,0.0,0.0,0.0,0.0,0.0,0.0,0.0,0.0,0.0,0.0,0.0,0.0,0.0,0.0,0.0,0.0,0.0,0.0,0.0,0.0,0.0,0.0,0.0,0.0,0.0,0.0,0.0,0.0,0.0,0.0,0.0,0.0,0.0,0.0,0.0,0.0,0.0,0.0,0.0,0.0,0.0,0.0,0.0,0.0,0.0,0.0,0.0,0.0,0.0,0.0,0.0,0.0,0.0,0.0,0.0,0.0,0.0,0.0,0.0,0.0,0.0,0.0,0.0,0.0,0.0,0.0,0.0,0.0,0.0,0.0,0.0,0.0,0.0,0.0,0.0,0.0,0.0,0.0,0.0,0.0,0.0,0.0,0.0,0.0,0.0,0.0,0.0,0.0,0.0,0.0,0.0,0.0,0.0,0.0,0.0,0.0,0.0,0.0,0.0,0.0,0.0,0.0,0.0,0.0,0.0,0.0,0.0,0.0,0.0,0.0,0.0,0.0,0.0,0.0,0.0,0.0,0.0,0.0,0.0,0.0,0.0,0.0,0.0,0.0,0.0,0.0,0.0,0.0,0.0,0.0,0.0,0.0,0.0,0.0,0.0,0.0,0.0,0.0,0.0,0.0,0.0,0.0,0.0,0.0,0.0,0.0,0.0,0.0,0.0,0.0,0.0,0.0,0.0,0.0,0.0,0.0,0.0,0.0,0.0,0.0,0.0,0.0,-2.213,0.0,0.0,0.0,0.0,0.0,0.0,0.0,0.0,0.0,0.0,0.0,0.0,0.0,0.0,0.0,0.0,0.0,0.0,0.0,0.0,0.0,0.0,0.0,0.0,0.0,0.0,0.0,0.0,0.0,0.0,0.0,0.0,0.0,0.0,0.0,0.0,0.0,0.0,0.0,0.0,0.0,0.0,0.0,0.0,0.0,0.0,0.0,0.0,0.0,0.0,0.0,0.0,0.0,0.0,0.0,0.0,0.0,0.0,0.0,0.0,0.0,0.0,0.0,0.0,0.0,0.0,0.0,0.0,0.0,0.0,0.0,0.0,0.0,0.0,0.0,0.0,0.0,0.0,0.0,0.0,0.0,0.0,0.0,0.0,0.0,0.0,0.0,0.0,0.0,0.0,0.0,0.0,0.0,0.0,0.0,0.0,0.0,0.0,0.0,0.0,0.0,0.0,0.0,0.0,0.0,0.0,0.0,0.0,0.0,0.0,-2.26,-2.2678,-2.2797,-2.2873,-2.2898,0.0,0.0,0.0,0.0,0.0,0.0,0.0,0.0,0.0,0.0,0.0,0.0,0.0,0.0,0.0,0.0,0.0,0.0,0.0,0.0,0.0,0.0,0.0,0.0,0.0,0.0,0.0,0.0,0.0,0.0,0.0,0.0,0.0,0.0,0.0,0.0,0.0,0.0,0.0,0.0,0.0,0.0,0.0,0.0,0.0,0.0,0.0,0.0,0.0,0.0,0.0,0.0,0.0,0.0,0.0,0.0,0.0,0.0,0.0,0.0,0.0,0.0,0.0,0.0,0.0,0.0,0.0,0.0,0.0,0.0,0.0,0.0,0.0,0.0,0.0,0.0,0.0,0.0,0.0,0.0,0.0,0.0,0.0,0.0,0.0,0.0,0.0,0.0,0.0,0.0,0.0,0.0,0.0,0.0,0.0,0.0,0.0,0.0,0.0,0.0,0.0,0.0,0.0,0.0,0.0,0.0,0.0,0.0,0.0,0.0,0.0,0.0,-2.3472,-2.3534,-2.3574,0.0,0.0,0.0,0.0,0.0,0.0,0.0,0.0,0.0,0.0,0.0,0.0,0.0,0.0,0.0,0.0,0.0,0.0,0.0,0.0,0.0,0.0,0.0,0.0,0.0,0.0,0.0,0.0,0.0,0.0,0.0,0.0,0.0,0.0,0.0,0.0,0.0,0.0,0.0,0.0,0.0,0.0,0.0,0.0,0.0,0.0,0.0,0.0,0.0,0.0,0.0,0.0,0.0,0.0,0.0,0.0,0.0,0.0,0.0,0.0,0.0,0.0,0.0,0.0,0.0,0.0,0.0,0.0,0.0,0.0,0.0,0.0,0.0,0.0,0.0,0.0,0.0,0.0,0.0,0.0,0.0,0.0,0.0,0.0,0.0,0.0,0.0,0.0,0.0,0.0,0.0,0.0,0.0,0.0,0.0,0.0,0.0,0.0,0.0,0.0,0.0,0.0,0.0,0.0,0.0,0.0,0.0,0.0,0.0,0.0,-2.4044,-2.4118,-2.4173,0.0,-2.4118,0.0,0.0,0.0,0.0,0.0,0.0,0.0,0.0,0.0,0.0,0.0,0.0,0.0,0.0,0.0,0.0,0.0,0.0,0.0,0.0,0.0,0.0,0.0,0.0,0.0,0.0,0.0,0.0,0.0,0.0,0.0,0.0,0.0,0.0,0.0,0.0,0.0,0.0,0.0,0.0,0.0,0.0,0.0,0.0,0.0,0.0,0.0,0.0,0.0,0.0,0.0,0.0,0.0,0.0,0.0,0.0,0.0,0.0,0.0,0.0,0.0,0.0,0.0,0.0,0.0,0.0,0.0,0.0,0.0,0.0,0.0,0.0,0.0,0.0,0.0,0.0,0.0,0.0,0.0,0.0,0.0,0.0,0.0,0.0,0.0,0.0,0.0,0.0,0.0,0.0,0.0,0.0,0.0,0.0,0.0,0.0,0.0,0.0,0.0,0.0,0.0,0.0,0.0,0.0,0.0,0.0,0.0,0.0,0.0,0.0,-2.4561,-2.4618,-2.4676,-2.4676,0.0,0.0,0.0,0.0,0.0,0.0,0.0,0.0,0.0,0.0,0.0,0.0,0.0,0.0,0.0,0.0,0.0,0.0,0.0,0.0,0.0,0.0,0.0,0.0,0.0,0.0,0.0,0.0,0.0,0.0,0.0,0.0,0.0,0.0,0.0,0.0,0.0,0.0,0.0,0.0,0.0,0.0,0.0,0.0,0.0,0.0,0.0,0.0,0.0,0.0,0.0,0.0,0.0,0.0,0.0,0.0,0.0,0.0,0.0,0.0,0.0,0.0,0.0,0.0,0.0,0.0,0.0,0.0,0.0,0.0,0.0,0.0,0.0,0.0,0.0,0.0,0.0,0.0,0.0,0.0,0.0,0.0,0.0,0.0,0.0,0.0,0.0,0.0,0.0,0.0,0.0,0.0,0.0,0.0,0.0,0.0,0.0,0.0,0.0,0.0,0.0,0.0,0.0,0.0,0.0,0.0,0.0,0.0,0.0,0.0,-2.5247,-2.5449,-2.5732,-2.557,-2.5433,-2.5356,0.0,0.0,0.0,0.0,0.0,0.0,0.0,0.0,0.0,0.0,0.0,0.0,0.0,0.0,0.0,0.0,0.0,0.0,0.0,0.0,0.0,0.0,0.0,0.0,0.0,0.0,0.0,0.0,0.0,0.0,0.0,0.0,0.0,0.0,0.0,0.0,0.0,0.0,0.0,0.0,0.0,0.0,0.0,0.0,0.0,0.0,0.0,0.0,0.0,0.0,0.0,0.0,0.0,0.0,0.0,0.0,0.0,0.0,0.0,0.0,0.0,0.0,0.0,0.0,0.0,0.0,0.0,0.0,0.0,0.0,0.0,0.0,0.0,0.0,0.0,0.0,0.0,0.0,0.0,0.0,0.0,0.0,0.0,0.0,0.0,0.0,0.0,0.0,0.0,0.0,0.0,0.0,0.0,0.0,0.0,0.0,0.0,0.0,0.0,0.0,0.0,0.0,0.0,0.0,0.0,0.0,0.0,0.0,-2.6365,-2.6477,-2.6947,-2.776,-2.707,-2.6579,0.0,0.0,0.0,0.0,0.0,0.0,0.0,0.0,0.0,0.0,0.0,0.0,0.0,0.0,0.0,0.0,0.0,0.0,0.0,0.0,0.0,0.0,0.0,0.0,0.0,0.0,0.0,0.0,0.0,0.0,0.0,0.0,0.0,0.0,0.0,0.0,0.0,0.0,0.0,0.0,0.0,0.0,0.0,0.0,0.0,0.0,0.0,0.0,0.0,0.0,0.0,0.0,0.0,0.0,0.0,0.0,0.0,0.0,0.0,0.0,0.0,0.0,0.0,0.0,0.0,0.0,0.0,0.0,0.0,0.0,0.0,0.0,0.0,0.0,0.0,0.0,0.0,0.0,0.0,0.0,0.0,0.0,0.0,0.0,0.0,0.0,0.0,0.0,0.0,0.0,0.0,0.0,0.0,0.0,0.0,0.0,0.0,0.0,0.0,0.0,0.0,0.0,0.0,0.0,0.0,0.0,0.0,0.0,0.0,-2.6693,-2.725,-2.7705,-2.7984,-2.7726,-2.7325,0.0,0.0,0.0,0.0,0.0,0.0,0.0,0.0,0.0,0.0,0.0,0.0,0.0,0.0,0.0,0.0,0.0,0.0,0.0,0.0,0.0,0.0,0.0,0.0,0.0,0.0,0.0,0.0,0.0,0.0,0.0,0.0,0.0,0.0,0.0,0.0,0.0,0.0,0.0,0.0,0.0,0.0,0.0,0.0,0.0,0.0,0.0,0.0,0.0,0.0,0.0,0.0,0.0,0.0,0.0,0.0,0.0,0.0,0.0,0.0,0.0,0.0,0.0,0.0,0.0,0.0,0.0,0.0,0.0,0.0,0.0,0.0,0.0,0.0,0.0,0.0,0.0,0.0,0.0,0.0,0.0,0.0,0.0,0.0,0.0,0.0,0.0,0.0,0.0,0.0,0.0,0.0,0.0,0.0,0.0,0.0,0.0,0.0,0.0,0.0,0.0,0.0,0.0,0.0,0.0,0.0,0.0,0.0,0.0,-2.7555,0.0,-2.8774,-2.8704,-2.8497,-2.8118,0.0,0.0,0.0,0.0,0.0,0.0,0.0,0.0,0.0,0.0,0.0,0.0,0.0,0.0,0.0,0.0,0.0,0.0,0.0,0.0,0.0,0.0,0.0,0.0,0.0,0.0,0.0,0.0,0.0,0.0,0.0,0.0,0.0,0.0,0.0,0.0,0.0,0.0,0.0,0.0,0.0,0.0,0.0,0.0,0.0,0.0,0.0,0.0,0.0,0.0,0.0,0.0,0.0,0.0,0.0,0.0,0.0,0.0,0.0,0.0,0.0,0.0,0.0,0.0,0.0,0.0,0.0,0.0,0.0,0.0,0.0,0.0,0.0,0.0,0.0,0.0,0.0,0.0,0.0,0.0,0.0,0.0,0.0,0.0,0.0,0.0,0.0,0.0,0.0,0.0,0.0,0.0,0.0,0.0,0.0,0.0,0.0,0.0,0.0,0.0,0.0,0.0,0.0,0.0,0.0,0.0,0.0,0.0,-2.8432,-2.9064,-2.9812,-3.013,-3.0155,-2.9368,-2.9043,0.0,0.0,0.0,0.0,0.0,0.0,0.0,0.0,0.0,0.0,0.0,0.0,0.0,0.0,0.0,0.0,0.0,0.0,0.0,0.0,0.0,0.0,0.0,0.0,0.0,0.0,0.0,0.0,0.0,0.0,0.0,0.0,0.0,0.0,0.0,0.0,0.0,0.0,0.0,0.0,0.0,0.0,0.0,0.0,0.0,0.0,0.0,0.0,0.0,0.0,0.0,0.0,0.0,0.0,0.0,0.0,0.0,0.0,0.0,0.0,0.0,0.0,0.0,0.0,0.0,0.0,0.0,0.0,0.0,0.0,0.0,0.0,0.0,0.0,0.0,0.0,0.0,0.0,0.0,0.0,0.0,0.0,0.0,0.0,0.0,0.0,0.0,0.0,0.0,0.0,0.0,0.0,0.0,0.0,0.0,0.0,0.0,0.0,0.0,0.0,0.0,0.0,0.0,0.0,0.0,0.0,0.0,0.0,0.0,-2.9449,-2.9556,-2.9542,-2.9435,-2.9352,-2.9098,0.0,0.0,0.0,0.0,0.0,0.0,0.0,0.0,0.0,0.0,0.0,0.0,0.0,0.0,0.0,0.0,0.0,0.0,0.0,0.0,0.0,0.0,0.0,0.0,0.0,0.0,0.0,0.0,0.0,0.0,0.0,0.0,0.0,0.0,0.0,0.0,0.0,0.0,0.0,0.0,0.0,0.0,0.0,0.0,0.0,0.0,0.0,0.0,0.0,0.0,0.0,0.0,0.0,0.0,0.0,0.0,0.0,0.0,0.0,0.0,0.0,0.0,0.0,0.0,0.0,0.0,0.0,0.0,0.0,0.0,0.0,0.0,0.0,0.0,0.0,0.0,0.0,0.0,0.0,0.0,0.0,0.0,0.0,0.0,0.0,0.0,0.0,0.0,0.0,0.0,0.0,0.0,0.0,0.0,0.0,0.0,0.0,0.0,0.0,0.0,0.0,0.0,0.0,0.0,0.0,0.0,0.0,0.0,0.0,-2.9028,-2.9153,-2.9179,-2.9028,-2.9035,-2.901,-2.8951,0.0,0.0,0.0,0.0,0.0,0.0,0.0,0.0,0.0,0.0,0.0,0.0,0.0,0.0,0.0,0.0,0.0,0.0,0.0,0.0,0.0,0.0,0.0,0.0,0.0,0.0,0.0,0.0,0.0,0.0,0.0,0.0,0.0,0.0,0.0,0.0,0.0,0.0,0.0,0.0,0.0,0.0,0.0,0.0,0.0,0.0,0.0,0.0,0.0,0.0,0.0,0.0,0.0,0.0,0.0,0.0,0.0,0.0,0.0,0.0,0.0,0.0,0.0,0.0,0.0,0.0,0.0,0.0,0.0,0.0,0.0,0.0,0.0,0.0,0.0,0.0,0.0,0.0,0.0,0.0,0.0,0.0,0.0,0.0,0.0,0.0,0.0,0.0,0.0,0.0,0.0,0.0,0.0,0.0,0.0,0.0,0.0,0.0,0.0,0.0,0.0,0.0,0.0,0.0,0.0,0.0,0.0,0.0,-2.7849,-2.8608,-2.8887,-2.8785,-2.8519,-2.8767,0.0,0.0,0.0,0.0,0.0,0.0,0.0,0.0,0.0,0.0,0.0,0.0,0.0,0.0,0.0,0.0,0.0,0.0,0.0,0.0,0.0,0.0,0.0,0.0,0.0,0.0,0.0,0.0,0.0,0.0,0.0,0.0,0.0,0.0,0.0,0.0,0.0,0.0,0.0,0.0,0.0,0.0,0.0,0.0,0.0,0.0,0.0,0.0,0.0,0.0,0.0,0.0,0.0,0.0,0.0,0.0,0.0,0.0,0.0,0.0,0.0,0.0,0.0,0.0,0.0,0.0,0.0,0.0,0.0,0.0,0.0,0.0,0.0,0.0,0.0,0.0,0.0,0.0,0.0,0.0,0.0,0.0,0.0,0.0,0.0,0.0,0.0,0.0,0.0,0.0,0.0,0.0,0.0,0.0,0.0,0.0,0.0,0.0,0.0,0.0,0.0,0.0,0.0,0.0,0.0,0.0,0.0,0.0,0.0,-2.6104,-2.6288,-2.675,-2.7476,-2.784,-2.8134,0.0,0.0,0.0,0.0,0.0,0.0,0.0,0.0,0.0,0.0,0.0,0.0,0.0,0.0,0.0,0.0,0.0,0.0,0.0,0.0,0.0,0.0,0.0,0.0,0.0,0.0,0.0,0.0,0.0,0.0,0.0,0.0,0.0,0.0,0.0,0.0,0.0,0.0,0.0,0.0,0.0,0.0,0.0,0.0,0.0,0.0,0.0,0.0,0.0,0.0,0.0,0.0,0.0,0.0,0.0,0.0,0.0,0.0,0.0,0.0,0.0,0.0,0.0,0.0,0.0,0.0,0.0,0.0,0.0,0.0,0.0,0.0,0.0,0.0,0.0,0.0,0.0,0.0,0.0,0.0,0.0,0.0,0.0,0.0,0.0,0.0,0.0,0.0,0.0,0.0,0.0,0.0,0.0,0.0,0.0,0.0,0.0,0.0,0.0,0.0,0.0,0.0,0.0,0.0,0.0,0.0,0.0,0.0,-2.5136,-2.4716,-2.4732,-2.4998,-2.5487,-2.6578,-2.751,0.0,0.0,0.0,0.0,0.0,0.0,0.0,0.0,0.0,0.0,0.0,0.0,0.0,0.0,0.0,0.0,0.0,0.0,0.0,0.0,0.0,0.0,0.0,0.0,0.0,0.0,0.0,0.0,0.0,0.0,0.0,0.0,0.0,0.0,0.0,0.0,0.0,0.0,0.0,0.0,0.0,0.0,0.0,0.0,0.0,0.0,0.0,0.0,0.0,0.0,0.0,0.0,0.0,0.0,0.0,0.0,0.0,0.0,0.0,0.0,0.0,0.0,0.0,0.0,0.0,0.0,0.0,0.0,0.0,0.0,0.0,0.0,0.0,0.0,0.0,0.0,0.0,0.0,0.0,0.0,0.0,0.0,0.0,0.0,0.0,0.0,0.0,0.0,0.0,0.0,0.0,0.0,0.0,0.0,0.0,0.0,0.0,0.0,0.0,0.0,0.0,0.0,0.0,0.0,0.0,0.0,0.0,0.0,-2.3522,-2.3496,-2.3475,-2.3491,-2.3522,-2.5135,-2.6808,0.0,0.0,0.0,0.0,0.0,0.0,0.0,0.0,0.0,0.0,0.0,0.0,0.0,0.0,0.0,0.0,0.0,0.0,0.0,0.0,0.0,0.0,0.0,0.0,0.0,0.0,0.0,0.0,0.0,0.0,0.0,0.0,0.0,0.0,0.0,0.0,0.0,0.0,0.0,0.0,0.0,0.0,0.0,0.0,0.0,0.0,0.0,0.0,0.0,0.0,0.0,0.0,0.0,0.0,0.0,0.0,0.0,0.0,0.0,0.0,0.0,0.0,0.0,0.0,0.0,0.0,0.0,0.0,0.0,0.0,0.0,0.0,0.0,0.0,0.0,0.0,0.0,0.0,0.0,0.0,0.0,0.0,0.0,0.0,0.0,0.0,0.0,0.0,0.0,0.0,0.0,0.0,0.0,0.0,0.0,0.0,0.0,0.0,0.0,0.0,0.0,0.0,0.0,0.0,0.0,0.0,0.0,0.0,-2.1677,-2.1564,-2.1146,-2.1666,-2.3143,-2.4943,-2.5966,0.0,0.0,0.0,0.0,0.0,0.0,0.0,0.0,0.0,0.0,0.0,0.0,0.0,0.0,0.0,0.0,0.0,0.0,0.0,0.0,0.0,0.0,0.0,0.0,0.0,0.0,0.0,0.0,0.0,0.0,0.0,0.0,0.0,0.0,0.0,0.0,0.0,0.0,0.0,0.0,0.0,0.0,0.0,0.0,0.0,0.0,0.0,0.0,-2.7965,0.0,0.0,0.0,0.0,0.0,0.0,0.0,0.0,0.0,0.0,0.0,0.0,0.0,0.0,0.0,0.0,0.0,0.0,0.0,0.0,0.0,0.0,0.0,0.0,0.0,0.0,0.0,0.0,0.0,0.0,0.0,0.0,0.0,0.0,0.0,0.0,0.0,0.0,0.0,0.0,0.0,0.0,0.0,0.0,0.0,0.0,0.0,0.0,0.0,0.0,0.0,0.0,0.0,0.0,0.0,0.0,0.0,0.0,0.0,-2.0106,-1.9576,-1.982,-2.0519,-2.1733,-2.3729,-2.5124,0.0,0.0,0.0,0.0,0.0,0.0,0.0,0.0,0.0,0.0,0.0,0.0,0.0,0.0,0.0,0.0,0.0,0.0,0.0,0.0,0.0,0.0,0.0,0.0,0.0,0.0,0.0,0.0,0.0,0.0,0.0,0.0,0.0,0.0,0.0,0.0,0.0,0.0,0.0,0.0,0.0,0.0,0.0,0.0,0.0,0.0,0.0,0.0,0.0,0.0,0.0,0.0,0.0,0.0,0.0,0.0,0.0,0.0,0.0,0.0,0.0,0.0,0.0,0.0,0.0,0.0,0.0,0.0,0.0,0.0,0.0,0.0,0.0,0.0,0.0,0.0,0.0,0.0,0.0,0.0,0.0,0.0,0.0,0.0,0.0,0.0,0.0,0.0,0.0,0.0,0.0,0.0,0.0,0.0,0.0,0.0,0.0,0.0,0.0,0.0,0.0,0.0,0.0,0.0,0.0,0.0,0.0,-1.9009,-1.8649,-1.7648,-1.8714,-1.9479,-1.9996,-2.2102,-2.3952,-2.5517,0.0,0.0,0.0,0.0,0.0,0.0,0.0,0.0,0.0,0.0,0.0,0.0,0.0,0.0,0.0,0.0,0.0,0.0,0.0,0.0,0.0,0.0,0.0,0.0,0.0,0.0,0.0,0.0,0.0,0.0,0.0,0.0,0.0,0.0,0.0,0.0,0.0,0.0,-2.6174,-2.4984,0.0,0.0,0.0,0.0,0.0,0.0,0.0,0.0,-2.6416,0.0,0.0,0.0,0.0,0.0,0.0,0.0,0.0,0.0,0.0,0.0,0.0,0.0,0.0,0.0,0.0,0.0,0.0,0.0,0.0,0.0,0.0,0.0,0.0,0.0,0.0,0.0,0.0,0.0,0.0,0.0,0.0,0.0,0.0,0.0,0.0,0.0,0.0,0.0,0.0,0.0,0.0,0.0,0.0,0.0,0.0,0.0,0.0,0.0,0.0,0.0,0.0,0.0,0.0,0.0,0.0,-1.7277,-1.7414,-1.7051,-1.6079,-1.6917,-1.7919,-1.9,-2.0137,-2.1663,-2.3717,0.0,0.0,0.0,0.0,0.0,0.0,0.0,0.0,0.0,0.0,0.0,0.0,0.0,0.0,0.0,0.0,0.0,0.0,0.0,0.0,0.0,0.0,0.0,0.0,0.0,0.0,0.0,0.0,0.0,0.0,0.0,0.0,0.0,0.0,0.0,0.0,0.0,0.0,0.0,-2.3905,-2.345,0.0,0.0,0.0,0.0,0.0,0.0,0.0,0.0,-2.4987,0.0,0.0,0.0,0.0,0.0,0.0,0.0,0.0,0.0,0.0,0.0,0.0,0.0,0.0,0.0,0.0,0.0,0.0,0.0,0.0,0.0,0.0,0.0,0.0,0.0,0.0,0.0,0.0,0.0,0.0,0.0,0.0,0.0,0.0,0.0,0.0,0.0,0.0,0.0,0.0,0.0,0.0,0.0,0.0,0.0,0.0,0.0,0.0,0.0,0.0,0.0,0.0,0.0,0.0,0.0,-1.5817,-1.603,-1.5826,-1.518,-1.6705,-1.7905,-1.8654,-2.0193,-2.1629,0.0,0.0,0.0,0.0,0.0,0.0,0.0,0.0,0.0,0.0,0.0,0.0,0.0,0.0,0.0,0.0,0.0,0.0,0.0,0.0,0.0,0.0,0.0,0.0,0.0,0.0,0.0,0.0,0.0,0.0,0.0,0.0,0.0,0.0,0.0,0.0,0.0,0.0,0.0,0.0,-2.2472,-2.1866,-2.1105,0.0,0.0,0.0,0.0,0.0,0.0,-2.3485,-2.4108,0.0,0.0,0.0,0.0,0.0,0.0,0.0,0.0,0.0,0.0,0.0,0.0,0.0,0.0,0.0,0.0,0.0,0.0,0.0,0.0,0.0,0.0,0.0,0.0,0.0,0.0,0.0,0.0,0.0,0.0,0.0,0.0,0.0,0.0,0.0,0.0,0.0,0.0,0.0,0.0,0.0,0.0,0.0,0.0,0.0,0.0,0.0,0.0,0.0,0.0,0.0,0.0,0.0,0.0,0.0,-1.4615,-1.4934,-1.4899,-1.4482,-1.6555,-1.7843,-1.8295,-2.0267,-2.1761,0.0,0.0,0.0,0.0,0.0,0.0,0.0,0.0,0.0,0.0,0.0,0.0,0.0,0.0,0.0,0.0,0.0,0.0,0.0,0.0,0.0,0.0,0.0,0.0,0.0,0.0,0.0,0.0,0.0,0.0,0.0,0.0,0.0,0.0,0.0,0.0,0.0,0.0,0.0,0.0,0.0,-1.9974,-1.872,-1.9026,0.0,0.0,0.0,0.0,-2.0797,-2.2126,0.0,0.0,0.0,0.0,0.0,0.0,0.0,0.0,0.0,0.0,0.0,0.0,0.0,0.0,0.0,0.0,0.0,0.0,0.0,0.0,0.0,0.0,0.0,0.0,0.0,0.0,0.0,0.0,0.0,0.0,0.0,0.0,0.0,0.0,0.0,0.0,0.0,0.0,0.0,0.0,0.0,0.0,0.0,0.0,0.0,0.0,0.0,0.0,0.0,0.0,0.0,0.0,0.0,0.0,0.0,0.0,-1.4123,-1.429,-1.4163,-1.3702,-1.5191,-1.648,-1.7406,-1.8874,-2.0428,0.0,0.0,0.0,0.0,0.0,0.0,0.0,0.0,0.0,0.0,0.0,0.0,0.0,0.0,0.0,0.0,0.0,0.0,0.0,0.0,0.0,0.0,0.0,0.0,0.0,0.0,0.0,0.0,0.0,0.0,0.0,0.0,0.0,0.0,0.0,0.0,0.0,0.0,0.0,0.0,0.0,-1.8317,-1.7318,-1.7539,-1.7708,0.0,0.0,-1.8549,-1.9345,-1.9998,0.0,0.0,0.0,0.0,0.0,0.0,0.0,0.0,0.0,0.0,0.0,0.0,0.0,0.0,0.0,0.0,0.0,0.0,0.0,0.0,0.0,0.0,0.0,0.0,0.0,0.0,0.0,0.0,0.0,0.0,0.0,0.0,0.0,0.0,0.0,0.0,0.0,0.0,0.0,0.0,0.0,0.0,0.0,0.0,0.0,0.0,0.0,0.0,0.0,0.0,0.0,0.0,0.0,0.0,0.0,-1.3933,-1.3717,-1.3408,-1.3323,-1.3557,-1.4824,-1.5861,-1.6755,-1.8075,-1.9592,0.0,0.0,0.0,0.0,0.0,0.0,0.0,0.0,0.0,0.0,0.0,0.0,0.0,0.0,0.0,0.0,0.0,0.0,0.0,0.0,0.0,0.0,0.0,0.0,0.0,0.0,0.0,0.0,0.0,0.0,0.0,0.0,0.0,0.0,0.0,0.0,0.0,0.0,0.0,0.0,0.0,0.0,-1.6192,-1.6359,0.0,0.0,0.0,-1.792,-1.8096,0.0,0.0,0.0,0.0,0.0,0.0,0.0,0.0,0.0,0.0,0.0,0.0,0.0,0.0,0.0,0.0,0.0,0.0,0.0,0.0,0.0,0.0,0.0,0.0,0.0,0.0,0.0,0.0,0.0,0.0,0.0,0.0,0.0,0.0,0.0,0.0,0.0,0.0,0.0,0.0,0.0,0.0,0.0,0.0,0.0,0.0,0.0,0.0,0.0,0.0,0.0,0.0,0.0,0.0,0.0,0.0,0.0,-1.3459,-1.296,-1.3001,-1.3477,-1.4741,-1.5715,-1.6375,-1.7549,0.0,0.0,0.0,0.0,0.0,0.0,0.0,0.0,0.0,0.0,0.0,0.0,0.0,0.0,0.0,0.0,0.0,0.0,0.0,0.0,0.0,0.0,0.0,0.0,0.0,0.0,0.0,-2.8465,0.0,0.0,0.0,0.0,0.0,0.0,0.0,0.0,0.0,0.0,0.0,0.0,0.0,0.0,-1.5855,-1.4904,-1.5133,-1.5106,0.0,0.0,-1.7047,-1.6722,-1.768,-1.8531,0.0,0.0,0.0,0.0,0.0,0.0,0.0,0.0,0.0,0.0,0.0,0.0,0.0,0.0,0.0,0.0,0.0,0.0,0.0,0.0,0.0,0.0,0.0,0.0,0.0,0.0,0.0,0.0,0.0,0.0,0.0,0.0,0.0,0.0,0.0,0.0,0.0,0.0,0.0,0.0,0.0,0.0,0.0,0.0,0.0,0.0,0.0,0.0,0.0,0.0,0.0,0.0,0.0,0.0,0.0,-1.3289,-1.3409,-1.344,-1.3492,-1.4927,-1.5879,-1.643,-1.7426,-1.867,0.0,0.0,0.0,0.0,0.0,0.0,0.0,0.0,0.0,0.0,0.0,0.0,0.0,0.0,0.0,0.0,0.0,0.0,0.0,0.0,0.0,0.0,0.0,0.0,0.0,0.0,0.0,0.0,0.0,0.0,0.0,0.0,0.0,0.0,0.0,0.0,0.0,0.0,0.0,0.0,0.0,-1.5078,-1.3399,-1.3817,-1.3999,0.0,0.0,-1.5137,-1.5238,-1.5973,-1.6748,-1.7097,0.0,0.0,0.0,0.0,0.0,0.0,0.0,0.0,0.0,0.0,0.0,0.0,0.0,0.0,0.0,0.0,0.0,0.0,0.0,0.0,0.0,0.0,0.0,0.0,0.0,0.0,0.0,0.0,0.0,0.0,0.0,0.0,0.0,0.0,0.0,0.0,0.0,0.0,0.0,0.0,0.0,0.0,0.0,0.0,0.0,0.0,0.0,0.0,0.0,0.0,0.0,0.0,0.0,-1.3165,-1.3309,-1.3208,-1.3294,-1.3484,-1.4057,-1.4824,-1.5951,-1.6495,-1.7456,0.0,0.0,0.0,0.0,0.0,0.0,0.0,0.0,0.0,0.0,0.0,0.0,0.0,0.0,0.0,0.0,0.0,0.0,0.0,0.0,0.0,0.0,0.0,0.0,0.0,0.0,0.0,0.0,-2.4007,-2.2937,-2.1144,0.0,0.0,0.0,0.0,0.0,0.0,0.0,0.0,0.0,0.0,-1.3887,-1.3182,-1.331,0.0,0.0,-1.398,-1.4678,-1.4781,-1.5293,-1.5817,-1.6222,-1.6684,0.0,0.0,0.0,0.0,0.0,0.0,0.0,0.0,0.0,0.0,0.0,0.0,0.0,0.0,0.0,0.0,0.0,0.0,0.0,0.0,0.0,0.0,0.0,0.0,0.0,0.0,0.0,0.0,0.0,0.0,0.0,0.0,0.0,0.0,0.0,0.0,0.0,0.0,0.0,0.0,0.0,0.0,0.0,0.0,0.0,0.0,0.0,0.0,0.0,0.0,0.0,0.0,-1.3127,-1.3297,-1.3278,-1.3367,-1.3492,-1.3702,-1.441,-1.5675,-1.5974,-1.6735,0.0,0.0,0.0,0.0,0.0,0.0,0.0,0.0,0.0,0.0,0.0,0.0,0.0,0.0,0.0,0.0,0.0,0.0,0.0,0.0,0.0,0.0,0.0,0.0,0.0,0.0,0.0,0.0,-2.1425,-2.0125,-1.8219,0.0,0.0,0.0,0.0,0.0,0.0,0.0,0.0,0.0,0.0,-1.2992,-1.2733,-1.2725,-1.2784,-1.2803,-1.3532,-1.413,-1.4151,-1.4598,-1.5033,-1.5219,0.0,0.0,0.0,0.0,0.0,0.0,0.0,0.0,0.0,0.0,0.0,0.0,0.0,0.0,0.0,0.0,0.0,0.0,0.0,0.0,0.0,0.0,0.0,0.0,0.0,0.0,0.0,0.0,0.0,0.0,-1.8251,0.0,0.0,0.0,0.0,0.0,0.0,0.0,0.0,0.0,0.0,0.0,0.0,0.0,0.0,0.0,0.0,0.0,0.0,0.0,0.0,0.0,0.0,-1.3517,-1.3319,-1.3697,-1.3792,-1.3506,-1.4186,-1.4887,-1.5666,-1.6002,-1.6732,-1.7845,0.0,0.0,0.0,0.0,0.0,0.0,0.0,0.0,0.0,0.0,0.0,0.0,0.0,0.0,0.0,0.0,0.0,0.0,0.0,0.0,0.0,0.0,0.0,0.0,0.0,0.0,-2.0332,-1.8639,-1.732,0.0,0.0,0.0,0.0,0.0,0.0,0.0,0.0,0.0,0.0,-1.2496,-1.248,-1.1798,-1.1929,-1.2036,-1.2136,-1.2603,-1.3071,-1.3179,-1.3653,-1.4069,0.0,0.0,0.0,0.0,0.0,0.0,0.0,0.0,0.0,0.0,0.0,0.0,0.0,0.0,0.0,0.0,0.0,0.0,0.0,0.0,0.0,0.0,0.0,0.0,0.0,0.0,0.0,-1.722,-1.7324,0.0,0.0,0.0,0.0,0.0,0.0,0.0,0.0,0.0,0.0,0.0,-1.5989,-1.5782,0.0,0.0,0.0,0.0,0.0,0.0,0.0,0.0,0.0,0.0,0.0,0.0,-1.3546,-1.3712,-1.3734,-1.3601,-1.3499,-1.3775,-1.4186,-1.4958,-1.5047,-1.565,-1.6776,0.0,0.0,0.0,0.0,0.0,0.0,0.0,0.0,0.0,0.0,0.0,0.0,0.0,0.0,0.0,0.0,0.0,0.0,0.0,0.0,0.0,0.0,0.0,0.0,0.0,-1.8343,0.0,0.0,0.0,0.0,0.0,0.0,0.0,0.0,0.0,0.0,0.0,-1.1688,-1.0523,-1.0937,-1.1138,-1.0791,-1.0958,-1.1293,0.0,0.0,0.0,0.0,0.0,0.0,0.0,0.0,0.0,0.0,0.0,0.0,0.0,0.0,-2.1095,-2.2237,-2.2402,-2.2465,-2.2678,0.0,0.0,0.0,0.0,0.0,0.0,0.0,0.0,0.0,0.0,0.0,0.0,0.0,0.0,-1.6455,0.0,-1.6502,0.0,0.0,0.0,0.0,0.0,0.0,0.0,0.0,-1.5955,-1.5771,-1.5701,-1.5505,-1.4894,0.0,-1.3931,-1.3593,0.0,0.0,0.0,0.0,0.0,0.0,0.0,0.0,-1.3609,-1.3724,-1.3718,-1.3609,-1.3499,-1.3492,-1.384,-1.453,-1.4695,-1.524,-1.6206,-1.6133,-1.6534,0.0,0.0,0.0,0.0,0.0,0.0,0.0,0.0,0.0,0.0,0.0,0.0,0.0,0.0,0.0,0.0,0.0,0.0,0.0,0.0,0.0,0.0,0.0,-1.5753,0.0,0.0,0.0,0.0,0.0,0.0,0.0,0.0,0.0,-1.1017,-1.0706,-1.0168,-0.937,-0.9703,-0.9962,-0.9785,0.0,0.0,0.0,0.0,0.0,0.0,0.0,-1.2024,-1.2224,-1.2692,-1.3309,-1.4184,-1.585,-1.6986,-1.6928,0.0,0.0,-2.0555,-2.1043,-2.1115,-2.1267,-2.1123,-2.1016,-2.1147,-2.0849,-2.0615,0.0,0.0,0.0,0.0,0.0,0.0,0.0,0.0,-1.4995,-1.5165,0.0,-1.552,0.0,0.0,0.0,0.0,0.0,-1.5661,0.0,0.0,-1.4801,-1.486,-1.5225,-1.4705,-1.408,-1.341,-1.3551,-1.3081,-1.2105,-1.1764,0.0,0.0,0.0,0.0,0.0,0.0,-1.3732,-1.3184,-1.365,-1.3799,-1.3499,-1.3492,-1.384,-1.453,-1.4858,-1.5342,-1.6087,-1.5705,-1.5994,-1.7054,-1.7237,0.0,0.0,0.0,0.0,0.0,0.0,0.0,0.0,0.0,0.0,0.0,0.0,0.0,0.0,0.0,0.0,0.0,0.0,0.0,0.0,-1.375,0.0,0.0,0.0,0.0,0.0,0.0,0.0,0.0,0.0,0.0,-0.9966,-0.9519,-0.9052,-0.8886,0.0,0.0,0.0,0.0,-0.9153,-0.944,-0.9776,-1.0013,-1.0125,-1.0749,-1.1076,-1.0604,0.0,0.0,-1.3988,-1.5095,-1.586,-1.603,-1.6352,-1.7,-1.8574,-1.9234,-1.9552,-1.9543,-1.9622,-1.9645,-1.9841,-1.9809,-1.9645,-0.9714,0.0,0.0,0.0,0.0,-1.336,-1.3863,-1.4474,-1.4696,-1.4789,-1.4938,-1.4794,0.0,0.0,0.0,0.0,0.0,0.0,-1.5178,-1.5138,-1.5143,-1.4817,-1.4191,-1.4026,-1.3419,-1.2437,-1.2444,-1.2038,-1.1353,-1.1055,-1.1123,-1.1633,0.0,0.0,0.0,0.0,-1.2434,-1.2494,-1.2845,-1.2987,-1.2896,-1.3317,-1.3564,-1.384,-1.3894,-1.4151,-1.4651,-1.4496,-1.4655,-1.5179,-1.5378,0.0,0.0,0.0,0.0,0.0,0.0,0.0,0.0,0.0,0.0,0.0,0.0,0.0,0.0,0.0,0.0,0.0,0.0,0.0,-1.2877,-1.202,-1.1662,0.0,0.0,0.0,0.0,0.0,0.0,0.0,0.0,0.0,-0.7812,-0.8231,-0.8229,0.0,0.0,-0.7925,-0.7925,-0.7741,-0.7843,-0.8508,-0.8367,0.0,-0.9146,-0.9187,-0.9181,-0.9339,-1.0474,-1.1793,-1.2945,-1.4102,-1.4904,-1.4679,-1.5412,-1.6197,-1.6436,-1.7446,-1.8237,-1.8347,-1.8588,-1.9015,-1.9493,-1.9254,-1.9092,-0.7598,-0.8042,-0.9423,-1.058,-1.1541,-1.1933,-1.2421,-1.2952,-1.3206,-1.3451,-1.3522,-1.3701,-1.3933,-1.4226,-1.4446,0.0,0.0,0.0,-1.4808,-1.4648,-1.4799,-1.4447,-1.3702,-1.3588,-1.2962,-1.1899,-1.2041,-1.1642,-1.0842,-1.0748,-1.0874,-1.1218,0.0,0.0,-1.1803,-1.1753,-1.1916,-1.222,-1.2446,-1.2691,-1.2983,-1.3317,-1.3492,-1.3492,-1.3492,-1.375,-1.4237,-1.4095,-1.4169,-1.449,-1.4442,-1.4469,0.0,0.0,0.0,0.0,0.0,0.0,0.0,0.0,0.0,0.0,0.0,-1.5424,-1.5167,0.0,0.0,0.0,-1.2444,-1.1701,-1.0817,-1.0236,0.0,0.0,0.0,0.0,0.0,0.0,0.0,-0.829,-0.7334,-0.6552,-0.6396,-0.7013,-0.7235,-0.6596,-0.6789,-0.6962,-0.7048,0.0,-0.6995,-0.7531,-0.7465,-0.752,-0.8061,-0.8127,-0.8228,-0.8945,-0.9673,-1.0529,-1.1326,-1.2439,-1.3058,-1.3012,-1.3749,-1.4453,-1.4314,-1.5447,-1.6465,-1.6815,-1.7083,-1.753,-1.7978,-1.7803,-1.7717,-0.5724,-0.5805,-0.8345,-0.9744,-1.0183,-1.0702,-1.0869,-1.1042,-1.1209,-1.137,-1.1707,-1.2298,-1.279,-1.3174,-1.4005,0.0,-1.3973,-1.4159,-1.3973,-1.3757,-1.3913,-1.3818,-1.3453,-1.328,-1.2672,-1.1792,-1.2014,-1.1648,-1.0686,-1.0787,-1.0667,-1.0283,-1.0729,-1.0977,-1.1141,-1.1663,-1.198,-1.2264,-1.2459,-1.2893,-1.3499,-1.3492,-1.3492,-1.3492,-1.3492,-1.3825,-1.4411,-1.412,-1.4054,-1.4336,-1.4,-1.3763,-1.3563,0.0,0.0,0.0,0.0,0.0,0.0,0.0,0.0,0.0,0.0,0.0,0.0,0.0,0.0,0.0,-0.9855,0.0,-0.8641,-0.8538,0.0,0.0,0.0,-0.8722,-0.8341,-0.7973,-0.7486,-0.6849,0.0,0.0,-0.5594,-0.5886,-0.6171,-0.6036,-0.606,-0.6154,-0.6325,-0.6326,-0.6321,-0.6563,-0.6759,-0.685,-0.6895,-0.7241,-0.7854,-0.8736,-0.9013,-0.9207,-0.9742,-1.0371,-1.0861,-1.1023,-1.1615,-1.2183,-1.2427,-1.3121,-1.3975,-1.4809,-1.5253,-1.5516,-1.6011,-1.5905,-1.6071,-0.4665,-0.4734,-0.5349,-0.7024,-0.9235,-0.9492,-1.0183,-1.1031,-1.1032,-1.1126,-1.1193,-1.126,-1.1156,-1.1044,-1.1013,-1.1152,-1.1286,-1.2072,-1.2184,-1.1652,-1.2955,-1.3002,-1.1848,-1.2415,-1.2454,-1.1983,-1.2075,-1.1805,-1.133,-1.1187,-1.0838,-1.0355,-1.0171,-1.0425,-1.0893,-1.1477,-1.1795,-1.1838,-1.2318,-1.2893,-1.3492,-1.3492,-1.3492,-1.3492,-1.3492,-1.3447,-1.3409,-1.3319,-1.3013,-1.2633,-1.2527,-1.233,-1.1864,-1.2174,0.0,0.0,0.0,0.0,0.0,0.0,0.0,0.0,0.0,-1.1009,-1.0718,0.0,-0.8992,0.0,-0.8219,-0.7893,-0.807,-0.7737,0.0,0.0,-0.7316,-0.7087,-0.6809,-0.6397,-0.6074,-0.5914,-0.5605,-0.5407,-0.5502,-0.5485,-0.5482,-0.5524,-0.5789,-0.5935,-0.6019,-0.5789,-0.5667,-0.5761,-0.5766,-0.5749,-0.5846,-0.5896,-0.6466,-0.7632,-0.7803,-0.8197,-0.9311,-0.9712,-0.9881,-0.9876,-1.0039,-1.0147,-1.0285,-1.0942,-1.1519,-1.1933,-1.3534,-1.5168,-1.541,-1.5321,-1.5397,-0.3899,-0.4374,-0.4775,-0.6156,-0.8005,-0.7971,-0.8566,-0.9519,-0.9752,-0.974,-0.9722,-1.0416,-1.0685,-1.0548,-1.0734,-1.0751,-1.0554,-1.1123,-1.1197,-1.0831,-1.1678,-1.1552,-1.0562,-1.0918,-1.0942,-1.0631,-1.056,-1.0479,-1.0293,-1.0324,-1.0193,-0.9895,-1.0138,-1.0438,-1.0812,-1.0893,-1.1123,-1.1658,-1.2016,-1.2372,-1.2673,-1.268,-1.2753,-1.2973,-1.298,-1.2905,-1.2664,-1.265,-1.2296,-1.1615,-1.1579,-1.1309,-1.0884,-1.108,-1.119,0.0,0.0,0.0,0.0,0.0,0.0,0.0,0.0,0.0,0.0,0.0,-0.7368,-0.7385,-0.686,-0.6693,-0.7265,-0.6859,-0.6556,-0.6497,-0.6177,-0.5941,-0.5709,-0.5479,-0.5326,-0.5326,-0.5171,-0.5042,-0.5263,-0.5236,-0.5211,-0.5279,-0.5507,-0.5655,-0.5619,-0.549,-0.5371,-0.5371,-0.5371,-0.5371,-0.5371,-0.5371,-0.5702,-0.6526,-0.6774,-0.7083,-0.7983,-0.8447,-0.8689,-0.8774,-0.9096,-0.937,-0.9533,-0.9806,-1.0212,-1.0778,-1.1816,-1.3088,-1.394,-1.3974,-1.3978,-0.3151,-0.3984,-0.4779,-0.5689,-0.6478,-0.6234,-0.6647,-0.7569,-0.7974,-0.8117,-0.8024,-0.9555,-1.0274,-1.0429,-1.1232,-1.1152,-1.0429,-1.0589,-1.0589,-1.0333,-1.0293,-1.0046,-0.9574,-0.9464,-0.9221,-0.8927,-0.8927,-0.8851,-0.8851,-0.916,-0.9322,-0.9246,-1.0143,-1.0669,-1.0663,-1.0143,-1.0519,-1.1632,-1.1706,-1.1706,-1.1706,-1.1706,-1.1855,-1.215,-1.2191,-1.2111,-1.2043,-1.1988,-1.1641,-1.091,-1.0797,-1.0627,-1.0193,-1.0168,-1.0047,0.0,-0.9843,0.0,0.0,0.0,0.0,0.0,0.0,0.0,0.0,-0.5861,-0.6019,-0.6254,-0.5507,-0.5252,-0.6002,-0.5702,-0.5395,-0.5243,-0.5007,-0.4851,-0.4701,-0.4701,-0.4701,-0.4701,-0.4701,-0.4704,-0.4631,-0.4783,-0.4839,-0.4758,-0.4683,-0.4799,-0.4964,-0.5146,-0.5306,-0.5325,-0.5322,-0.5295,-0.5303,-0.5311,-0.5476,-0.5894,-0.5964,-0.6106,-0.6464,-0.7077,-0.7549,-0.7711,-0.8186,-0.8709,-0.9043,-0.9143,-0.9541,-1.0168,-1.0431,-1.0941,-1.2176,-1.2356,-1.24,-0.1724,-0.1874,-0.2034,-0.3042,-0.4557,-0.4739,-0.5832,-0.7401,-0.7508,-0.7589,-0.7586,-0.797,-0.8121,-0.8198,-0.8966,-0.8894,-0.8198,-0.9494,-0.9341,-0.8198,-0.9372,-0.9656,-0.9209,-0.9765,-1.0115,-1.019,-1.019,-0.9895,-0.9448,-0.9523,-0.9306,-0.8856,-0.9316,-0.9846,-1.0293,0.0,0.0,0.0,-1.1706,-1.1706,-1.1706,-1.1706,-1.1713,-1.1774,-1.1636,0.0,-1.1184,-1.0808,-1.0454,-1.0072,-0.9848,0.0,0.0,0.0,0.0,0.0,0.0,0.0,0.0,0.0,0.0,0.0,-0.3646,-0.3628,-0.3916,-0.3763,-0.3551,-0.3561,-0.3414,-0.3267,-0.3279,-0.3205,-0.3129,-0.3129,-0.3051,-0.2973,-0.2973,-0.2973,-0.2973,-0.2973,-0.2973,-0.2974,-0.2974,-0.2986,-0.3072,-0.3154,-0.2992,-0.2997,-0.3094,-0.4218,-0.501,-0.5083,-0.4941,-0.501,-0.5086,-0.5015,-0.5102,-0.5556,-0.571,-0.5786,-0.6159,-0.6383,-0.6532,-0.6617,-0.6765,-0.685,-0.6969,-0.7426,-0.8143,-0.8899,-0.9561,-1.0362,-1.1462,-1.1771,-1.1864,-0.1178,0.0,-0.191,-0.2726,0.0,-0.4121,-0.4991,-0.6388,-0.7031,-0.7336,-0.7411,-0.7863,-0.7863,-0.7561,-0.8322,-0.8246,-0.7557,-0.8313,-0.8188,-0.7434,-0.8173,-0.8342,-0.8029,-0.8491,-0.8762,-0.8837,-0.8939,-0.8841,-0.8613,-0.877,-0.8703,-0.8403,-0.8784,-0.916,-0.9463,-0.9544,-0.9997,-1.0812,-1.0812,-1.0818,-1.0812,-1.0818,-1.0887,-1.1105,0.0,0.0,0.0,0.0,0.0,0.0,0.0,0.0,0.0,0.0,0.0,-0.6631,-0.5926,-0.5256,-0.4627,-0.392,-0.3213,-0.2454,-0.132,-0.1083,-0.2107,-0.1753,-0.1623,-0.2029,-0.2034,-0.2034,-0.1874,-0.1875,-0.1717,-0.1327,-0.1249,-0.1249,-0.1248,-0.1249,-0.1248,-0.1327,-0.1639,-0.1874,-0.1952,-0.2267,-0.2503,-0.2503,-0.2503,-0.2425,-0.2582,-0.3209,-0.3756,-0.3759,-0.3756,-0.3759,-0.3756,-0.3837,-0.3992,-0.4304,-0.4462,-0.4618,-0.5004,-0.5082,-0.5082,-0.5082,-0.5082,-0.516,-0.5631,-0.6012,-0.6626,-0.7787,-0.8399,-0.9185,-1.0384,-1.1133,-1.1632,-0.0658,-0.1406,-0.2032,-0.274,-0.3622,-0.3704,-0.4207,-0.5123,0.0,0.0,0.0,-0.7977,-0.8058,-0.7553,-0.8282,-0.8192,-0.7512,-0.7551,-0.7463,-0.7179,-0.7179,-0.7098,-0.7036,-0.7106,-0.7179,-0.7188,-0.7354,-0.7439,-0.7439,-0.7851,-0.8025,-0.8025,-0.8362,-0.8571,-0.8647,-0.903,-0.9352,-0.9533,-0.9771,-0.9841,-0.9695,-0.969,-0.9744,-0.9921,-0.9694,-0.9235,-0.8429,-0.8215,-0.755,-0.6465,-0.6392,-0.6322,-0.6183,-0.5519,-0.5052,-0.4777,-0.4109,-0.3421,-0.2853,-0.1995,-0.1321,-0.0701,0.0622,0.1012,-0.0234,0.0157,0.0157,-0.0546,-0.0625,-0.0625,-0.0623,-0.0623,-0.0312,0.039,0.0468,0.0468,0.0467,0.0468,0.0468,0.039,-0.0156,-0.0623,-0.0546,-0.1093,-0.1641,-0.1563,-0.1328,-0.1641,-0.172,-0.2111,-0.266,-0.266,-0.2817,-0.266,-0.2582,-0.2817,-0.2896,-0.3288,-0.3368,-0.3522,-0.3754,-0.3832,-0.3832,-0.3988,-0.3832,-0.4144,-0.4691,-0.4846,-0.5386,-0.6934,-0.7322,-0.7778,-0.9311,-1.0363,-1.1031,0.041,0.0238,-0.0395,-0.1182,-0.1964,-0.2519,-0.3181,-0.4089,-0.5849,-0.6449,-0.615,-0.6862,-0.7338,-0.7548,-0.8137,-0.7986,-0.7323,-0.7825,-0.7727,-0.7064,-0.7064,-0.7048,-0.6956,-0.7052,-0.7064,-0.7005,-0.7179,-0.7261,-0.7277,-0.7491,-0.7561,-0.7617,-0.7776,-0.8069,-0.8444,-0.8808,-0.8822,-0.838,-0.9387,-0.9539,-0.8856,-0.8851,-0.8534,-0.7764,-0.75,-0.7016,-0.6199,-0.5843,-0.5216,-0.4455,-0.4259,-0.4193,-0.432,-0.3668,-0.3383,-0.3608,-0.2938,-0.2225,-0.1578,-0.0756,0.0303,0.167,0.2051,0.2069,0.2029,0.2112,0.2112,0.1954,0.1874,0.1955,0.1954,0.1874,0.1951,0.211,0.2109,0.2188,0.2188,0.211,0.2188,0.211,0.2032,0.1876,0.1797,0.172,0.1484,0.1641,0.125,0.1641,0.1094,-0.0703,-0.2268,-0.2503,-0.266,-0.2738,-0.2426,-0.2896,-0.2896,-0.329,-0.3212,-0.3288,-0.3519,-0.3599,-0.3599,-0.3752,-0.3599,-0.3754,-0.391,-0.3988,-0.4606,-0.5922,-0.6304,-0.6842,-0.8385,-0.8998,-0.9674,0.1223,0.1121,0.048,0.0,-0.0399,-0.118,-0.1622,-0.2035,-0.3636,-0.4527,-0.4944,-0.5852,-0.6306,-0.6511,-0.7317,-0.7492,-0.722,-0.7466,-0.738,-0.7015,-0.6925,-0.6761,-0.6676,-0.6826,-0.6876,-0.683,-0.7098,-0.7224,-0.724,-0.7399,-0.7435,-0.7338,-0.7086,-0.6989,-0.7207,-0.7424,-0.7285,-0.7009,-0.8481,-0.8613,-0.7371,-0.7354,-0.6958,-0.6064,-0.5769,-0.5332,-0.4579,-0.4263,-0.3737,-0.3006,-0.2874,-0.2874,-0.2939,-0.2277,-0.1832,-0.1529,-0.0838,-0.0142,0.0517,0.0887,0.1626,0.2739,0.2886,0.3268,0.4054,0.2933,0.2498,0.2988,0.2686,0.2626,0.3122,0.3093,0.3317,0.3832,0.3791,0.3782,0.3826,0.3837,0.3837,0.3834,0.3443,0.3205,0.3207,0.2815,0.2503,0.2503,0.2503,0.2503,0.2581,0.125,0.0156,-0.0078,-0.0235,-0.0313,-0.0548,-0.0783,-0.1097,-0.1489,-0.1646,-0.1881,-0.235,-0.2429,-0.243,-0.2429,-0.2429,-0.2663,-0.2976,-0.3054,-0.3675,-0.4525,-0.4913,-0.5452,-0.6447,-0.7443,-0.8969,0.2184,0.2094,0.1288,0.0806,0.0644,0.0,-0.0231,-0.0225,-0.132,-0.2235,-0.3141,-0.4512,-0.5259,-0.5428,-0.6118,-0.6531,-0.6554,-0.6552,-0.6475,-0.646,-0.6344,-0.621,-0.6106,-0.6217,-0.6275,-0.6317,-0.6591,-0.6753,-0.6807,-0.6957,-0.6953,-0.6718,-0.6255,-0.5884,-0.5664,-0.581,-0.5659,-0.5347,-0.6734,-0.6889,-0.5695,-0.5666,-0.5285,-0.4481,-0.4182,-0.3735,-0.3099,-0.2838,-0.2275,-0.1475,-0.1408,-0.1274,-0.1139,-0.0671,-0.0136,0.0483,0.1108,0.1894,0.2657,0.2753,0.3114,0.3958,0.403,0.4448,0.521,0.3994,0.3256,0.3941,0.3761,0.3642,0.4199,0.431,0.4535,0.5257,0.5269,0.5266,0.5375,0.5401,0.5401,0.5323,0.4846,0.4528,0.4219,0.3828,0.3671,0.3671,0.3515,0.3515,0.3515,0.3437,0.3283,0.2815,0.2271,0.1568,0.1412,0.0942,0.055,0.0157,-0.0079,-0.0393,-0.0785,-0.0943,-0.11,-0.1178,-0.1257,-0.1649,-0.2119,-0.2196,-0.2586,-0.3363,-0.3599,-0.3828,-0.475,-0.613,-0.796,0.3601,0.3377,0.2126,0.118,0.0709,0.055,0.0535,0.0514,0.0365,0.0213,-0.034,-0.2768,-0.4109,-0.4393,-0.4663,-0.4842,-0.4853,-0.4984,-0.5001,-0.5075,-0.4973,-0.4957,-0.5014,-0.4964,-0.4967,-0.4992,-0.5202,-0.5345,-0.5391,-0.559,-0.559,-0.5387,-0.5246,-0.4821,-0.4327,-0.4533,-0.4097,-0.2973,-0.3634,-0.3974,-0.3986,-0.3909,-0.3532,-0.2606,-0.2521,-0.2141,-0.1351,-0.1345,-0.0671,0.0672,0.0739,0.1074,0.1609,0.1744,0.1813,0.1952,0.2423,0.333,0.453,0.4711,0.5077,0.5745,0.5793,0.5812,0.5896,0.5677,0.5658,0.5898,0.6082,0.5952,0.5999,0.5895,0.5954,0.6176,0.6328,0.6464,0.659,0.671,0.6707,0.671,0.6475,0.6398,0.578,0.5928,0.6314,0.6157,0.6227,0.623,0.6157,0.6005,0.5848,0.5146,0.3515,0.1958,0.1724,0.1099,0.0942,0.0707,0.055,0.0471,0.0236,-0.0157,-0.0393,-0.0471,-0.0786,-0.1178,-0.1335,-0.1414,-0.1727,-0.2195,-0.2585,-0.282,-0.375,-0.467,-0.6203,0.4591,0.455,0.3914,0.3249,0.2504,0.1931,0.1431,0.1166,0.1003,0.0767,0.0472,-0.0543,-0.1381,-0.2188,-0.2793,-0.3321,-0.3772,-0.3911,-0.4219,-0.468,-0.4757,-0.4812,-0.4812,-0.4812,-0.4616,-0.4212,-0.44,-0.4277,-0.3954,-0.3932,-0.3719,-0.3393,-0.3239,-0.2924,-0.2447,-0.217,-0.1581,-0.0778,-0.0564,-0.0284,-0.0143,-0.1512,-0.1428,0.007,-0.0069,0.0068,0.0672,0.0805,0.1074,0.1611,0.1812,0.208,0.2547,0.2678,0.3008,0.3673,0.4662,0.5477,0.6081,0.6483,0.6827,0.7154,0.7154,0.725,0.7512,0.7678,0.7855,0.7966,0.706,0.6261,0.6279,0.6142,0.622,0.6364,0.6404,0.6618,0.6701,0.6885,0.6865,0.6865,0.6865,0.6861,0.6707,0.7157,0.754,0.7689,0.7986,0.8138,0.7761,0.7464,0.746,0.7367,0.5594,0.4062,0.3597,0.3443,0.2818,0.2193,0.1881,0.1803,0.0864,0.0471,0.0236,0.0236,-0.0079,-0.0393,-0.0629,-0.0707,-0.0864,-0.1177,-0.0941,-0.1019,-0.2267,-0.3042,-0.4356,0.6301,0.6073,0.5836,0.5361,0.4624,0.4047,0.3419,0.2805,0.2564,0.2371,0.2232,0.2312,0.1996,0.1185,-0.0553,-0.1766,-0.2261,-0.2532,-0.2936,-0.3486,-0.3621,-0.368,-0.3813,-0.3779,-0.3506,-0.3109,-0.3177,-0.2965,-0.2499,-0.2439,-0.2159,-0.1596,-0.1423,-0.1003,-0.0401,0.0134,0.0742,0.1511,0.2062,0.2679,0.3162,0.1512,0.1033,0.2342,0.2232,0.2339,0.2806,0.2874,0.2874,0.2943,0.3145,0.3347,0.368,0.4005,0.4725,0.5778,0.6824,0.7483,0.7618,0.8071,0.8323,0.8323,0.8329,0.8581,0.9058,0.9332,0.961,0.9868,0.8532,0.7644,0.7082,0.7074,0.7078,0.7176,0.7315,0.7507,0.7781,0.789,0.8152,0.8075,0.8309,0.8075,0.8152,0.8519,0.8737,0.9049,0.9422,0.9637,0.9044,0.8822,0.8893,0.9336,0.7977,0.6685,0.577,0.4921,0.4455,0.3908,0.3365,0.3052,0.1881,0.1646,0.1256,0.1411,0.102,0.055,0.0079,-0.0079,0.0078,0.0079,0.0314,0.0392,-0.0783,-0.1407,-0.2265,0.937,0.8438,0.7668,0.712,0.6814,0.6949,0.6741,0.5859,0.5565,0.5739,0.6067,0.5672,0.5755,0.5965,0.198,0.0,-0.007,-0.0341,-0.0546,-0.0836,-0.0883,-0.1074,-0.1274,-0.1242,-0.1226,-0.0971,-0.1165,-0.1194,-0.1113,-0.1188,-0.0908,-0.0208,-0.0068,0.0602,0.1738,0.2004,0.2739,0.3887,0.402,0.4607,0.5657,0.4985,0.4259,0.4008,0.4254,0.4572,0.4704,0.4707,0.4844,0.5127,0.519,0.5332,0.5745,0.6388,0.7284,0.8318,0.8639,0.8907,0.9372,0.9564,0.9564,0.9512,0.9691,0.9755,1.0481,1.0577,1.0829,1.1327,1.1169,1.0528,0.9578,0.9262,0.9326,0.9475,0.9861,1.0102,1.0289,1.0262,1.0858,1.0697,1.0456,1.0473,1.072,1.0404,1.0473,1.0789,1.1031,1.1093,1.1013,1.0858,1.0703,1.0703,1.0248,0.9422,0.7218,0.6458,0.5616,0.5074,0.5146,0.4844,0.4377,0.383,0.3207,0.2506,0.1881,0.1334,0.0785,0.0628,0.0782,0.0938,0.1096,0.094,0.0627,0.0549,-0.047,1.1089,1.0071,0.9295,0.8651,0.808,0.7571,0.707,0.6662,0.6286,0.631,0.6835,0.843,0.825,0.6471,0.4885,0.3944,0.3598,0.3235,0.2867,0.247,0.2209,0.1981,0.1781,0.1376,0.1568,0.2087,0.1419,0.1166,0.1587,0.1617,0.1767,0.1967,0.2018,0.2541,0.3405,0.3931,0.4662,0.5588,0.6302,0.6959,0.7478,0.7911,0.796,0.7703,0.6521,0.6205,0.6685,0.6932,0.7187,0.727,0.7395,0.7658,0.806,0.8948,0.9705,1.0153,1.0947,1.1497,1.1705,1.2097,1.2358,1.2366,1.2366,1.2419,1.2663,1.2655,1.2647,1.283,1.2846,1.2496,1.2058,1.1301,1.0829,1.0889,1.1084,1.1136,1.0869,1.0962,1.0929,1.0622,1.0665,1.1059,1.1717,1.1687,1.1829,1.2478,1.2997,1.3288,1.3208,1.2677,1.2245,1.2405,1.1304,1.004,0.9884,0.8974,0.821,0.7443,0.7061,0.6367,0.5829,0.5143,0.4445,0.4349,0.3501,0.3013,0.2843,0.2591,0.2594,0.2683,0.2769,0.2489,0.2193,0.1956,0.086,1.4315,1.3618,1.2899,1.2213,1.1631,1.1075,1.0602,1.0073,0.8642,0.8448,0.9592,1.1115,1.0529,0.8733,0.8522,0.828,0.7662,0.6269,0.5222,0.4727,0.4531,0.4313,0.4019,0.3675,0.3938,0.4607,0.408,0.389,0.4266,0.4344,0.4515,0.4719,0.4716,0.5114,0.5771,0.6294,0.6885,0.7603,0.8388,0.8843,0.9175,1.0116,1.0613,1.0474,0.9472,0.8775,0.8779,0.9273,0.9509,0.9503,0.992,1.0401,1.1008,1.1767,1.2279,1.2522,1.3254,1.374,1.3749,1.42,1.4464,1.4414,1.4464,1.4523,1.4718,1.4591,1.4641,1.4758,1.4768,1.4728,1.4532,1.3877,1.3014,1.248,1.2508,1.2519,1.1992,1.2248,1.2229,1.1929,1.2096,1.2487,1.305,1.3317,1.378,1.4411,1.4863,1.5013,1.5387,1.4625,1.3981,1.4498,1.3186,1.2398,1.2131,1.1694,1.0081,0.9178,0.8595,0.7849,0.7219,0.6481,0.603,0.5937,0.574,0.5304,0.5027,0.4751,0.4754,0.4856,0.4616,0.4365,0.3863,0.3354,0.2334,1.938,1.8966,1.8651,1.7755,1.7154,1.7193,1.7496,1.6013,1.3074,1.2846,1.4122,1.3371,1.2759,1.2743,1.2476,1.2586,1.1593,0.8695,0.685,0.6331,0.635,0.6174,0.5843,0.5835,0.5923,0.6315,0.6585,0.6746,0.6788,0.681,0.7081,0.7742,0.7742,0.8073,0.8948,0.9,0.933,0.9964,1.0273,1.0551,1.1031,1.1811,1.2235,1.2243,1.2882,1.2631,1.1212,1.1695,1.1851,1.1705,1.2619,1.372,1.428,1.4638,1.4955,1.533,1.5531,1.5494,1.5456,1.5608,1.578,1.5676,1.5618,1.6007,1.6388,1.6409,1.6578,1.688,1.7002,1.7069,1.7013,1.6824,1.5955,1.4112,1.4362,1.455,1.4247,1.4716,1.51,1.4467,1.4505,1.501,1.5121,1.5187,1.5592,1.6145,1.6156,1.6276,1.7071,1.6282,1.6009,1.6026,1.5063,1.4081,1.4253,1.4323,1.231,1.0599,1.0087,0.9485,0.8866,0.8185,0.7668,0.7495,0.7385,0.7013,0.7216,0.7016,0.6964,0.6953,0.6544,0.6279,0.5838,0.5269,0.4407,2.2176,2.1284,2.0737,1.9823,1.8862,1.8848,1.8332,1.7496,1.6722,1.6463,1.6012,1.5321,1.4916,1.4721,1.435,1.4361,1.4464,1.2789,1.1502,1.0438,1.012,0.9867,0.959,0.9048,0.8506,0.8269,0.8477,0.8798,0.8966,0.9,0.9259,0.9881,0.9994,1.0325,1.1029,1.1377,1.1981,1.2611,1.3373,1.3688,1.363,1.439,1.4702,1.4378,1.5013,1.51,1.4625,1.4368,1.4209,1.4132,1.4849,1.5615,1.6206,1.6708,1.7148,1.7679,1.8142,1.8313,1.8272,1.8272,1.826,1.8272,1.8272,1.8378,1.8519,1.8437,1.8384,1.846,1.8365,1.8258,1.8078,1.8035,1.7412,1.6213,1.629,1.6257,1.5704,1.5496,1.5368,1.5386,1.5482,1.5659,1.5836,1.6076,1.6542,1.7229,1.7341,1.77,1.7994,1.7621,1.6741,1.6607,1.5803,1.5468,1.5517,1.538,1.4114,1.2593,1.1812,1.116,1.0578,1.0225,0.9647,0.9195,0.9056,0.9007,0.9175,0.9181,0.9138,0.9114,0.8964,0.8568,0.7957,0.7127,0.6218,2.5675,2.454,2.4022,2.3085,2.193,2.177,2.1367,2.0784,2.0966,2.0256,1.9037,1.8576,1.8001,1.7383,1.6954,1.6845,1.6905,1.68,1.5839,1.4194,1.2979,1.2546,1.2367,1.2116,1.1845,1.1698,1.1861,1.2103,1.2192,1.205,1.2232,1.2742,1.2647,1.2998,1.3753,1.4136,1.4619,1.5051,1.5632,1.5719,1.5531,1.6279,1.6637,1.6423,1.7004,1.7433,1.7422,1.728,1.6905,1.6581,1.7225,1.8016,1.8577,1.9019,1.9354,1.961,1.994,2.0129,2.0142,2.0204,2.0254,2.0167,2.0254,2.0254,2.0116,1.9953,1.9788,1.9851,1.9531,1.9325,1.9337,1.9141,1.8891,1.8655,1.8155,1.7818,1.7357,1.6826,1.6595,1.6833,1.6974,1.7054,1.7202,1.7481,1.7838,1.855,1.8685,1.9144,1.9272,1.8879,1.8312,1.7789,1.7585,1.7213,1.6635,1.623,1.5675,1.4646,1.3664,1.3006,1.2314,1.2236,1.1934,1.1556,1.1355,1.1088,1.1163,1.112,1.1088,1.1182,1.1116,1.0387,0.9592,0.8707,0.7776,2.941,2.8631,2.7994,2.701,2.6114,2.5928,2.5558,2.5625,2.4811,2.3748,2.2962,2.2095,2.1457,2.061,2.0201,1.9894,1.9641,1.986,1.9068,1.7183,1.5541,1.4462,1.3836,1.4491,1.5038,1.5577,1.5801,1.6053,1.5925,1.5548,1.581,1.6136,1.5749,1.6007,1.6752,1.7093,1.7148,1.7191,1.7323,1.717,1.6727,1.7596,1.8147,1.8093,1.9031,1.961,1.9661,2.0078,1.9737,1.8584,1.9597,2.0542,2.1245,2.1465,2.1315,2.1363,2.1355,2.1355,2.1355,2.1649,2.1697,2.1424,2.1635,2.1663,2.1328,2.1183,2.117,2.1349,2.089,2.067,2.089,2.0706,2.0607,2.0779,2.0054,1.9465,1.927,1.8761,1.8573,1.859,1.892,1.9227,1.9191,1.9488,1.9972,2.0362,2.0205,2.0548,2.0655,2.0326,2.0094,1.9587,1.8861,1.8469,1.7802,1.7493,1.7069,1.667,1.5667,1.4771,1.3811,1.358,1.3663,1.3383,1.3273,1.3091,1.313,1.3066,1.2967,1.2972,1.2545,1.1845,1.1296,1.0685,1.0116,2.9695,2.9195,2.8598,2.7827,2.7106,2.6982,2.6652,2.6065,2.54,2.4948,2.4453,2.3489,2.3153,2.3077,2.2494,2.2325,2.2416,2.2159,2.1509,2.0341,1.9387,1.7529,1.6138,1.6466,1.7138,1.756,1.7697,1.7681,1.8166,1.8113,1.8307,1.8706,1.8484,1.8548,1.8967,1.9329,1.9584,1.9686,2.0041,1.9876,1.9469,2.0003,2.0243,1.9915,2.0762,2.126,2.1356,2.2076,2.1913,2.0675,2.1099,2.1758,2.2314,2.2546,2.2772,2.3039,2.3187,2.3187,2.3172,2.326,2.3275,2.3231,2.3172,2.3363,2.3231,2.3128,2.3084,2.3024,2.2801,2.2606,2.256,2.2423,2.2423,2.2317,2.1588,2.0828,2.0219,2.0156,2.0268,2.0294,2.0373,2.0589,2.0856,2.1036,2.1231,2.1411,2.1559,2.1511,2.1484,2.1342,2.0945,2.006,1.9359,1.9234,1.8993,1.8771,1.855,1.8417,1.7634,1.655,1.5273,1.4152,1.4291,1.4354,1.445,1.4373,1.4777,1.505,1.4948,1.4637,1.4453,1.4007,1.3875,1.3427,1.296,3.0653,2.9826,2.94,2.8802,2.8087,2.7992,2.7525,2.6835,2.6527,2.5947,2.5445,2.5142,2.4947,2.4906,2.4729,2.462,2.4627,2.4159,2.3169,2.1895,2.1214,2.0069,1.8973,1.9016,1.952,2.0202,1.9991,2.0144,2.04,2.0293,2.0394,2.062,2.0535,2.0633,2.1131,2.1424,2.1655,2.1702,2.1965,2.1871,2.137,2.1824,2.1965,2.1796,2.2395,2.2786,2.2876,2.3289,2.3068,2.2417,2.2572,2.295,2.3187,2.3391,2.3666,2.3982,2.3982,2.3982,2.4024,2.4124,2.4166,2.4067,2.4124,2.4109,2.3925,2.3925,2.3782,2.3852,2.3638,2.3493,2.3493,2.345,2.3319,2.295,2.2831,2.2363,2.1452,2.1595,2.171,2.171,2.1771,2.1819,2.2146,2.2193,2.2193,2.2278,2.2404,2.2219,2.2013,2.189,2.174,2.1,2.0534,2.0524,2.0233,1.9913,1.9537,1.9512,1.9121,1.8174,1.7203,1.5656,1.5783,1.6063,1.5823,1.5823,1.6234,1.6482,1.6269,1.6055,1.6155,1.6029,1.5666,1.5403,1.5014,3.156,3.0212,3.0194,2.9769,2.9052,2.8956,2.8461,2.7944,2.7831,2.713,2.626,2.6801,2.6532,2.6169,2.627,2.6473,2.5863,2.5389,2.424,2.2979,2.2232,2.1761,2.169,2.1466,2.2055,2.2847,2.3024,2.2849,2.2628,2.215,2.2115,2.2309,2.2038,2.2281,2.2759,2.3113,2.326,2.3128,2.3084,2.2951,2.2653,2.2951,2.3084,2.3172,2.3636,2.4032,2.4173,2.4271,2.4032,2.3533,2.3894,2.3952,2.4036,2.4078,2.4151,2.4151,2.4193,2.4193,2.4151,2.4441,2.4457,2.4276,2.4457,2.4457,2.4219,2.4036,2.4078,2.4343,2.3752,2.3794,2.3964,2.3994,2.3767,2.3493,2.3852,2.3809,2.329,2.2979,2.2979,2.2979,2.2979,2.2979,2.3024,2.3024,2.3054,2.3113,2.3185,2.3007,2.2799,2.2718,2.2637,2.2385,2.2128,2.2016,2.1589,2.1077,2.0683,2.0434,2.0131,1.9556,1.9349,1.8407,1.8143,1.7907,1.7346,1.7169,1.7401,1.7468,1.7413,1.739,1.74,1.711,1.6761,1.6628,1.6345,2.9909,2.9572,2.9407,2.9252,2.9104,2.9082,2.8953,2.871,2.8064,2.7619,2.7318,2.738,2.7259,2.6881,2.6788,2.6573,2.6127,2.539,2.4211,2.3549,2.3274,2.356,2.3736,2.36,2.3863,2.4453,2.4641,2.4505,2.423,2.4107,2.3987,2.3834,2.3676,2.3565,2.3837,2.3964,2.3824,2.3824,2.3867,2.3837,2.3736,2.3779,2.3921,2.3964,2.4502,2.5067,2.5524,2.5635,2.5582,2.5357,2.4808,2.4502,2.453,2.4688,2.4791,2.4791,2.4806,2.4806,2.4791,2.4871,2.4886,2.4846,2.4886,2.4846,2.4806,2.4751,2.4751,2.4846,2.471,2.4655,2.4735,2.4751,2.4533,2.4354,2.4395,2.4451,2.4021,2.3666,2.3493,2.3465,2.3465,2.3595,2.3909,2.3867,2.3909,2.3994,2.3894,2.3809,2.3638,2.3465,2.3334,2.3201,2.2844,2.2572,2.2282,2.1785,2.1403,2.1148,2.0953,2.0805,2.0607,2.0206,1.9542,1.9097,1.8709,1.8697,1.8797,1.8715,1.8703,1.8661,1.8685,1.856,1.8398,1.8124,1.792,3.0091,2.9715,2.9533,2.9476,2.9475,2.9415,2.9132,2.8793,2.8635,2.8073,2.7624,2.7857,2.7679,2.6908,2.6988,2.6841,2.6144,2.5226,2.4314,2.3684,2.3571,2.4077,2.4878,2.4904,2.5063,2.5782,2.5872,2.5799,2.5672,2.5577,2.5433,2.5297,2.5144,2.5112,2.5028,2.4989,2.5067,2.5028,2.5005,2.5005,2.5005,2.4965,2.4965,2.5005,2.5351,2.5762,2.6016,2.6052,2.6087,2.5961,2.5594,2.5259,2.5239,2.5395,2.5481,2.5535,2.5497,2.5497,2.5497,2.5497,2.5535,2.5513,2.5502,2.5524,2.5508,2.5524,2.554,2.553,2.5497,2.5497,2.5476,2.5476,2.5346,2.5208,2.5114,2.5052,2.4839,2.4461,2.409,2.4063,2.4105,2.4147,2.4287,2.441,2.4343,2.4204,2.4204,2.412,2.4036,2.3867,2.3797,2.3625,2.3216,2.2934,2.274,2.2406,2.2035,2.1833,2.169,2.1643,2.1534,2.1051,2.0508,2.0169,1.9914,2.0054,2.0168,2.0054,2.0105,2.0395,2.0497,2.0412,2.022,1.9965,1.9833,3.0777,3.0089,2.9981,2.9937,2.9921,2.9806,2.9284,2.8628,2.8896,2.8054,2.7233,2.8038,2.7361,2.6707,2.6856,2.6654,2.5792,2.5127,2.4172,2.3687,2.4088,2.4693,2.5437,2.5914,2.6398,2.7123,2.6872,2.674,2.6691,2.6556,2.6264,2.6368,2.6333,2.6106,2.6142,2.6193,2.6035,2.598,2.5908,2.5892,2.5944,2.5944,2.5944,2.6087,2.6177,2.6317,2.6471,2.6539,2.6522,2.642,2.6403,2.6403,2.6386,2.6123,2.6087,2.6052,2.598,2.598,2.598,2.6087,2.6142,2.6193,2.6168,2.6203,2.6191,2.6154,2.617,2.6191,2.6177,2.6142,2.6158,2.6087,2.598,2.5815,2.5779,2.5705,2.5503,2.5237,2.4926,2.4639,2.4704,2.4784,2.4704,2.4664,2.4558,2.4451,2.4467,2.4467,2.4426,2.441,2.4369,2.4436,2.4142,2.3933,2.3749,2.3535,2.3069,2.2862,2.2682,2.2682,2.2682,2.2608,2.2246,2.1459,2.1232,2.1342,2.1342,2.1135,2.139,2.2035,2.1841,2.1233,2.1318,2.1698,2.152,3.0316,3.0169,3.0095,3.0066,3.0066,3.0037,2.9493,2.8679,2.8108,2.721,2.6431,2.6437,2.6468,2.5987,2.5856,2.5332,2.4695,2.4324,2.4078,2.4106,2.4842,2.5768,2.6087,2.7054,2.7831,2.7996,2.7683,2.7374,2.7206,2.6872,2.6839,2.6691,2.6607,2.6522,2.6522,2.6368,2.6556,2.6556,2.6437,2.6403,2.6386,2.6351,2.642,2.6674,2.6838,2.7046,2.7361,2.7613,2.7787,2.7787,2.7787,2.7712,2.7447,2.6723,2.6298,2.6282,2.6317,2.6334,2.6351,2.6455,2.6522,2.6522,2.659,2.669,2.6737,2.6689,2.6756,2.6771,2.6721,2.6622,2.6833,2.6721,2.6455,2.6283,2.6248,2.6108,2.5803,2.5783,2.5819,2.5561,2.5486,2.5329,2.5137,2.5005,2.502,2.4981,2.4981,2.5036,2.502,2.5098,2.5137,2.5198,2.5259,2.5067,2.4926,2.4712,2.4399,2.421,2.4028,2.4028,2.4127,2.4389,2.4028,2.3157,2.2505,2.2413,2.2292,2.2278,2.23,2.2694,2.2342,2.1921,2.2142,2.2374,2.2085,2.9794,2.9783,2.9636,2.9857,3.0113,2.9639,2.9197,2.8782,2.8308,2.7651,2.7072,2.6826,2.6502,2.611,2.5906,2.5273,2.4504,2.4266,2.4192,2.4408,2.5226,2.606,2.648,2.7666,2.8416,2.868,2.8478,2.8094,2.7984,2.778,2.7596,2.7607,2.7531,2.7472,2.746,2.7472,2.737,2.7326,2.7247,2.7186,2.7155,2.7123,2.7251,2.7404,2.7507,2.7701,2.788,2.801,2.8102,2.8075,2.8102,2.8102,2.7908,2.7607,2.7132,2.7126,2.7092,2.7092,2.7123,2.7309,2.74,2.74,2.7377,2.7432,2.749,2.7461,2.7432,2.7484,2.7502,2.7412,2.7561,2.743,2.7339,2.7217,2.7123,2.6948,2.6771,2.6838,2.664,2.642,2.6156,2.5868,2.5481,2.5443,2.5481,2.5519,2.5572,2.5631,2.5705,2.5709,2.5783,2.5709,2.573,2.5582,2.5486,2.5433,2.5319,2.5221,2.516,2.516,2.5082,2.5121,2.5091,2.4652,2.4145,2.4028,2.4131,2.4381,2.3923,2.3363,2.3304,2.3245,2.3024,2.292,2.2735,2.9144,2.9137,2.8975,2.9292,2.9734,2.9025,2.8523,2.8415,2.8294,2.7752,2.716,2.6949,2.651,2.6051,2.5745,2.5348,2.4717,2.4746,2.4796,2.4912,2.5762,2.6463,2.7015,2.7733,2.8627,2.9169,2.9115,2.8915,2.8597,2.841,2.846,2.8358,2.8435,2.8478,2.8332,2.8201,2.8324,2.8316,2.8237,2.821,2.8156,2.8156,2.8156,2.8183,2.821,2.8201,2.8246,2.8368,2.8394,2.8394,2.8394,2.8368,2.8334,2.8309,2.8282,2.8281,2.8174,2.8121,2.8057,2.8112,2.8084,2.8084,2.8182,2.82,2.8244,2.8226,2.8242,2.8254,2.8183,2.8183,2.8219,2.821,2.8102,2.8002,2.7918,2.7862,2.7619,2.7457,2.7303,2.7036,2.6775,2.6774,2.6718,2.6719,2.6977,2.6994,2.7045,2.6623,2.6657,2.6386,2.6334,2.616,2.6054,2.5895,2.5859,2.5966,2.5911,2.5892,2.5819,2.5819,2.5672,2.5561,2.5715,2.6134,2.6543,2.6487,2.6511,2.605,2.5217,2.4656,2.4657,2.4364,2.3849,2.3698,2.3658,2.8255,2.8267,2.8218,2.8252,2.8305,2.8162,2.7651,2.7055,2.7016,2.6296,2.5619,2.5355,2.5248,2.5054,2.499,2.4835,2.4917,2.5335,2.5566,2.5685,2.6953,2.7699,2.8109,2.8871,2.9052,2.939,2.9347,2.92,2.8943,2.8676,2.8554,2.8578,2.8603,2.8529,2.8603,2.8621,2.846,2.8478,2.8446,2.8394,2.8342,2.8324,2.8324,2.8376,2.8504,2.8609,2.867,2.8808,2.8938,2.8962,2.9026,2.9048,2.9048,2.9003,2.8975,2.8808,2.8517,2.8094,2.8219,2.8386,2.8551,2.8525,2.854,2.8658,2.8707,2.8779,2.8785,2.8887,2.8676,2.8626,2.8718,2.8687,2.85,2.844,2.8424,2.8174,2.7922,2.8244,2.8053,2.811,2.799,2.8366,2.8592,2.8537,2.8547,2.8516,2.838,2.7903,2.748,2.7085,2.6935,2.6805,2.6657,2.6505,2.6352,2.6455,2.6403,2.6437,2.6402,2.6419,2.6298,2.6362,2.7328,2.7763,2.8205,2.8289,2.7947,2.7267,2.6316,2.5839,2.5639,2.5092,2.4389,2.4379,2.4575,2.6968,2.7414,2.7381,2.7639,2.7973,2.75,2.7052,2.6698,2.6563,2.5998,2.521,2.5056,2.4942,2.4837,2.4804,2.4779,2.4911,2.5592,2.5916,2.6276,2.7475,2.8297,2.8407,2.8983,2.939,2.939,2.9388,2.9347,2.916,2.9097,2.9012,2.8989,2.9007,2.9034,2.8925,2.9007,2.9007,2.8962,2.8915,2.8832,2.8827,2.8803,2.8785,2.8785,2.8902,2.8948,2.903,2.9093,2.9197,2.9156,2.9152,2.9112,2.9089,2.9048,2.903,2.9017,2.8785,2.8646,2.8658,2.8749,2.8791,2.8834,2.8815,2.8863,2.8975,2.8975,2.8975,2.8975,2.8905,2.8942,2.9117,2.9344,2.9107,2.8998,2.9098,2.8851,2.8676,2.8855,2.8979,2.9098,2.9296,2.9704,2.9993,2.9814,2.944,2.9004,2.8767,2.832,2.7909,2.7539,2.7457,2.7517,2.7352,2.7195,2.7051,2.697,2.6856,2.6808,2.6808,2.6808,2.6858,2.723,2.7979,2.8579,2.8779,2.8887,2.9029,2.8791,2.8163,2.7372,2.6602,2.6005,2.5445,2.5394,2.5686,2.5976,2.6553,2.6521,2.6883,2.7394,2.6715,2.6384,2.6302,2.6237,2.5821,2.5294,2.5072,2.4975,2.4902,2.4847,2.4779,2.4782,2.5796,2.6174,2.6761,2.7717,2.8577,2.8857,2.9246,2.945,2.9429,2.9409,2.9388,2.9368,2.9347,2.9328,2.9388,2.9286,2.9347,2.9368,2.9347,2.9304,2.928,2.924,2.92,2.92,2.9222,2.924,2.924,2.9262,2.9243,2.9262,2.9262,2.924,2.9218,2.9197,2.9197,2.9152,2.9138,2.9097,2.9089,2.8984,2.898,2.8952,2.8975,2.8998,2.8975,2.8975,2.8952,2.8975,2.8975,2.8975,2.8975,2.8975,2.9085,2.936,2.9874,2.9941,2.993,3.007,2.9807,2.9624,2.9755,2.9862,2.9901,3.0237,3.0951,3.1118,3.0909,3.0391,2.9651,2.9148,2.8694,2.8293,2.7893,2.7933,2.7961,2.7829,2.7713,2.7672,2.7535,2.7369,2.7198,2.7166,2.7181,2.7213,2.7486,2.8034,2.8592,2.9248,2.978,3.008,3.008,2.9975,2.8861,2.7823,2.7161,2.6723,2.6626,2.671,2.5648,2.5698,2.5698,2.5783,2.5868,2.5732,2.5654,2.5657,2.5599,2.5498,2.5244,2.5061,2.4955,2.4888,2.4837,2.4764,2.4798,2.6378,2.6768,2.7483,2.8669,2.9231,2.9382,2.942,2.9569,2.9492,2.9512,2.9491,2.9409,2.945,2.9409,2.9388,2.9388,2.9388,2.9388,2.9388,2.9388,2.9386,2.9347,2.9347,2.9347,2.9347,2.9368,2.9368,2.9368,2.9368,2.9386,2.9386,2.9365,2.9344,2.9323,2.9304,2.9262,2.9222,2.92,2.9156,2.9175,2.913,2.9108,2.9044,2.9017,2.9017,2.8998,2.9021,2.8998,2.8998,2.8975,2.9053,2.9122,2.9457,2.9824,3.0228,3.0681,3.0729,3.0851,3.0844,3.0644,3.0622,3.071,3.0704,3.1182,3.1928,3.1784,3.1516,3.1027,3.0281,2.9295,2.8819,2.8569,2.8237,2.8291,2.8291,2.8165,2.8138,2.8228,2.8063,2.773,2.7552,2.7491,2.7522,2.7582,2.7879,2.8014,2.9004,2.9741,3.0415,3.0817,3.0404,2.9983,2.9678,2.9036,2.8296,2.7837,2.7664,2.7771,2.56,2.5609,2.5607,2.5595,2.5609,2.5557,2.549,2.5434,2.5393,2.5293,2.5186,2.5077,2.5024,2.5,2.4994,2.4955,2.5107,2.6062,2.656,2.7205,2.8177,2.9014,2.9263,2.9555,2.9786,2.9681,2.9698,2.9645,2.9491,2.9531,2.9491,2.9451,2.9409,2.9388,2.9388,2.9388,2.9388,2.9388,2.9388,2.9388,2.9388,2.9388,2.9388,2.9388,2.9388,2.9388,2.9388,2.9388,2.9386,2.9344,2.9344,2.9344,2.9304,2.9283,2.924,2.92,2.9218,2.9197,2.9156,2.9134,2.913,2.9112,2.9112,2.9089,2.9067,2.9062,2.9021,2.9127,2.9457,2.9879,3.0118,3.1017,3.1744,3.1634,3.1627,3.173,3.1699,3.1629,3.1682,3.1735,3.227,3.2944,3.2498,3.1962,3.1473,3.0894,2.9862,2.8949,2.8688,2.8492,2.8518,2.8492,2.837,2.8264,2.8335,2.8201,2.8035,2.7922,2.7806,2.7789,2.7771,2.7719,2.8045,2.9141,2.991,3.0208,3.0357,3.0213,3.0041,2.9865,2.9692,2.9385,2.904,2.8625,2.8702,2.5609,2.5595,2.56,2.5599,2.5595,2.5544,2.551,2.5461,2.5429,2.533,2.5255,2.5196,2.5146,2.5143,2.5138,2.5096,2.5313,2.59,2.6225,2.6867,2.7674,2.8474,2.8932,2.9284,2.9585,2.9734,2.9851,2.9786,2.957,2.9626,2.9551,2.9471,2.9431,2.9429,2.9388,2.9388,2.9388,2.9388,2.9388,2.9388,2.9388,2.9388,2.9388,2.9388,2.9388,2.9388,2.9388,2.9388,2.9386,2.9365,2.9326,2.9304,2.9283,2.9262,2.9243,2.924,2.9262,2.9262,2.924,2.92,2.9218,2.9178,2.9178,2.9156,2.9134,2.913,2.9108,2.9118,2.9701,3.0325,3.0546,3.1623,3.2485,3.2441,3.268,3.2782,3.2645,3.2575,3.2684,3.2766,3.3213,3.3375,3.2754,3.2037,3.0831,3.0287,2.9463,2.8811,2.8677,2.8543,2.8587,2.8562,2.8492,2.8414,2.8335,2.8201,2.8091,2.8063,2.7961,2.7897,2.7869,2.7864,2.8446,2.9757,3.0273,3.007,3.0243,3.0635,3.048,3.0178,3.0075,3.0058,2.9265,2.8905,2.9229,2.5658,2.5601,2.5598,2.561,2.5607,2.5601,2.5595,2.557,2.5564,2.557,2.5517,2.539,2.5309,2.5283,2.5245,2.5215,2.5318,2.5937,2.6259,2.6469,2.7178,2.8001,2.8548,2.8949,2.9422,2.9855,2.9927,2.9851,2.9661,2.9626,2.9551,2.9531,2.9491,2.9451,2.9388,2.9388,2.9388,2.9388,2.9388,2.9388,2.9388,2.9388,2.9388,2.9388,2.9388,2.9388,2.9388,2.9388,2.9386,2.9368,2.9368,2.9347,2.9347,2.9347,2.9347,2.9326,2.9368,2.9368,2.9304,2.9243,2.9265,2.9265,2.9286,2.9307,2.9222,2.9237,2.9388,2.9551,3.0171,3.0825,3.1421,3.2144,3.293,3.3327,3.3529,3.3513,3.3358,3.3258,3.3304,3.3277,3.3424,3.3449,3.2847,3.1992,3.0404,2.9471,2.8866,2.8587,2.8612,2.8587,2.8587,2.8587,2.8562,2.8458,2.8362,2.8255,2.8174,2.8156,2.8109,2.8032,2.8187,2.8396,2.9231,3.0486,3.062,3.0406,3.083,3.129,3.1031,3.0806,3.0715,3.0473,2.9695,2.9316,2.9748,2.5684,2.5658,2.5605,2.5613,2.5595,2.56,2.5615,2.5609,2.5613,2.5615,2.5596,2.5524,2.5471,2.543,2.5406,2.5382,2.5451,2.5492,2.5774,2.5899,2.6631,2.7399,2.8046,2.8715,2.9281,2.9802,2.995,2.9869,2.9682,2.9645,2.9626,2.9608,2.9531,2.9472,2.9433,2.9412,2.9392,2.939,2.939,2.9388,2.9388,2.9388,2.9388,2.9388,2.9388,2.9388,2.9388,2.9409,2.9388,2.9409,2.9409,2.9409,2.9409,2.9409,2.945,2.9472,2.9532,2.9608,2.9663,2.9662,2.9551,2.9492,2.9493,2.9493,2.9328,2.9951,3.012,3.0416,3.1176,3.1942,3.2798,3.3292,3.3814,3.3845,3.3924,3.3787,3.366,3.3652,3.367,3.3652,3.3707,3.282,3.2082,3.1518,3.0163,2.9337,2.8803,2.8637,2.8612,2.8612,2.8587,2.8587,2.8562,2.8484,2.8362,2.8335,2.8183,2.8101,2.8085,2.8071,2.8351,2.8937,2.9944,3.1173,3.0975,3.0794,3.1347,3.1779,3.1643,3.1479,3.1512,3.1198,3.042,3.0264,3.0576,2.5698,2.5696,2.5665,2.5619,2.5616,2.5613,2.5595,2.5605,2.5604,2.5607,2.5609,2.5602,2.5577,2.5551,2.5551,2.5525,2.5544,2.5543,2.548,2.5565,2.5967,2.6863,2.7695,2.8391,2.9078,2.9684,2.9965,2.9902,2.9771,2.9753,2.9754,2.9719,2.9626,2.9626,2.9589,2.9532,2.9433,2.9433,2.9412,2.9431,2.945,2.945,2.945,2.945,2.945,2.9429,2.945,2.9429,2.9429,2.945,2.9471,2.9492,2.9492,2.9531,2.957,2.9662,2.9715,2.9767,2.9836,2.9931,2.9784,2.9626,2.9822,2.9751,2.9608,3.0021,3.0471,3.1035,3.2198,3.284,3.3369,3.3899,3.4151,3.4172,3.4078,3.3938,3.3852,3.3858,3.3469,3.3524,3.3029,3.2114,3.1323,3.0705,2.9887,2.9332,2.8839,2.8743,2.8669,2.8644,2.8644,2.8644,2.8619,2.8543,2.8492,2.8466,2.8291,2.8083,2.8294,2.8614,2.9287,3.0031,3.0939,3.1664,3.149,3.1528,3.1982,3.2228,3.2213,3.2306,3.2505,3.1996,3.1214,3.1217,3.1424,2.5691,2.5687,2.5707,2.5683,2.5681,2.5609,2.5604,2.561,2.5605,2.5609,2.5601,2.5601,2.5589,2.5589,2.5595,2.5577,2.5538,2.5557,2.5476,2.5418,2.5595,2.6487,2.7212,2.7819,2.8683,2.9518,2.9958,2.9934,2.9891,2.9754,2.9773,2.9823,2.9736,2.9789,2.977,2.9716,2.9589,2.9531,2.9472,2.9491,2.9491,2.9491,2.9491,2.9491,2.9491,2.9511,2.9512,2.9513,2.9551,2.9589,2.9644,2.9678,2.9713,2.9732,2.9799,2.9864,2.9883,2.9934,2.9899,3.0007,2.9992,2.9853,2.9867,2.9902,3.0021,3.0288,3.0968,3.1498,3.2353,3.2882,3.3412,3.3828,3.4222,3.4199,3.4137,3.4057,3.3979,3.3693,3.3197,3.2791,3.215,3.1409,3.078,3.0139,2.9752,2.9488,2.9101,2.9012,2.892,2.8773,2.8749,2.8725,2.87,2.8669,2.8619,2.8626,2.8822,2.872,2.9308,2.9722,3.0406,3.1029,3.1803,3.2261,3.2084,3.2262,3.2768,3.2938,3.2876,3.3022,3.3148,3.2739,3.1959,3.2077,3.2183,2.5659,2.5689,2.5651,2.5636,2.5632,2.5552,2.5542,2.5609,2.56,2.5605,2.5615,2.5613,2.5589,2.5524,2.5524,2.5483,2.5453,2.5401,2.5365,2.5357,2.5412,2.6033,2.6718,2.7458,2.8275,2.9051,2.9589,2.9918,2.9841,2.9737,2.979,2.9874,2.9872,2.9937,2.9965,2.9962,2.9769,2.9626,2.9551,2.957,2.9551,2.957,2.9551,2.957,2.957,2.9589,2.9662,2.9644,2.968,2.9834,2.9883,2.9915,2.9931,2.9931,2.9962,2.9977,3.0075,3.0152,2.9992,3.0007,3.0007,2.9996,2.9981,2.9931,3.0216,3.0871,3.1695,3.214,3.2613,3.3201,3.3282,3.3534,3.3635,3.3506,3.3412,3.3236,3.3101,3.2774,3.2281,3.1778,3.1143,3.0854,3.0228,2.9922,2.959,2.9468,2.9375,2.9251,2.9144,2.8989,2.8897,2.8874,2.885,2.8827,2.8808,2.8808,2.9156,2.9471,3.0045,3.0668,3.1316,3.1953,3.2654,3.2951,3.2915,3.3155,3.3585,3.3574,3.3331,3.3478,3.357,3.3179,3.2847,3.2818,3.2731,2.5636,2.5668,2.5621,2.5604,2.5595,2.5521,2.5537,2.5593,2.56,2.561,2.5595,2.5599,2.5576,2.5537,2.5525,2.5498,2.5485,2.5464,2.5441,2.541,2.541,2.5919,2.654,2.7266,2.807,2.8808,2.9483,3.0015,2.9886,2.9918,2.9981,3.0099,3.0075,3.0056,3.008,3.0052,2.9902,2.977,2.9718,2.9734,2.9716,2.9716,2.9751,2.9716,2.9716,2.9767,2.9815,2.9799,2.9851,2.995,2.9965,2.9965,2.9981,2.9996,3.0,3.0,3.0041,3.009,3.0007,2.9992,3.0007,3.0022,3.009,3.0333,3.0729,3.135,3.1996,3.2531,3.3068,3.3456,3.3288,3.3072,3.2829,3.258,3.2372,3.2125,3.1873,3.1603,3.116,3.0672,3.0357,3.0145,2.9855,2.9622,2.9434,2.9353,2.9314,2.9272,2.923,2.9188,2.906,2.9016,2.9038,2.9016,2.902,2.9056,2.9306,2.9798,3.0609,3.1273,3.2063,3.275,3.3333,3.3647,3.3825,3.3917,3.388,3.3858,3.3742,3.3834,3.378,3.3449,3.3194,3.31,3.297,2.5595,2.5615,2.561,2.561,2.5595,2.5521,2.5547,2.5605,2.5609,2.5604,2.5613,2.5615,2.5595,2.5556,2.5517,2.5511,2.5499,2.5506,2.5464,2.5476,2.5488,2.5809,2.6351,2.7217,2.7654,2.8612,2.9292,2.9576,2.9937,3.0037,3.0155,3.0375,3.0241,3.0188,3.0169,3.0182,3.0075,2.9953,2.9965,3.0037,2.9958,3.0003,3.0066,3.0022,3.0007,3.0003,3.0022,2.9981,2.9905,2.9921,2.9937,2.9937,2.9984,3.003,3.0,3.0076,3.017,3.0242,3.0223,3.0185,3.0037,3.0085,3.0213,3.0609,3.1073,3.1481,3.2012,3.2511,3.2974,3.2833,3.2609,3.2223,3.1905,3.1737,3.1559,3.1371,3.1167,3.0845,3.0423,3.006,2.9975,2.9792,2.9889,2.9716,2.9732,2.9456,2.9415,2.9436,2.9375,2.9395,2.9254,2.9193,2.9233,2.9272,2.9249,2.9286,2.9418,2.9996,3.0813,3.1422,3.188,3.2871,3.3981,3.4018,3.3998,3.3947,3.3902,3.3868,3.3834,3.3807,3.3753,3.3652,3.3494,3.3361,3.3032,2.5551,2.56,2.561,2.5644,2.5659,2.555,2.5566,2.567,2.5623,2.5632,2.5658,2.5636,2.5595,2.5547,2.5526,2.551,2.5492,2.5505,2.5444,2.5464,2.549,2.5592,2.5858,2.6679,2.7094,2.7344,2.7988,2.9055,2.9586,2.9928,3.0182,3.0304,3.026,3.0234,3.0286,3.0305,3.0234,3.0094,3.018,3.009,2.9888,2.9823,2.9789,2.9823,2.9822,2.9902,2.9937,2.9953,2.9965,3.0022,3.0071,3.0052,3.0052,3.0099,3.0438,3.0782,3.051,3.0581,3.0638,3.0466,3.0147,3.0095,3.0237,3.0715,3.112,3.1462,3.1857,3.2319,3.2492,3.2223,3.1852,3.1411,3.1053,3.0929,3.082,3.0668,3.0519,3.0151,2.9756,2.9683,2.9626,2.9697,2.9817,2.9902,2.9946,2.9965,2.9984,2.9953,2.9786,2.9716,2.9474,2.9397,2.9512,2.9512,2.9471,2.9468,2.9561,2.9913,3.0637,3.1213,3.1749,3.2651,3.3568,3.3907,3.4023,3.3947,3.3895,3.3842,3.3834,3.3807,3.378,3.368,3.3662,3.3578,3.3105,2.5535,2.5556,2.5565,2.5609,2.5629,2.5535,2.5551,2.5625,2.5612,2.5632,2.5681,2.5639,2.5598,2.5589,2.5552,2.5552,2.5507,2.551,2.551,2.5523,2.5525,2.5525,2.5855,2.6292,2.6668,2.6981,2.8055,2.9014,2.9485,2.999,3.0359,3.034,3.0279,3.0254,3.0343,3.0343,3.026,3.018,3.0241,3.0071,2.9805,2.9874,2.9937,2.9953,2.9918,2.995,2.9934,2.9965,3.0011,3.008,3.0128,3.0114,3.0228,3.0557,3.0962,3.1167,3.1103,3.0969,3.1078,3.0791,3.0241,3.019,3.0241,3.0681,3.1225,3.1529,3.1391,3.1804,3.2089,3.1907,3.1272,3.0763,3.0618,3.0496,3.04,3.0247,3.017,2.9992,2.9792,2.9736,2.9696,2.9715,2.9803,2.9786,2.982,2.9767,2.9886,2.9953,2.9869,2.994,2.9716,2.957,2.9664,2.9664,2.9569,2.9548,2.9623,3.0051,3.0532,3.1347,3.2065,3.2535,3.3099,3.3704,3.4023,3.3921,3.3868,3.3842,3.3834,3.3807,3.378,3.3734,3.3734,3.3662,3.3225,2.5576,2.5526,2.554,2.5566,2.5601,2.5559,2.5577,2.5618,2.5601,2.565,2.5697,2.5654,2.5654,2.5651,2.5639,2.5662,2.5658,2.5621,2.5601,2.5598,2.5593,2.5591,2.5813,2.6236,2.6371,2.7021,2.8062,2.8945,2.969,3.0141,3.0398,3.0378,3.0287,3.022,3.0203,2.9992,2.9768,2.9765,2.9808,2.9889,2.9966,3.0142,3.0142,3.015,3.0157,3.015,3.008,3.0052,3.0071,3.0095,3.0155,3.0155,3.0251,3.0617,3.1136,3.1322,3.1174,3.1225,3.1333,3.0806,3.0456,3.0302,3.0381,3.0655,3.1216,3.1274,3.1137,3.1234,3.1516,3.1399,3.0777,3.0444,3.0328,3.0228,3.0136,3.0018,2.9977,2.9915,2.9883,2.9832,2.9832,2.9834,2.9834,2.982,2.9769,2.968,2.9625,2.9607,2.9661,2.9855,2.9839,2.9735,2.9755,2.9701,2.9776,2.9869,2.9981,3.0109,3.0665,3.157,3.2325,3.2692,3.3184,3.3796,3.4023,3.3947,3.3868,3.386,3.3834,3.3807,3.3807,3.378,3.3707,3.3606,3.3284,2.5629,2.5661,2.5659,2.567,2.568,2.568,2.5662,2.5682,2.5681,2.5701,2.5699,2.5698,2.5697,2.5698,2.5696,2.5693,2.5679,2.5673,2.5687,2.5684,2.5621,2.5598,2.5673,2.5873,2.5816,2.6517,2.7434,2.8199,2.9081,2.989,3.0389,3.0301,2.9548,2.9595,2.9992,2.9627,2.9041,2.9295,2.9494,2.9538,2.9602,2.9754,2.9946,3.0015,3.0056,3.003,3.0,3.003,3.0075,3.0118,3.0177,3.0228,3.0369,3.0617,3.111,3.1465,3.1302,3.1381,3.1303,3.0926,3.0617,3.0492,3.0537,3.0576,3.0875,3.0875,3.0789,3.0789,3.0972,3.0955,3.053,3.051,3.043,3.0386,3.0297,3.0228,3.0177,3.0095,3.0037,3.0066,3.0095,3.0142,3.0202,3.0174,3.0114,3.0052,3.0011,2.9977,2.995,2.9969,2.9956,2.9891,2.9859,3.0208,3.0452,3.0432,3.0506,3.054,3.0648,3.1278,3.1964,3.2709,3.3255,3.3883,3.4049,3.3947,3.3895,3.386,3.3834,3.3807,3.3807,3.378,3.3707,3.3606,3.339]}]]